[[{"header":{"parameterUnit":"m.s-1","parameterCategory":1,"la1":30.6,"la2":28.766,"lo1":-90.7593,"lo2":-88.6598,"dy":0.0162,"dx":0.0183,"nx":116,"ny":114,"refTime":"2023-05-16T12:00:00:Z","depth":0,"parameterNumber":2,"parameterNumberName":"U-component_of_WINDS"},"data":[0.0,0.0,0.0,0.0,0.0,0.0,0.0,0.0,0.0,0.0,0.0,0.0,0.0,0.0,0.0,0.0,0.0,0.0,0.0,0.0,0.0,0.0,0.0,0.0,0.0,0.0,0.0,0.0,0.0,0.0,0.0,0.0,0.0,0.0,0.0,0.0,0.0,0.0,0.0,0.0,0.0,0.0,0.0,0.0,0.0,0.0,0.0,0.0,0.0,0.0,0.0,0.0,0.0,0.0,0.0,0.0,0.0,0.0,0.0,0.0,0.0,0.0,0.0,0.0,0.0,0.0,0.0,0.0,0.0,0.0,0.0,0.0,0.0,0.0,0.0,0.0,0.0,0.0,0.0,0.0,0.0,0.0,0.0,0.0,0.0,0.0,0.0,0.0,0.0,0.0,0.0,0.0,0.0,0.0,0.0,0.0,0.0,0.0,0.0,0.0,0.0,0.0,0.0,0.0,0.0,0.0,0.0,0.0,0.0,0.0,0.0,0.0,0.0,0.0,0.0,0.0,0.0,0.0,0.0,0.0,0.0,0.0,0.0,0.0,0.0,0.0,0.0,0.0,0.0,0.0,0.0,0.0,0.0,0.0,0.0,0.0,0.0,0.0,0.0,0.0,0.0,0.0,0.0,0.0,0.0,0.0,0.0,0.0,0.0,0.0,0.0,0.0,0.0,0.0,0.0,0.0,0.0,0.0,0.0,0.0,0.0,0.0,0.0,0.0,0.0,0.0,0.0,0.0,0.0,0.0,0.0,0.0,0.0,0.0,0.0,0.0,0.0,0.0,0.0,0.0,0.0,0.0,0.0,0.0,0.0,0.0,0.0,0.0,0.0,0.0,0.0,0.0,0.0,0.0,0.0,0.0,0.0,0.0,0.0,0.0,0.0,0.0,0.0,0.0,0.0,0.0,0.0,0.0,0.0,0.0,0.0,0.0,0.0,0.0,0.0,0.0,0.0,0.0,0.0,0.0,0.0,0.0,0.0,0.0,0.0,0.0,0.0,0.0,0.0,0.0,0.0,0.0,0.0,0.0,0.0,0.0,0.0,0.0,0.0,0.0,0.0,0.0,0.0,0.0,0.0,0.0,0.0,0.0,0.0,0.0,0.0,0.0,0.0,0.0,0.0,0.0,0.0,0.0,0.0,0.0,0.0,0.0,0.0,0.0,0.0,0.0,0.0,0.0,0.0,0.0,0.0,0.0,0.0,0.0,0.0,0.0,0.0,0.0,0.0,0.0,0.0,0.0,0.0,0.0,0.0,0.0,0.0,0.0,0.0,0.0,0.0,0.0,0.0,0.0,0.0,0.0,0.0,0.0,0.0,0.0,0.0,0.0,0.0,0.0,0.0,0.0,0.0,0.0,0.0,0.0,0.0,0.0,0.0,0.0,0.0,0.0,0.0,0.0,0.0,0.0,0.0,0.0,0.0,0.0,0.0,0.0,0.0,0.0,0.0,0.0,0.0,0.0,0.0,0.0,0.0,0.0,0.0,0.0,0.0,0.0,0.0,0.0,0.0,0.0,0.0,0.0,0.0,0.0,0.0,0.0,0.0,0.0,0.0,0.0,0.0,0.0,0.0,0.0,0.0,0.0,0.0,0.0,0.0,0.0,0.0,0.0,0.0,0.0,0.0,0.0,0.0,0.0,0.0,0.0,0.0,0.0,0.0,0.0,0.0,0.0,0.0,0.0,0.0,0.0,0.0,0.0,0.0,0.0,0.0,0.0,0.0,0.0,0.0,0.0,0.0,0.0,0.0,0.0,0.0,0.0,0.0,0.0,0.0,0.0,0.0,0.0,0.0,0.0,0.0,0.0,0.0,0.0,0.0,0.0,0.0,0.0,0.0,0.0,0.0,0.0,0.0,0.0,0.0,0.0,0.0,0.0,0.0,0.0,0.0,0.0,0.0,0.0,0.0,0.0,0.0,0.0,0.0,0.0,0.0,0.0,0.0,0.0,0.0,0.0,0.0,0.0,0.0,0.0,0.0,0.0,0.0,0.0,0.0,0.0,0.0,0.0,0.0,0.0,0.0,0.0,0.0,0.0,0.0,0.0,0.0,0.0,0.0,0.0,0.0,0.0,0.0,0.0,0.0,0.0,0.0,0.0,0.0,0.0,0.0,0.0,0.0,0.0,0.0,0.0,0.0,0.0,0.0,0.0,0.0,0.0,0.0,0.0,0.0,0.0,0.0,0.0,0.0,0.0,0.0,0.0,0.0,0.0,0.0,0.0,0.0,0.0,0.0,0.0,0.0,0.0,0.0,0.0,0.0,0.0,0.0,0.0,0.0,0.0,0.0,0.0,0.0,0.0,0.0,0.0,0.0,0.0,0.0,0.0,0.0,0.0,0.0,0.0,0.0,0.0,0.0,0.0,0.0,0.0,0.0,0.0,0.0,0.0,0.0,0.0,0.0,0.0,0.0,0.0,0.0,0.0,0.0,0.0,0.0,0.0,0.0,0.0,0.0,0.0,0.0,0.0,0.0,0.0,0.0,0.0,0.0,0.0,0.0,0.0,0.0,0.0,0.0,0.0,0.0,0.0,0.0,0.0,0.0,0.0,0.0,0.0,0.0,0.0,0.0,0.0,0.0,0.0,0.0,0.0,0.0,0.0,0.0,0.0,0.0,0.0,0.0,0.0,0.0,0.0,0.0,0.0,0.0,0.0,0.0,0.0,0.0,0.0,0.0,0.0,0.0,0.0,0.0,0.0,0.0,0.0,0.0,0.0,0.0,0.0,0.0,0.0,0.0,0.0,0.0,0.0,0.0,0.0,0.0,0.0,0.0,0.0,0.0,0.0,0.0,0.0,0.0,0.0,0.0,0.0,0.0,0.0,0.0,0.0,0.0,0.0,0.0,0.0,0.0,0.0,0.0,0.0,0.0,0.0,0.0,0.0,0.0,0.0,0.0,0.0,0.0,0.0,0.0,0.0,0.0,0.0,0.0,0.0,0.0,0.0,0.0,0.0,0.0,0.0,0.0,0.0,0.0,0.0,0.0,0.0,0.0,0.0,0.0,0.0,0.0,0.0,0.0,0.0,0.0,0.0,0.0,0.0,0.0,0.0,0.0,0.0,0.0,0.0,0.0,0.0,0.0,0.0,0.0,0.0,0.0,0.0,0.0,0.0,0.0,0.0,0.0,0.0,0.0,0.0,0.0,0.0,0.0,0.0,0.0,0.0,0.0,0.0,0.0,0.0,0.0,0.0,0.0,0.0,0.0,0.0,0.0,0.0,0.0,0.0,0.0,0.0,0.0,0.0,0.0,0.0,0.0,0.0,0.0,0.0,0.0,0.0,0.0,0.0,0.0,0.0,0.0,0.0,0.0,0.0,0.0,0.0,0.0,0.0,0.0,0.0,0.0,0.0,0.0,0.0,0.0,0.0,0.0,0.0,0.0,0.0,0.0,0.0,0.0,0.0,0.0,0.0,0.0,0.0,0.0,0.0,0.0,0.0,0.0,0.0,0.0,0.0,0.0,0.0,0.0,0.0,0.0,0.0,0.0,0.0,0.0,0.0,0.0,0.0,0.0,0.0,0.0,0.0,0.0,0.0,0.0,0.0,0.0,0.0,0.0,0.0,0.0,0.0,0.0,0.0,0.0,0.0,0.0,0.0,0.0,0.0,0.0,0.0,0.0,0.0,0.0,0.0,0.0,0.0,0.0,0.0,0.0,0.0,0.0,0.0,0.0,0.0,0.0,0.0,0.0,0.0,0.0,0.0,0.0,0.0,0.0,0.0,0.0,0.0,0.0,0.0,0.0,0.0,0.0,0.0,0.0,0.0,0.0,0.0,0.0,0.0,0.0,0.0,0.0,0.0,0.0,0.0,0.0,0.0,0.0,0.0,0.0,0.0,0.0,0.0,0.0,0.0,0.0,0.0,0.0,0.0,0.0,0.0,0.0,0.0,0.0,0.0,0.0,0.0,0.0,0.0,0.0,0.0,0.0,0.0,0.0,0.0,0.0,0.0,0.0,0.0,0.0,0.0,0.0,0.0,0.0,0.0,0.0,0.0,0.0,0.0,0.0,0.0,0.0,0.0,0.0,0.0,0.0,0.0,0.0,0.0,0.0,0.0,0.0,0.0,0.0,0.0,0.0,0.0,0.0,0.0,0.0,0.0,0.0,0.0,0.0,0.0,0.0,0.0,0.0,0.0,0.0,0.0,0.0,0.0,0.0,0.0,0.0,0.0,0.0,0.0,0.0,0.0,0.0,0.0,0.0,0.0,0.0,0.0,0.0,0.0,0.0,0.0,0.0,0.0,0.0,0.0,0.0,0.0,0.0,0.0,0.0,0.0,0.0,0.0,0.0,0.0,0.0,0.0,0.0,0.0,0.0,0.0,0.0,0.0,0.0,0.0,0.0,0.0,0.0,0.0,0.0,0.0,0.0,0.0,0.0,0.0,0.0,0.0,0.0,0.0,0.0,0.0,0.0,0.0,0.0,0.0,0.0,0.0,0.0,0.0,0.0,0.0,0.0,0.0,0.0,0.0,0.0,0.0,0.0,0.0,0.0,0.0,0.0,0.0,0.0,0.0,0.0,0.0,0.0,0.0,0.0,0.0,0.0,0.0,0.0,0.0,0.0,0.0,0.0,0.0,0.0,0.0,0.0,0.0,0.0,0.0,0.0,0.0,0.0,0.0,0.0,0.0,0.0,0.0,0.0,0.0,0.0,0.0,0.0,0.0,0.0,0.0,0.0,0.0,0.0,0.0,0.0,0.0,0.0,0.0,0.0,0.0,0.0,0.0,0.0,0.0,0.0,0.0,0.0,0.0,0.0,0.0,0.0,0.0,0.0,0.0,0.0,0.0,0.0,0.0,0.0,0.0,0.0,0.0,0.0,0.0,0.0,0.0,0.0,0.0,0.0,0.0,0.0,0.0,0.0,0.0,0.0,0.0,0.0,0.0,0.0,0.0,0.0,0.0,0.0,0.0,0.0,0.0,0.0,0.0,0.0,0.0,0.0,0.0,0.0,0.0,0.0,0.0,0.0,0.0,0.0,0.0,0.0,0.0,0.0,0.0,0.0,0.0,0.0,0.0,0.0,0.0,0.0,0.0,0.0,0.0,0.0,0.0,0.0,0.0,0.0,0.0,0.0,0.0,0.0,0.0,0.0,0.0,0.0,0.0,0.0,0.0,0.0,0.0,0.0,0.0,0.0,0.0,0.0,0.0,0.0,0.0,0.0,0.0,0.0,0.0,0.0,0.0,0.0,0.0,0.0,0.0,0.0,0.0,0.0,0.0,0.0,0.0,0.0,0.0,0.0,0.0,0.0,0.0,0.0,0.0,0.0,0.0,0.0,0.0,0.0,0.0,0.0,0.0,0.0,0.0,0.0,0.0,0.0,0.0,0.0,0.0,0.0,0.0,0.0,0.0,0.0,0.0,0.0,0.0,0.0,0.0,0.0,0.0,0.0,0.0,0.0,0.0,0.0,0.0,0.0,0.0,0.0,0.0,0.0,0.0,0.0,0.0,0.0,0.0,0.0,0.0,0.0,0.0,0.0,0.0,0.0,0.0,0.0,0.0,0.0,0.0,0.0,0.0,0.0,0.0,0.0,0.0,0.0,0.0,0.0,0.0,0.0,0.0,0.0,0.0,0.0,0.0,0.0,0.0,0.0,0.0,0.0,0.0,0.0,0.0,0.0,0.0,0.0,0.0,0.0,0.0,0.0,0.0,0.0,0.0,0.0,0.0,0.0,0.0,0.0,0.0,0.0,0.0,0.0,0.0,0.0,0.0,0.0,0.0,0.0,0.0,0.0,0.0,0.0,0.0,0.0,0.0,0.0,0.0,0.0,0.0,0.0,0.0,0.0,0.0,0.0,0.0,0.0,0.0,0.0,0.0,0.0,0.0,0.0,0.0,0.0,0.0,0.0,0.0,0.0,0.0,0.0,0.0,0.0,0.0,0.0,0.0,0.0,0.0,0.0,0.0,0.0,0.0,0.0,0.0,0.0,0.0,0.0,0.0,0.0,0.0,0.0,0.0,0.0,0.0,0.0,0.0,0.0,0.0,0.0,0.0,0.0,0.0,0.0,0.0,0.0,0.0,0.0,0.0,0.0,0.0,0.0,0.0,0.0,0.0,0.0,0.0,0.0,0.0,0.0,0.0,0.5596,0.5483,0.0,0.0,0.0,0.0,0.0,0.0,0.0,0.0,0.0,0.0,0.0,0.0,0.0,0.0,0.0,0.0,0.0,0.0,0.0,0.0,0.0,0.0,0.0,0.0,0.0,0.0,0.0,0.0,0.0,0.0,0.0,0.0,0.0,0.0,0.0,0.0,0.0,0.0,0.0,0.0,0.0,0.0,0.0,0.0,0.0,0.0,0.0,0.0,0.0,0.0,0.0,0.0,0.0,0.0,0.0,0.0,0.0,0.0,0.0,0.0,0.0,0.0,0.0,0.0,0.0,0.0,0.0,0.0,0.0,0.0,0.0,0.0,0.0,0.0,0.0,0.0,0.0,0.0,0.0,0.0,0.0,0.0,0.0,0.0,0.0,0.0,0.0,0.0,0.0,0.0,0.0,0.0,0.0,0.0,0.0,0.0,0.0,0.0,0.0,0.0,0.0,0.0,0.0,0.0,0.0,0.0,0.0,0.0,0.0,0.0,0.0,0.0,0.0,0.0,0.6088,0.5886,0.0,0.0,0.0,0.0,0.0,0.0,0.0,0.0,0.0,0.0,0.0,0.0,0.0,0.0,0.0,0.0,0.0,0.0,0.0,0.0,0.0,0.0,0.0,0.0,0.0,0.0,0.0,0.0,0.0,0.0,0.0,0.0,0.0,0.0,0.0,0.0,0.0,0.0,0.0,0.0,0.0,0.0,0.0,0.0,0.0,0.0,0.0,0.0,0.0,0.0,0.0,0.0,0.0,0.0,0.0,0.0,0.0,0.0,0.0,0.0,0.0,0.0,0.0,0.0,0.0,0.0,0.0,0.0,0.0,0.0,0.0,0.0,0.0,0.0,0.0,0.0,0.0,0.0,0.0,0.0,0.0,0.0,0.0,0.0,0.0,0.0,0.0,0.0,0.0,0.0,0.0,0.0,0.0,0.0,0.0,0.0,0.0,0.0,0.0,0.0,0.0,0.0,0.0,0.0,0.0,0.0,0.0,0.0,0.7349,0.718,0.7148,0.7093,0.6976,0.6845,0.6671,0.6505,0.6418,0.6326,0.0,0.0,0.0,0.0,0.0,0.0,0.0,0.0,0.0,0.0,0.0,0.0,0.0,0.0,0.0,0.0,0.0,0.0,0.0,0.0,0.0,0.0,0.0,0.0,0.0,0.0,0.0,0.0,0.0,0.0,0.0,0.0,0.0,0.0,0.0,0.0,0.0,0.0,1.1923,1.2058,1.2048,1.1809,0.0,0.0,0.0,0.0,0.0,0.0,0.0,0.0,0.0,0.0,0.0,0.0,0.0,0.0,0.0,0.0,0.0,0.0,0.0,0.0,0.0,0.0,0.0,0.0,0.0,0.0,0.0,0.0,0.0,0.0,0.0,0.0,0.0,0.0,0.0,0.0,0.0,0.0,0.0,0.0,0.0,0.0,0.0,0.0,0.9927,0.9626,0.0,0.0,0.0,0.0,0.0,0.0,0.0,0.0,0.0,0.0,0.0,0.0,0.0,0.8234,0.7905,0.8075,0.8155,0.8132,0.7835,0.7677,0.7704,0.7405,0.7072,0.6809,0.6783,0.0,0.6784,0.6426,0.0,0.0,0.0,0.0,0.0,0.0,0.0,0.0,0.0,0.0,0.0,0.0,0.0,0.0,0.0,0.0,0.0,0.0,0.0,0.0,0.0,0.0,0.0,0.0,0.0,0.0,0.0,0.0,0.0,0.0,0.0,0.0,0.0,0.0,0.0,0.0,1.1457,1.2231,1.2858,1.3586,1.3895,1.3884,1.2998,1.1944,1.0864,1.0286,0.0,0.0,0.0,0.0,0.0,0.0,0.0,0.0,0.0,0.0,0.0,0.0,0.0,0.0,0.0,0.0,0.0,0.0,0.0,0.0,0.0,0.0,0.0,0.0,0.0,0.0,0.0,0.0,0.0,0.0,0.0,0.0,0.0,0.0,0.0,0.0,0.0,0.0,0.0,1.0091,1.0078,1.0015,0.9922,0.9857,0.0,0.0,0.0,0.0,0.0,0.0,0.0,0.0,0.0,0.8729,0.8635,0.8503,0.8333,0.8109,0.8125,0.8324,0.8007,0.7884,0.7926,0.7729,0.7536,0.722,0.7083,0.7025,0.7035,0.6501,0.628,0.6151,0.0,0.0,0.0,0.0,0.558,0.552,0.0,0.0,0.0,0.0,0.0,0.0,0.0,0.0,0.0,0.0,0.0,0.0,0.0,0.0,0.0,0.6394,0.0,0.0,0.0,0.0,0.0,0.0,0.0,0.0,0.0,0.0,0.0,0.0,1.3216,1.3682,1.4211,1.5176,1.5626,1.5637,1.5661,1.453,1.2609,1.2197,1.1466,0.0,0.0,0.0,0.0,0.0,0.0,0.0,0.0,0.0,0.0,0.0,0.0,0.0,0.0,0.0,0.0,0.0,0.0,0.0,0.0,0.0,0.0,0.0,0.0,0.0,0.0,0.0,0.0,0.0,0.0,0.0,0.0,0.0,0.0,0.0,0.0,0.0,0.0,1.0195,1.027,1.0357,1.034,1.0292,0.0,0.0,0.0,0.0,0.0,0.0,0.943,0.9111,0.8961,0.9147,0.8893,0.8698,0.8638,0.8281,0.8212,0.8358,0.8082,0.7913,0.7934,0.7863,0.7655,0.7308,0.7162,0.7015,0.6832,0.6506,0.6346,0.6211,0.6099,0.5958,0.577,0.5662,0.5519,0.5326,0.0,0.0,0.0,0.0,0.0,0.0,0.0,0.0,0.0,0.0,0.0,0.0,0.0,0.0,0.7375,0.7505,0.8094,0.8424,0.0,0.0,0.0,0.0,0.0,0.0,0.0,0.0,0.0,1.4378,1.4733,1.5591,1.6904,1.7121,1.7231,1.7364,1.7364,1.6255,1.4323,1.327,1.2288,1.1423,0.0,0.0,0.0,0.0,0.0,0.0,0.0,0.0,0.0,0.0,0.0,0.0,0.0,0.0,0.0,0.0,0.0,0.0,0.0,0.0,0.0,0.0,0.0,0.0,0.0,0.0,0.0,0.0,0.0,0.0,0.0,0.0,0.0,0.0,0.0,0.0,0.0,0.0,0.0,1.0588,1.0365,0.0,0.0,0.0,0.0,0.9703,0.979,0.9788,0.9573,0.9138,0.8872,0.8721,0.8844,0.872,0.8409,0.8711,0.8664,0.8272,0.8117,0.7915,0.7726,0.7367,0.7158,0.6948,0.6738,0.6384,0.6093,0.6418,0.6549,0.6529,0.6018,0.5819,0.5733,0.5386,0.513,0.4929,0.0,0.0,0.0,0.0,0.0,0.0,0.0,0.0,0.0,0.0,0.0,0.0,0.0,0.7349,0.7861,0.835,0.8847,0.92,0.9271,0.0,0.0,0.0,0.0,0.0,0.0,0.0,1.4095,1.5118,1.5971,1.6656,1.7326,1.7871,1.8178,1.8215,1.8215,1.7811,1.7012,1.5903,1.4765,1.3682,1.3299,1.2521,0.0,0.0,0.0,0.0,0.0,0.0,0.0,0.0,0.0,0.0,0.0,0.0,0.0,0.0,0.0,0.0,0.0,0.0,0.0,0.0,0.0,0.0,0.0,0.0,0.0,0.0,0.0,0.0,0.0,0.0,0.0,0.0,0.0,0.0,0.0,0.0,0.0,1.0463,1.0278,0.0,1.0041,1.0034,0.9952,0.9785,0.9539,0.9395,0.9402,0.9082,0.8943,0.8982,0.892,0.8748,0.8548,0.8354,0.8222,0.8075,0.7847,0.7621,0.7588,0.7293,0.6993,0.6693,0.6475,0.6245,0.594,0.579,0.5831,0.5875,0.5458,0.5296,0.5151,0.4745,0.4448,0.4312,0.0,0.0,0.0,0.0,0.0,0.0,0.0,0.0,0.0,0.0,0.0,0.688,0.749,0.7988,0.8534,0.906,0.9672,1.0078,1.024,0.0,0.0,0.0,0.0,0.0,0.0,1.4471,1.5385,1.6223,1.7076,1.7781,1.8382,1.8939,1.9364,1.9589,1.9589,1.9537,1.9408,1.8549,1.7298,1.5763,1.5093,1.4193,1.3171,0.0,0.0,0.0,0.0,0.0,0.0,0.0,0.0,0.0,0.0,0.0,0.0,0.0,0.0,0.0,0.0,0.0,0.0,0.0,0.0,0.0,0.0,0.0,0.0,0.0,0.0,0.0,0.0,0.0,0.0,0.0,0.0,0.0,0.0,1.044,1.0404,1.034,1.0217,1.0132,0.9973,0.9935,0.9919,0.9774,0.9455,0.9264,0.9332,0.898,0.8807,0.8901,0.8714,0.8546,0.8408,0.811,0.7919,0.7834,0.7597,0.7379,0.7188,0.7092,0.6799,0.6321,0.6169,0.5848,0.5604,0.5209,0.5115,0.5112,0.4949,0.4845,0.4699,0.4249,0.3878,0.3661,0.0,0.0,0.0,0.0,0.0,0.0,0.0,0.0,0.0,0.0,0.6803,0.7305,0.7608,0.8618,0.9438,0.9697,1.0558,1.1165,1.1317,1.1774,0.0,0.0,0.0,0.0,1.4909,1.5836,1.6723,1.7629,1.8025,1.8939,2.0256,2.0432,2.0882,2.1493,2.1493,2.1437,2.13,2.0894,1.9587,1.7664,1.6635,1.5557,1.4625,0.0,0.0,0.0,0.0,0.0,0.0,0.0,0.0,0.0,0.0,0.0,0.0,0.0,0.0,0.0,0.0,0.0,0.0,0.0,0.0,0.0,0.0,0.0,0.0,0.0,0.0,0.0,0.0,0.0,0.0,0.0,0.0,0.0,1.0391,1.044,1.0426,1.0198,1.0235,1.0077,0.9557,0.974,0.9799,0.9658,0.9604,0.9513,0.9388,0.886,0.8594,0.8589,0.8229,0.7968,0.7973,0.7854,0.7642,0.7492,0.743,0.7118,0.6649,0.6634,0.6367,0.5865,0.5621,0.5368,0.4946,0.4701,0.4448,0.4261,0.4314,0.4394,0.4316,0.3927,0.3456,0.2992,0.0,0.0,0.0,0.0,0.0,0.0,0.0,0.0,0.0,0.0,0.6907,0.7564,0.8117,0.89,0.9677,1.0508,1.0903,1.1336,1.1836,0.0,0.0,0.0,0.0,0.0,1.5607,1.6399,1.7247,1.8165,1.8887,1.9751,2.0753,2.0921,2.1163,2.1493,2.1493,2.1493,2.1437,2.1562,2.0832,1.945,1.8573,1.7314,1.5849,0.0,0.0,0.0,0.0,0.0,0.0,0.0,0.0,0.0,0.0,0.0,0.0,0.0,0.0,0.0,0.0,0.0,0.0,0.0,0.0,0.0,0.0,0.0,0.0,0.0,0.0,0.0,0.0,0.0,0.0,0.0,0.9764,0.9898,1.0152,1.0076,0.9973,0.9903,0.9865,0.9567,0.9017,0.9307,0.9348,0.9086,0.8911,0.8863,0.885,0.8375,0.8093,0.7938,0.7908,0.7715,0.7415,0.7274,0.7123,0.6893,0.6722,0.6466,0.6141,0.5936,0.5702,0.5196,0.4949,0.4699,0.4446,0.403,0.3779,0.3606,0.356,0.3626,0.3544,0.297,0.264,0.2312,0.0,0.0,0.0,0.0,0.0,0.0,0.0,0.0,0.0,0.0,0.7099,0.7783,0.8487,0.9152,0.9886,1.0726,1.1116,1.1581,1.2172,0.0,0.0,0.0,0.0,1.562,1.6277,1.723,1.8052,1.8834,1.9586,2.0394,2.1259,2.1362,2.1659,2.2023,2.2023,2.2023,2.2035,2.2241,2.1945,2.1188,1.9949,1.8502,1.6989,1.6143,1.549,1.4854,1.3712,1.3057,1.2645,1.1562,0.0,0.0,0.0,0.0,0.0,0.0,0.0,0.0,0.0,0.0,0.0,0.0,0.0,0.0,0.0,0.0,0.0,0.0,0.0,0.0,0.0,0.0,0.0,0.0,0.9513,0.9638,0.9875,0.9819,0.9711,0.9413,0.942,0.9273,0.8768,0.877,0.8822,0.8798,0.8355,0.825,0.8417,0.7943,0.7555,0.7397,0.7342,0.7203,0.6894,0.6729,0.6563,0.6325,0.6216,0.5945,0.5526,0.5408,0.5087,0.4656,0.4398,0.4142,0.3796,0.3454,0.3197,0.3106,0.0,0.0,0.0,0.0,0.1597,0.1346,0.0,0.0,0.0,0.0,0.0,0.0,0.0,0.0,0.0,0.0,0.0,0.7951,0.8626,0.9292,0.991,1.058,1.118,1.1822,0.0,0.0,0.0,1.4376,1.5469,1.6299,1.6859,1.8036,1.8942,1.9409,2.0189,2.0947,2.1655,2.1822,2.2138,2.269,2.269,2.2763,2.2763,2.278,2.2702,2.2471,2.09,1.936,1.796,1.7572,1.6991,1.6227,1.5078,1.4374,1.3841,1.2832,0.0,0.0,0.0,0.0,0.0,0.0,0.0,0.0,0.0,0.0,0.0,0.0,0.0,0.0,0.0,0.0,0.0,0.0,0.0,0.0,0.0,0.0,0.0,0.0,0.924,0.9282,0.9413,0.9562,0.9408,0.8906,0.9049,0.8996,0.8565,0.8334,0.8251,0.8529,0.789,0.7605,0.794,0.7431,0.0,0.0,0.0,0.6498,0.6334,0.6229,0.605,0.5805,0.5763,0.5478,0.5048,0.4879,0.4654,0.4119,0.3939,0.3492,0.3138,0.2957,0.2781,0.2594,0.2496,0.2373,0.2202,0.1101,0.0508,0.017,0.0,0.0,0.0,0.0,0.0,0.0,0.0,0.0,0.0,0.627,0.7013,0.7654,0.8041,0.8835,0.9609,1.0182,1.0801,1.1633,0.0,0.0,1.4073,1.4842,1.553,1.633,1.7181,1.8092,1.893,1.9622,2.0321,2.1138,2.2103,2.2091,2.2335,2.269,2.269,2.269,2.2751,2.275,2.2285,2.1643,2.1271,2.0351,1.8971,1.8061,1.7376,1.68,1.6104,1.5279,1.4467,1.3856,1.3093,1.2318,1.1737,0.0,0.0,0.0,0.0,0.0,0.0,0.0,0.0,0.0,0.0,0.0,0.0,0.0,0.0,0.0,0.0,0.0,0.0,0.0,0.0,0.9181,0.8967,0.8827,0.8578,0.8549,0.8727,0.8981,0.8735,0.846,0.8289,0.7992,0.7681,0.7421,0.7346,0.7218,0.7169,0.6917,0.6593,0.6275,0.6087,0.5995,0.575,0.545,0.5336,0.5253,0.5022,0.0,0.445,0.4198,0.3849,0.3405,0.3226,0.2959,0.2603,0.2512,0.1884,0.0986,0.1244,0.0974,0.0443,0.0266,-0.0177,-0.0798,0.0,0.0,0.0,0.0,0.0,0.0,0.0,0.0,0.0,0.0,0.688,0.748,0.7886,0.8587,0.9234,0.9802,1.0624,0.0,0.0,1.3375,1.4083,1.4566,1.5605,1.6406,1.7043,1.8082,1.898,1.9701,2.0534,2.1304,2.1949,2.1949,2.2011,2.2197,2.2209,2.2271,2.2271,2.2271,2.1918,2.1436,2.1114,2.0441,1.9436,1.8646,1.8032,1.7424,1.6666,1.5959,1.5286,1.4426,1.3662,1.2936,1.209,1.1614,1.1222,0.0,0.0,0.0,0.0,0.0,0.0,0.0,0.0,0.0,0.0,0.0,0.0,0.0,0.0,0.9461,0.9178,0.0,0.9128,0.8861,0.8714,0.8506,0.8317,0.801,0.7965,0.8326,0.8166,0.7989,0.8029,0.7694,0.7266,0.6961,0.6817,0.6677,0.6356,0.6183,0.5937,0.5522,0.5477,0.5371,0.5034,0.4971,0.4759,0.4493,0.4366,0.4121,0.3762,0.3492,0.3226,0.2872,0.2721,0.2461,0.219,0.1474,0.074,0.0185,-0.037,-0.0548,-0.0538,-0.0807,-0.1256,-0.1705,0.0,0.0,0.0,0.0,0.0,0.0,0.0,0.0,0.0,0.0,0.6654,0.716,0.7765,0.8244,0.879,0.0,0.0,0.0,0.0,1.3072,1.3849,1.415,1.5462,1.6337,1.6705,1.7932,1.8888,1.9524,2.0499,2.1129,2.1572,2.1561,2.1624,2.1635,2.1722,2.1796,2.1722,2.1722,2.1561,2.1353,2.0823,2.0171,1.949,1.8964,1.8374,1.7754,1.6863,1.6277,1.5762,1.4811,1.3992,1.3287,1.2397,1.1854,1.1384,1.06,1.0249,0.0,0.0,0.0,0.0,0.0,0.0,0.0,0.0,0.0,0.9424,0.9157,0.9309,0.9399,0.9063,0.8926,0.8786,0.8583,0.8351,0.8137,0.8113,0.7667,0.7375,0.7498,0.7538,0.7599,0.7808,0.7335,0.6883,0.6595,0.6321,0.6083,0.5705,0.5587,0.532,0.4895,0.4915,0.4797,0.4365,0.4442,0.421,0.376,0.3671,0.3405,0.305,0.288,0.2617,0.2351,0.2031,0.1769,0.1398,0.0189,-0.0381,-0.0572,-0.1717,-0.187,-0.1453,-0.1907,-0.2271,-0.2543,0.0,0.0,0.0,0.0,0.0,0.0,0.0,0.0,0.0,0.0,0.0,0.0,0.0,0.0,0.0,0.0,0.0,0.0,1.1158,1.2126,1.3051,1.397,1.4929,1.5716,1.6431,1.755,1.8309,1.8808,1.9655,2.0398,2.0967,2.1158,2.1348,2.1463,2.1624,2.1624,2.1463,2.1463,2.1273,2.0955,2.0707,1.9997,1.9048,1.849,1.7798,1.7112,1.6856,1.6113,1.53,1.5144,1.4218,1.3067,1.2716,1.2186,1.1487,1.0601,0.0,1.013,0.9485,0.9082,0.8924,0.9223,0.92,0.9198,0.0,0.0,0.9487,0.9176,0.9144,0.9076,0.8743,0.8505,0.8348,0.8368,0.801,0.7702,0.7535,0.7368,0.7114,0.6795,0.6896,0.7131,0.7532,0.6872,0.6312,0.6118,0.5743,0.5563,0.5341,0.5206,0.5009,0.4581,0.4412,0.4283,0.4013,0.358,0.3317,0.3315,0.2871,0.2603,0.2604,0.2471,0.2306,0.1939,0.0659,0.019,0.0095,-0.0667,-0.1335,-0.1908,-0.2386,-0.2663,-0.284,-0.2649,-0.2745,-0.3029,0.0,0.0,0.0,0.0,0.0,0.0,0.0,0.0,0.0,0.0,0.0,0.0,0.0,0.0,0.0,0.0,0.0,0.0,1.0629,1.1608,1.2422,1.3122,1.425,1.5153,1.5614,1.6827,1.7653,1.8035,1.9098,1.982,2.0232,2.0715,2.0978,2.1053,2.114,2.1129,2.1042,2.0741,2.0613,2.0582,2.0194,1.9349,1.8373,1.7811,1.6939,1.5979,1.6056,1.5696,0.0,0.0,1.3914,1.3113,1.2343,1.1835,1.1378,1.0545,1.024,0.0,0.9455,0.9358,0.9438,0.9365,0.9421,0.9515,0.9489,0.9372,0.9285,0.9153,0.8969,0.8749,0.8433,0.8205,0.8032,0.774,0.7491,0.7309,0.6952,0.6817,0.6543,0.6235,0.608,0.6183,0.6718,0.6179,0.5695,0.5339,0.5314,0.5081,0.4614,0.4626,0.4418,0.398,0.3746,0.3583,0.3314,0.2959,0.2691,0.2602,0.2454,0.2285,0.2196,0.2147,0.1611,0.0671,0.0097,-0.0586,-0.1381,-0.1579,-0.2072,-0.2563,-0.286,-0.3154,-0.3339,-0.3074,-0.3239,-0.3621,0.0,0.0,0.0,0.0,0.0,0.0,0.0,0.0,0.0,0.0,0.0,0.0,0.0,0.0,0.0,0.0,0.0,0.0,0.0,1.0956,1.1766,1.2341,1.3493,0.0,1.4943,1.6026,1.6894,1.744,1.8373,1.8967,1.9284,1.9824,2.0206,2.0351,2.0415,2.0493,2.0551,2.0161,2.0019,1.9868,1.9413,1.8521,1.7502,1.6938,1.5923,1.4932,1.5235,1.5118,0.0,0.0,1.3438,1.29,1.1925,1.1418,1.1046,1.037,1.0083,0.9835,0.9596,0.9679,0.9743,0.9464,0.9455,0.9512,0.9362,0.9151,0.8926,0.8939,0.8686,0.8365,0.8076,0.7893,0.765,0.716,0.7089,0.6943,0.6539,0.6263,0.6022,0.5705,0.5321,0.5257,0.5686,0.5459,0.5135,0.4702,0.4765,0.4606,0.411,0.4086,0.3853,0.3406,0.3227,0.2957,0.2689,0.2423,0.2251,0.2083,0.2022,0.195,0.1775,0.1525,0.068,-0.0495,-0.0594,-0.1297,-0.2224,-0.2426,-0.2625,-0.2927,-0.333,-0.363,-0.3917,-0.3617,-0.3776,-0.4261,0.0,0.0,0.0,0.0,0.0,0.0,0.0,0.0,0.0,0.0,0.0,0.0,0.0,0.0,0.0,0.0,0.0,0.0,0.0,1.001,1.0963,1.2053,1.2638,1.3449,1.4588,1.5083,1.591,1.7144,1.7294,1.7656,1.8272,1.8466,1.8787,1.923,1.9397,1.9606,1.9944,1.9933,1.9469,1.8712,1.8392,1.7531,1.6377,1.5718,1.4888,1.4094,1.4588,0.0,0.0,0.0,1.2948,1.2188,1.1878,1.1195,0.0,1.0042,0.9824,0.9729,0.9788,0.9704,0.9601,0.9434,0.9136,0.8971,0.9053,0.8874,0.8584,0.8516,0.8242,0.7912,0.7587,0.7359,0.7147,0.6911,0.6734,0.6536,0.6311,0.5938,0.5467,0.5082,0.4854,0.4585,0.4281,0.4622,0.4712,0.4314,0.4159,0.4025,0.3931,0.3762,0.3406,0.2957,0.2956,0.2689,0.2243,0.1974,0.1813,0.1942,0.1573,0.1496,0.143,0.0389,-0.0595,-0.1615,-0.1919,-0.2122,-0.2224,-0.2929,-0.313,-0.323,-0.3732,-0.4334,-0.4734,-0.4728,-0.4726,-0.4826,0.0,0.0,0.0,0.0,0.0,0.0,0.0,0.0,0.0,0.0,0.0,0.0,0.0,0.0,0.0,0.0,0.0,0.0,0.0,0.9463,1.0287,1.0922,1.197,1.2739,1.3334,1.4165,1.4924,1.5558,1.6263,1.6877,1.7504,1.7941,1.8182,1.8122,1.8443,1.8467,1.8176,1.8386,1.8207,1.7748,1.7243,1.651,1.5567,1.4951,1.4083,1.3191,0.0,0.0,0.0,0.0,0.0,1.1836,1.1316,1.0924,1.0596,0.9923,0.9583,0.9495,0.9421,0.9472,0.9547,0.924,0.9248,0.9214,0.8937,0.8706,0.8478,0.8231,0.7792,0.7372,0.7176,0.6802,0.6556,0.6368,0.6074,0.5803,0.5467,0.5162,0.4854,0.4465,0.4291,0.4129,0.3894,0.407,0.4206,0.3986,0.3871,0.3646,0.3223,0.3136,0.2959,0.2422,0.2242,0.2077,0.2016,0.1649,0.1573,0.1606,0.0765,0.0486,0.0496,-0.02,-0.1105,-0.2022,-0.2123,-0.2324,-0.2625,-0.3029,-0.343,-0.3833,-0.4334,-0.4736,-0.5138,-0.5438,-0.5739,-0.5934,0.0,0.0,0.0,0.0,0.0,0.0,0.0,0.0,0.0,0.0,0.0,0.0,0.0,0.0,0.0,0.0,0.0,0.0,0.0,0.0,0.9676,1.0213,1.1206,1.2004,1.255,1.3299,1.397,1.4561,1.5179,1.5822,1.6492,1.6829,1.7108,1.7225,1.7367,1.7399,1.7297,1.743,1.7245,1.6723,1.6235,1.548,1.4558,1.3932,1.3087,0.0,0.0,0.0,0.0,0.0,1.156,1.1274,1.0759,1.0499,1.0254,0.9768,0.9538,0.9445,0.9433,0.9463,0.9525,0.9208,0.915,0.9081,0.877,0.8382,0.8052,0.7792,0.7269,0.6845,0.6566,0.6293,0.605,0.5785,0.5506,0.5234,0.4849,0.454,0.4231,0.3919,0.3764,0.3527,0.3355,0.3472,0.3521,0.3508,0.338,0.3138,0.2689,0.269,0.243,0.2087,0.1905,0.1833,0.1777,0.131,0.104,0.0867,-0.0197,-0.0599,-0.0606,-0.0909,-0.1516,-0.2224,-0.2223,-0.2524,-0.2927,-0.333,-0.3831,-0.4334,-0.4736,-0.5138,-0.5541,-0.5939,-0.6339,-0.6539,0.0,0.0,0.0,0.0,0.0,0.0,0.0,0.0,0.0,0.0,0.0,0.0,0.0,0.0,0.0,0.0,0.0,0.0,0.0,0.0,0.0,0.9907,1.0421,1.1149,1.2218,1.2495,1.3133,1.4121,1.4121,1.4508,1.5245,1.5204,1.5659,1.6497,1.6128,1.6377,1.7143,1.6904,1.64,1.5715,1.5228,1.4389,1.333,1.2671,0.0,0.0,0.0,0.0,0.0,0.0,0.0,1.0478,1.0301,0.9931,0.9598,0.9598,0.9598,0.9593,0.973,0.9664,0.9454,0.9274,0.8894,0.8517,0.8452,0.7922,0.7396,0.7204,0.6745,0.6288,0.0,0.0,0.5587,0.5234,0.5003,0.4771,0.4384,0.3995,0.3684,0.3448,0.3289,0.3041,0.2603,0.2664,0.2722,0.2864,0.2868,0.2689,0.2243,0.2156,0.2087,0.1757,0.1853,0.1779,0.1528,0.0861,0.029,-0.0197,-0.1102,-0.1617,-0.1617,-0.1617,-0.1819,-0.2224,-0.2423,-0.2725,-0.323,-0.3831,-0.4334,-0.4834,-0.514,-0.5541,-0.6042,-0.6337,-0.6639,-0.6842,0.0,0.0,0.0,0.0,0.0,0.0,0.0,0.0,0.0,0.0,0.0,0.0,0.0,0.0,0.0,0.0,0.0,0.0,0.0,0.0,0.0,0.0,0.0,0.0,0.0,0.0,0.0,0.0,0.0,1.3844,1.4478,1.4586,1.4794,1.5113,1.5029,1.4989,1.4972,1.4814,1.4391,1.3774,0.0,1.2774,1.1995,0.0,0.0,0.0,0.0,0.0,0.0,0.0,0.0,0.0,0.9863,0.9742,0.9554,0.9693,0.9636,0.9521,0.9454,0.9402,0.9268,0.8829,0.8576,0.8382,0.7857,0.7526,0.7138,0.6679,0.6148,0.5719,0.5504,0.5185,0.4823,0.4543,0.4296,0.0,0.368,0.345,0.0,0.2823,0.0,0.2843,0.2185,0.209,0.214,0.2062,0.2242,0.2242,0.1885,0.1912,0.1841,0.148,0.1597,0.1529,0.1462,-0.0198,-0.1098,-0.1204,-0.1512,-0.1617,-0.1617,-0.1819,-0.202,-0.2423,-0.2826,-0.323,-0.3534,-0.4334,-0.4634,-0.4834,-0.5541,-0.6039,-0.6337,-0.6642,-0.7045,-0.7347,0.0,0.0,0.0,0.0,0.0,0.0,0.0,0.0,0.0,0.0,0.0,0.0,0.0,0.0,0.0,0.0,0.0,0.0,0.0,0.0,0.0,0.0,0.0,0.0,0.0,0.0,0.0,0.0,0.0,0.0,0.0,1.3688,1.3906,1.4198,1.4231,1.4155,1.4107,0.0,0.0,0.0,0.0,0.0,0.0,0.0,0.0,0.0,0.0,0.0,0.0,0.0,0.0,0.8769,0.9164,0.9241,0.919,0.9372,0.9344,0.928,0.921,0.9151,0.8958,0.8576,0.8317,0.7992,0.7461,0.7068,0.6679,0.6148,0.5683,0.5246,0.4928,0.4563,0.4183,0.0,0.0,0.0,0.3052,0.2824,0.2589,0.0,0.2455,0.0,0.1934,0.1925,0.1794,0.1615,0.1885,0.1982,0.1636,0.1656,0.1493,0.114,0.1345,0.0975,0.0099,-0.1005,-0.1617,-0.1617,-0.1617,-0.1617,-0.1819,-0.1921,-0.2323,-0.2725,-0.3029,-0.3533,-0.4038,-0.4535,-0.4935,-0.5236,-0.5937,-0.6339,-0.6639,-0.7045,-0.7344,-0.7646,0.0,0.0,0.0,0.0,0.0,0.0,0.0,0.0,0.0,0.0,0.5936,0.0,0.0,0.0,0.0,0.0,0.0,0.0,0.0,0.0,0.0,0.0,0.0,0.0,0.0,0.0,0.0,0.0,0.0,0.0,0.0,0.0,0.0,0.0,0.0,0.0,0.0,0.0,0.0,0.0,0.0,0.0,0.0,0.0,0.0,0.0,0.0,0.0,0.0,0.0,0.7328,0.8032,0.8465,0.8628,0.8697,0.8908,0.8994,0.9017,0.8952,0.8829,0.8705,0.8447,0.7992,0.7596,0.7204,0.6679,0.6152,0.5617,0.5219,0.4824,0.4298,0.3983,0.367,0.3338,0.0,0.2748,0.2503,0.2275,0.2119,0.1886,0.1965,0.1934,0.1682,0.175,0.1705,0.1345,0.1619,0.1726,0.1294,0.1392,0.1136,0.0394,0.0788,0.0199,-0.1515,-0.1516,-0.1617,-0.1617,-0.1617,-0.1819,-0.2022,-0.2122,-0.2526,-0.323,-0.323,-0.3734,-0.4437,-0.4734,-0.5236,-0.5737,-0.6237,-0.6639,-0.6945,-0.7444,-0.7646,-0.7646,0.0,0.0,0.0,0.0,0.0,0.0,0.0,0.0,0.0,0.0,0.6114,0.5967,0.0,0.0,0.0,0.0,0.0,0.0,0.0,0.0,0.0,0.0,0.0,0.0,0.0,0.0,0.0,0.0,0.0,0.0,0.0,0.0,0.0,0.0,0.0,0.0,0.0,0.0,0.0,0.0,0.0,0.0,0.0,0.0,0.0,0.0,0.0,0.0,0.0,0.0,0.6636,0.726,0.7785,0.8116,0.8348,0.864,0.8862,0.8952,0.8641,0.8576,0.8382,0.7852,0.7591,0.733,0.6679,0.6222,0.0,0.0,0.4625,0.4092,0.3689,0.3295,0.2896,0.2542,0.2383,0.2289,0.2035,0.2043,0.2044,0.0,0.2132,0.2106,0.1432,0.1401,0.1345,0.0897,0.1276,0.1291,0.0833,0.1222,0.058,-0.1105,-0.1106,-0.1007,-0.0909,-0.1415,-0.1617,-0.1617,-0.1819,-0.1921,-0.2022,-0.2424,-0.2826,-0.323,-0.3632,-0.4234,-0.4734,-0.5233,-0.5636,-0.5939,-0.6542,-0.6942,-0.7138,-0.7444,-0.7743,-0.7942,0.0,0.0,0.0,0.0,0.0,0.0,0.0,0.649,0.6452,0.6452,0.6299,0.6176,0.6098,0.6005,0.5943,0.0,0.0,0.0,0.0,0.0,0.0,0.0,0.0,0.0,0.0,0.0,0.9367,0.9811,0.0,0.0,0.0,1.1026,1.1271,0.0,0.0,0.0,0.0,0.0,0.0,0.0,0.0,0.0,0.0,0.0,0.0,0.0,0.0,0.0,0.0,0.0,0.6128,0.6468,0.7077,0.7395,0.7628,0.7935,0.814,0.8265,0.8138,0.8099,0.7992,0.7591,0.726,0.6937,0.6284,0.0,0.0,0.4691,0.4092,0.3623,0.3155,0.2785,0.0,0.2174,0.1988,0.1805,0.1799,0.1729,0.1572,0.1178,0.1393,0.1348,0.1011,0.1226,0.1345,0.1076,0.0274,0.0186,0.1033,0.029,-0.0595,-0.1615,-0.1617,-0.1516,-0.1212,-0.1516,-0.1718,-0.1819,-0.1921,-0.2122,-0.2424,-0.2826,-0.3229,-0.3632,-0.4133,-0.4636,-0.5037,-0.5539,-0.5939,-0.6239,-0.6839,-0.7141,-0.7444,-0.7743,-0.7942,-0.8233,0.0,0.0,0.0,0.0,0.0,0.0,0.0,0.6551,0.6521,0.6521,0.6452,0.636,0.6261,0.6129,0.6029,0.0,0.0,0.0,0.0,0.0,0.0,0.0,0.0,0.0,0.0,0.0,0.0,0.8933,0.9406,0.0,0.0,0.0,0.0,0.0,1.0994,1.1113,0.0,0.0,0.0,0.0,0.0,0.0,0.0,0.0,0.0,0.0,0.0,0.0,0.0,0.0,0.5597,0.5762,0.6295,0.6662,0.6912,0.714,0.735,0.7536,0.7524,0.7531,0.7474,0.7316,0.6872,0.6412,0.5822,0.5289,0.0,0.4025,0.3556,0.3153,0.2686,0.2285,0.1983,0.0,0.1671,0.1407,0.1472,0.1331,0.1178,0.0786,0.0573,0.0,0.0168,0.0525,0.0807,0.0807,-0.0735,-0.0846,0.0863,-0.0595,-0.1516,-0.1617,-0.1617,-0.1617,-0.1617,-0.1617,-0.1819,-0.2022,-0.2123,-0.2424,-0.2927,-0.313,-0.3531,-0.4135,-0.4634,-0.4935,-0.5338,-0.5842,-0.6239,-0.6537,-0.7039,-0.7441,-0.7646,-0.7942,-0.8237,-0.8432,0.0,0.0,0.0,0.0,0.0,0.0,0.0,0.6673,0.6595,0.6595,0.6474,0.6382,0.639,0.6253,0.6176,0.0,0.0,0.0,0.0,0.0,0.0,0.0,0.0,0.0,0.0,0.0,0.0,0.8005,0.8606,0.0,0.0,0.0,0.0,0.0,0.0,1.0374,1.0643,0.0,0.0,0.0,0.0,0.0,0.0,0.0,0.0,0.0,0.0,0.0,0.0,0.0,0.0,0.5183,0.5254,0.5815,0.6473,0.6616,0.0,0.0,0.6968,0.6912,0.6722,0.6572,0.6218,0.5822,0.5286,0.0,0.422,0.3687,0.3019,0.2417,0.2287,0.1817,0.1495,0.154,0.0,0.1104,0.0757,0.1084,0.1257,0.1257,0.0,0.0,-0.1095,-0.1138,-0.1166,-0.1166,-0.1396,-0.1343,-0.0587,-0.0799,-0.1111,-0.1617,-0.1617,-0.1617,-0.1617,-0.1819,-0.2022,-0.2022,-0.2524,-0.2928,-0.313,-0.3433,-0.3836,-0.4338,-0.4636,-0.5135,-0.5636,-0.6137,-0.6539,-0.6842,-0.7344,-0.7547,-0.7643,-0.8137,-0.8333,-0.8432,0.0,0.0,0.0,0.0,0.0,0.0,0.6811,0.6742,0.6703,0.6703,0.6582,0.6452,0.6452,0.6345,0.6261,0.6261,0.0,0.0,0.0,0.0,0.0,0.0,0.0,0.0,0.0,0.0,0.7602,0.785,0.812,0.0,0.0,0.0,0.0,0.0,0.0,0.9639,0.9731,0.0,0.0,0.0,0.0,0.0,0.0,0.0,0.0,0.0,0.0,0.0,0.4716,0.0,0.0,0.0,0.487,0.514,0.0,0.0,0.5975,0.6204,0.616,0.6082,0.596,0.5954,0.5546,0.5049,0.4668,0.0,0.362,0.2952,0.2552,0.2151,0.1817,0.1547,0.1289,0.0976,0.0,0.0,0.1056,0.0696,0.0316,-0.024,-0.0661,-0.0847,-0.0944,-0.097,-0.1088,-0.1487,-0.1607,-0.1547,-0.1297,-0.1308,-0.1415,-0.1617,-0.1718,-0.1819,-0.1819,-0.2121,-0.2322,-0.2524,-0.2826,-0.323,-0.3433,-0.3836,-0.4236,-0.4636,-0.5135,-0.5634,-0.6137,-0.6439,-0.6942,-0.7347,-0.7547,-0.7842,-0.8137,-0.8333,-0.863,-0.8935,0.0,0.0,0.0,0.0,0.0,0.6811,0.6811,0.6781,0.6742,0.6742,0.6582,0.646,0.646,0.6368,0.6315,0.6315,0.6315,0.0,0.0,0.0,0.0,0.0,0.0,0.0,0.0,0.0,0.7178,0.7348,0.7603,0.7835,0.0,0.0,0.8523,0.8602,0.0,0.0,0.0,0.0,0.0,0.0,0.0,0.0,0.0,0.0,0.0,0.0,0.0,0.0,0.0,0.0,0.0,0.0,0.0,0.0,0.0,0.0,0.5266,0.5376,0.5427,0.5291,0.5235,0.5337,0.4876,0.4273,0.0,0.0,0.2983,0.2454,0.2139,0.1817,0.148,0.1345,0.1151,0.0,0.0,0.044,0.0523,0.0077,-0.0476,-0.1136,-0.1329,-0.1275,-0.0956,-0.0892,-0.1102,-0.1522,-0.163,-0.166,-0.1715,-0.1718,-0.1718,-0.1718,-0.1921,-0.2021,-0.2122,-0.2423,-0.2623,-0.2927,-0.323,-0.3534,-0.3836,-0.4338,-0.4636,-0.4937,-0.5436,-0.5937,-0.6437,-0.6739,-0.7144,-0.7646,-0.7743,-0.8038,-0.8432,-0.8535,-0.8832,-0.9236,0.0,0.0,0.0,0.0,0.0,0.0,0.6811,0.6703,0.6595,0.6595,0.6474,0.6413,0.6413,0.6337,0.6315,0.6315,0.6315,0.0,0.0,0.0,0.0,0.0,0.0,0.0,0.0,0.0,0.6323,0.6323,0.7062,0.7403,0.7412,0.8169,0.8498,0.8498,0.0,0.0,0.0,0.0,0.0,0.0,0.0,0.0,0.0,0.0,0.0,0.0,0.0,0.0,0.0,0.0,0.0,0.0,0.0,0.0,0.0,0.0,0.4691,0.4727,0.4707,0.4629,0.4487,0.4508,0.4177,0.3691,0.0,0.2778,0.2257,0.2128,0.1715,0.1412,0.1412,0.1212,0.1079,0.108,-0.0211,0.0,-0.124,-0.0914,-0.0713,0.0,-0.108,-0.136,-0.1391,-0.1446,-0.1493,-0.1523,-0.1554,-0.1684,-0.2019,-0.2022,-0.2022,-0.2022,-0.2022,-0.2122,-0.2422,-0.2623,-0.2927,-0.323,-0.3433,-0.3836,-0.4438,-0.4636,-0.4937,-0.524,-0.5741,-0.6139,-0.6437,-0.6936,-0.7341,-0.7646,-0.8137,-0.8432,-0.8432,-0.9034,-0.9236,-0.9236,0.0,0.0,0.0,0.0,0.0,0.0,0.0,0.6551,0.6521,0.6521,0.6452,0.6413,0.6413,0.6337,0.6315,0.6315,0.6315,0.0,0.0,0.0,0.0,0.0,0.0,0.0,0.0,0.0,0.6129,0.6315,0.6551,0.6765,0.6992,0.7239,0.7418,0.7625,0.7881,0.7999,0.0,0.0,0.0,0.0,0.0,0.0,0.0,0.0,0.0,0.0,0.0,0.0,0.0,0.0,0.0,0.0,0.0,0.0,0.0,0.0,0.0,0.0,0.4129,0.3972,0.3838,0.3725,0.3399,0.3002,0.2699,0.236,0.2014,0.1672,0.1496,0.1383,0.1208,0.0741,0.0136,-0.0414,-0.0713,0.0,0.0,0.0,0.0,-0.1161,-0.1291,-0.1412,-0.1421,-0.1457,-0.1587,-0.1715,-0.1846,-0.1981,-0.2219,-0.2322,-0.2322,-0.2322,-0.2423,-0.2624,-0.2623,-0.313,-0.3433,-0.3433,-0.3935,-0.4338,-0.4636,-0.4937,-0.5338,-0.5741,-0.6139,-0.6537,-0.6936,-0.7341,-0.7643,-0.7942,-0.8233,-0.8531,-0.8726,-0.9034,-0.9331,-0.9529,0.0,0.0,0.0,0.0,0.0,0.0,0.0,0.649,0.6452,0.6452,0.639,0.636,0.636,0.6337,0.6315,0.6315,0.6284,0.0,0.0,0.0,0.0,0.0,0.0,0.0,0.0,0.5888,0.6013,0.6183,0.6245,0.6437,0.669,0.6751,0.6902,0.7092,0.7346,0.7485,0.0,0.0,0.0,0.0,0.0,0.0,0.5857,0.0,0.0,0.0,0.0,0.0,0.0,0.0,0.0,0.0,0.0,0.0,0.0,0.0,0.3381,0.3627,0.0,0.3411,0.3319,0.3101,0.2772,0.0,0.0,0.1941,0.1675,0.1392,0.1294,0.1189,0.0739,0.0067,-0.0612,-0.1186,-0.1003,-0.0956,0.0,0.0,0.0,-0.1356,-0.1406,-0.144,-0.1542,-0.1665,-0.1794,-0.2022,-0.216,-0.2293,-0.252,-0.2522,-0.2623,-0.2826,-0.2927,-0.3027,-0.313,-0.3533,-0.3835,-0.3937,-0.4336,-0.4736,-0.4937,-0.5338,-0.5741,-0.6139,-0.6439,-0.6839,0.0,-0.7543,-0.7842,-0.8137,-0.8432,-0.873,-0.9031,-0.9232,-0.943,-0.9628,0.0,0.0,0.0,0.0,0.0,0.0,0.0,0.6421,0.6382,0.6382,0.6307,0.6284,0.6284,0.6284,0.6284,0.6284,0.0,0.0,0.0,0.0,0.0,0.0,0.0,0.0,0.0,0.585,0.5912,0.5998,0.6183,0.6337,0.6499,0.669,0.6803,0.6885,0.7035,0.7056,0.0,0.0,0.0,0.0,0.0,0.0,0.0,0.0,0.0,0.0,0.0,0.0,0.0,0.0,0.0,0.0,0.0,0.0,0.0,0.0,0.0,0.0,0.0,0.2956,0.2852,0.2689,0.2298,0.0,0.0,0.0,0.0,0.0,0.1165,0.0807,0.0067,-0.0608,-0.1091,-0.119,-0.1222,-0.1254,-0.1286,-0.1267,-0.1326,-0.1383,-0.1416,-0.1538,-0.1848,-0.1886,-0.2115,-0.2448,-0.2396,-0.2522,-0.2826,-0.2826,-0.313,-0.3536,-0.3433,-0.3432,-0.3635,-0.3934,-0.4135,-0.4438,-0.4736,-0.4937,-0.524,-0.5842,-0.6139,-0.6437,-0.6742,-0.7144,-0.7646,-0.7646,-0.7939,-0.8432,-0.8726,-0.9031,-0.9236,-0.9529,-0.9628,-0.9628,0.0,0.0,0.0,0.0,0.0,0.0,0.0,0.0,0.0,0.0,0.6083,0.606,0.606,0.606,0.606,0.0,0.0,0.0,0.0,0.0,0.0,0.0,0.0,0.0,0.0,0.5811,0.585,0.592,0.6029,0.6153,0.6345,0.6499,0.6651,0.6842,0.6924,0.0,0.0,0.0,0.0,0.0,0.0,0.0,0.0,0.0,0.0,0.0,0.4435,0.4209,0.0,0.0,0.0,0.0,0.0,0.0,0.0,0.0,0.2607,0.2519,0.2505,0.0,0.2633,0.2132,0.1909,0.174,0.0,0.0,0.0,0.0,0.0,0.0,0.0,-0.0959,-0.1121,-0.1223,-0.1181,-0.1212,-0.132,-0.138,-0.1435,-0.1733,-0.1771,-0.181,-0.2125,-0.2169,-0.2308,-0.2645,-0.2695,-0.2826,-0.313,-0.3331,-0.3433,-0.3636,-0.3935,-0.4034,-0.3934,-0.4135,-0.4437,-0.4736,-0.4937,-0.534,-0.5842,-0.6139,-0.6439,-0.6742,-0.7244,-0.7447,-0.7646,-0.8038,-0.8333,-0.8432,-0.8931,-0.9133,-0.9236,-0.9529,-0.9628,-0.9628,0.0,0.0,0.0,0.0,0.0,0.0,0.0,0.0,0.0,0.0,0.0,0.599,0.599,0.599,0.0,0.0,0.0,0.0,0.0,0.0,0.0,0.0,0.0,0.0,0.5811,0.5811,0.585,0.5888,0.5943,0.6067,0.6315,0.6368,0.6499,0.6651,0.6742,0.0,0.0,0.0,0.0,0.0,0.5703,0.0,0.0,0.0,0.0,0.0,0.4396,0.4202,0.0,0.3902,0.3568,0.317,0.0,0.0,0.0,0.0,0.2363,0.2276,0.2013,0.2105,0.2188,0.1909,0.1685,0.1465,0.0,0.0,0.0,0.0,0.0,0.0,0.0,0.0,0.0,-0.1161,-0.1192,-0.1232,-0.1451,-0.1589,-0.1723,-0.2024,-0.1977,-0.2111,-0.2434,-0.2484,-0.2631,-0.2978,-0.3111,-0.323,-0.3332,-0.3633,-0.3835,-0.3937,-0.4237,-0.4338,-0.4135,-0.4537,-0.4839,-0.5037,-0.534,-0.5741,-0.6239,-0.6439,-0.6842,-0.7144,-0.7447,-0.7746,-0.8038,-0.8233,-0.8531,-0.8832,-0.9133,-0.9232,-0.943,-0.9529,-0.9628,-0.9628,0.0,0.0,0.0,0.0,0.0,0.0,0.0,0.0,0.0,0.0,0.0,0.0,0.0,0.0,0.0,0.0,0.0,0.0,0.0,0.0,0.0,0.0,0.0,0.5811,0.5811,0.5811,0.5819,0.5888,0.5888,0.6005,0.6253,0.6284,0.6368,0.649,0.656,0.6551,0.0,0.0,0.0,0.5967,0.5547,0.0,0.0,0.0,0.0,0.0,0.0,0.0,0.0,0.3868,0.3568,0.317,0.3034,0.0,0.0,0.0,0.0,0.0,0.1715,0.1651,0.1685,0.1685,0.1465,0.1196,0.0,0.0,0.0,0.0,0.0,0.0,0.0,-0.1109,0.0,0.0,0.0,-0.1412,-0.1675,-0.1889,-0.2017,-0.2249,-0.229,-0.2428,-0.2769,-0.2817,-0.2966,-0.3226,-0.3433,-0.3636,-0.3635,-0.3934,-0.4135,-0.4438,-0.4438,-0.4539,-0.4539,-0.4939,-0.524,-0.534,-0.5842,-0.6239,-0.6437,-0.6742,-0.7144,-0.7646,-0.7646,-0.7939,-0.8432,-0.8531,-0.8832,-0.9236,-0.9236,-0.943,-0.9628,-0.9628,-0.9628,-0.9628,0.0,0.0,0.0,0.0,0.0,0.0,0.0,0.0,0.0,0.0,0.0,0.0,0.0,0.0,0.0,0.0,0.0,0.0,0.0,0.0,0.0,0.0,0.5811,0.5811,0.5811,0.5811,0.5811,0.5811,0.5881,0.592,0.5982,0.6191,0.6368,0.649,0.6452,0.6443,0.6413,0.6407,0.6238,0.5958,0.5554,0.0,0.0,0.0,0.0,0.0,0.0,0.0,0.0,0.3781,0.348,0.317,0.2954,0.0,0.0,0.0,0.0,0.0,0.1616,0.1384,0.1234,0.129,0.1261,0.1171,0.0,0.0,0.0,0.0,0.0,0.0,0.0,-0.1139,-0.117,0.0,-0.1487,-0.1721,-0.1804,-0.2081,-0.2382,-0.2478,-0.2496,-0.263,-0.3017,-0.3036,-0.3165,-0.353,-0.3536,-0.3736,-0.3934,-0.4237,-0.4338,-0.4438,-0.4839,-0.5041,-0.5041,-0.514,-0.5441,-0.5842,-0.6239,-0.6439,-0.6742,-0.7244,-0.7547,-0.7646,-0.8038,-0.8333,-0.8432,-0.8935,-0.9133,-0.9232,-0.943,-0.9529,-0.9628,-0.9628,-0.9628,-0.9628,0.0,0.0,0.0,0.0,0.0,0.0,0.0,0.0,0.0,0.0,0.0,0.0,0.0,0.0,0.0,0.0,0.0,0.0,0.0,0.0,0.0,0.5756,0.5756,0.5756,0.5811,0.5811,0.5811,0.5811,0.5819,0.585,0.5888,0.6067,0.6214,0.6337,0.6276,0.6268,0.6291,0.6122,0.6013,0.5872,0.0,0.0,0.0,0.0,0.0,0.0,0.0,0.0,0.0,0.0,0.3476,0.317,0.2865,0.0,0.0,0.0,0.0,0.0,0.1413,0.1277,0.1127,0.1033,0.0874,0.0769,0.0,0.0,0.0,0.0,0.0,0.0,0.0,0.0,-0.1206,-0.1254,-0.1557,-0.1869,-0.208,-0.2484,-0.272,-0.2769,-0.2831,-0.2887,-0.3037,-0.3269,-0.3401,-0.3633,-0.3836,-0.4036,-0.4236,-0.464,-0.4841,-0.4841,-0.5238,-0.5438,-0.5641,-0.5739,-0.5939,-0.6239,-0.6439,-0.6842,-0.7244,-0.7447,-0.7743,-0.8038,-0.8333,-0.8531,-0.8832,-0.9133,-0.9335,-0.943,-0.9529,-0.9628,-0.9628,-0.9628,-0.9628,-0.9628,0.0,0.0,0.0,0.0,0.0,0.0,0.0,0.0,0.0,0.0,0.0,0.0,0.0,0.0,0.0,0.0,0.0,0.0,0.0,0.0,0.5725,0.5669,0.5638,0.5669,0.5718,0.5718,0.5718,0.5718,0.5718,0.5787,0.5888,0.5936,0.6021,0.6145,0.6091,0.6091,0.6083,0.5874,0.5756,0.5715,0.0,0.0,0.0,0.0,0.0,0.0,0.0,0.0,0.0,0.0,0.0,0.0,0.0,0.0,0.0,0.186,0.1627,0.1466,0.1224,0.1178,0.1075,0.0935,0.0,0.0,0.0,0.0,0.0,0.0,0.0,0.0,0.0,-0.1191,0.0,-0.1395,-0.1701,-0.2006,-0.2291,-0.2722,-0.2973,-0.2997,-0.3083,-0.3146,-0.3258,-0.3404,-0.3635,-0.3736,-0.4137,-0.4438,-0.4537,-0.496,-0.5275,-0.5275,-0.5597,-0.5913,-0.6121,-0.642,-0.6595,-0.6537,-0.6842,-0.7244,-0.7646,-0.7646,-0.7939,-0.8432,-0.8432,-0.8733,-0.9236,-0.9275,-0.949,-0.9693,-0.9738,-0.9754,-0.9746,-0.9705,-0.9689,-0.9784,0.0,0.0,0.0,0.0,0.0,0.0,0.0,0.0,0.0,0.0,0.0,0.0,0.0,0.0,0.0,0.0,0.0,0.0,0.0,0.0,0.5522,0.5529,0.5522,0.5529,0.5522,0.5522,0.5522,0.5522,0.5522,0.5624,0.5811,0.5811,0.5874,0.6021,0.599,0.5936,0.5811,0.5811,0.5686,0.5498,0.5163,0.0,0.0,0.0,0.0,0.0,0.0,0.0,0.0,0.0,0.0,0.0,0.0,0.0,0.2125,0.1643,0.1418,0.1271,0.1157,0.1037,0.0905,0.0877,0.0904,0.0,0.0,-0.1054,0.0,-0.1043,0.0,0.0,0.0,-0.1255,-0.1398,-0.1718,-0.1821,-0.2027,-0.2477,-0.2863,-0.3,-0.3113,-0.3134,-0.3261,-0.3522,-0.3633,-0.3836,-0.4338,-0.4338,-0.4537,-0.4734,-0.5122,-0.5379,-0.5379,-0.5984,-0.6348,-0.6348,-0.6873,-0.697,-0.6742,-0.7244,-0.7547,-0.7646,-0.7842,-0.8137,-0.8432,-0.8627,-0.8928,-0.9248,-0.9702,-0.9868,-0.9884,-1.0054,-1.0123,-1.0103,-0.9929,-0.9864,-0.9969,0.0,0.0,0.0,0.0,0.0,0.0,0.0,0.0,0.0,0.0,0.0,0.0,0.0,0.0,0.0,0.0,0.0,0.0,0.0,0.0,0.5467,0.5442,0.5442,0.5404,0.5302,0.5428,0.5491,0.5491,0.5491,0.5522,0.5617,0.5617,0.5648,0.5679,0.5679,0.5648,0.5617,0.5585,0.5491,0.5372,0.5221,0.496,0.0,0.0,0.0,0.0,0.0,0.0,0.0,0.0,0.3442,0.299,0.2637,0.2375,0.2127,0.1742,0.142,0.122,0.116,0.1055,0.0875,0.0903,0.0,0.0,0.0,-0.1071,-0.1108,-0.1119,-0.1151,0.0,0.0,0.0,-0.1706,-0.1994,-0.2222,-0.2456,-0.2773,-0.2932,-0.3087,-0.3134,-0.3273,-0.3507,-0.3633,-0.3937,-0.4138,-0.4338,-0.4537,-0.476,-0.5124,-0.5469,-0.5723,-0.5996,-0.6458,-0.6693,-0.6901,-0.722,-0.7488,-0.7595,-0.7804,-0.8011,-0.8213,-0.8416,-0.8724,-0.8933,-0.924,-0.9548,-0.9863,-1.003,-1.0059,-1.0063,-1.0136,-1.016,-1.0152,-1.0083,-1.0059,-1.0158,0.0,0.0,0.0,0.0,0.0,0.0,0.0,0.0,0.0,0.0,0.0,0.0,0.0,0.0,0.0,0.0,0.0,0.0,0.0,0.5334,0.5309,0.5284,0.5284,0.5221,0.5144,0.5271,0.5334,0.5334,0.5334,0.5365,0.5358,0.5358,0.5397,0.5435,0.5435,0.5397,0.5358,0.5327,0.5264,0.5189,0.517,0.4908,0.0,0.0,0.0,0.0,0.0,0.0,0.0,0.0,0.3173,0.2768,0.2279,0.2059,0.1905,0.1578,0.1335,0.1122,0.0962,0.0791,0.0534,0.0,0.0,0.0,0.0,-0.1093,-0.1127,-0.1146,-0.1273,-0.1416,-0.1484,0.0,-0.2095,-0.2213,-0.2546,-0.2791,-0.3015,-0.3089,-0.3147,-0.3265,-0.3507,-0.3635,-0.3836,-0.4138,-0.4438,-0.4537,-0.4762,-0.5008,-0.5386,-0.5758,-0.6032,-0.6424,-0.6893,-0.713,-0.7341,-0.7666,-0.7987,-0.8198,-0.8308,-0.8365,-0.8482,-0.8793,-0.9007,-0.9328,-0.9642,-0.9955,-1.0164,-1.0225,-1.0282,-1.0331,-1.0331,-1.0331,-1.0322,-1.0266,-1.0249,-1.035,0.0,0.0,0.0,0.0,0.0,0.0,0.0,0.0,0.0,0.0,0.0,0.0,0.0,0.0,0.0,0.0,0.0,0.0,0.4992,0.4992,0.4992,0.4992,0.4992,0.4992,0.4992,0.4992,0.4992,0.4992,0.4992,0.5017,0.5099,0.5099,0.5176,0.5284,0.5284,0.5214,0.5106,0.5106,0.5049,0.4998,0.485,0.4818,0.4784,0.0,0.0,0.0,0.0,0.0,0.0,0.0,0.2904,0.2415,0.1964,0.0,0.1367,0.1134,0.1059,0.0923,0.0496,0.0172,0.0,0.0,0.0,0.0,-0.1108,-0.1121,-0.1139,-0.12,-0.1497,-0.1734,-0.181,-0.2086,-0.2382,-0.2577,-0.2872,-0.3007,-0.3124,-0.314,-0.3262,-0.3527,-0.3636,-0.3836,-0.4338,-0.4438,-0.4537,-0.4734,-0.492,-0.5076,-0.539,-0.5894,-0.6221,-0.6544,-0.7207,-0.7607,-0.7607,-0.8156,-0.8484,-0.8484,-0.8823,-0.8781,-0.8486,-0.8797,-0.901,-0.9335,-0.9646,-0.9959,-1.018,-1.0363,-1.0538,-1.0692,-1.0692,-1.0692,-1.0672,-1.0501,-1.0436,-1.0436,0.0,0.0,0.0,0.0,0.0,0.0,0.0,0.0,0.0,0.0,0.0,0.0,0.0,0.0,0.0,0.0,0.0,0.0,0.0,0.4922,0.4953,0.4992,0.4992,0.496,0.487,0.471,0.4736,0.4922,0.4922,0.4922,0.4902,0.5022,0.5107,0.5153,0.5344,0.5424,0.5382,0.5282,0.5216,0.5216,0.5108,0.5001,0.4868,0.0,0.0,0.0,0.0,0.0,0.0,0.0,0.0,0.0,0.2105,0.0,0.1418,0.1094,0.0976,0.0798,0.0285,-0.0357,0.0,-0.1076,0.0,0.0,0.0,-0.1153,0.0,0.0,-0.1736,-0.1969,-0.2515,-0.2675,-0.283,-0.2862,-0.3031,-0.31,-0.3135,-0.3276,-0.3512,-0.3633,-0.3937,-0.4237,-0.4338,-0.4537,-0.4736,-0.4834,-0.5127,-0.5417,-0.58,-0.6253,-0.658,-0.699,-0.7362,-0.7718,-0.7826,-0.8263,-0.8598,-0.8823,-0.8826,-0.8999,-0.9128,-0.945,-0.9667,-0.9996,-1.0321,-1.043,-1.0538,-1.0595,-1.0643,-1.0692,-1.0692,-1.0692,-1.0684,-1.0635,-1.0615,-1.0615,0.0,0.0,0.0,0.0,0.0,0.0,0.0,0.0,0.0,0.0,0.0,0.0,0.0,0.0,0.0,0.0,0.0,0.0,0.0,0.0,0.4768,0.4806,0.4806,0.4774,0.4684,0.4523,0.4563,0.4792,0.4859,0.4859,0.4765,0.4952,0.5031,0.5037,0.5185,0.5254,0.5254,0.5184,0.5147,0.5147,0.5034,0.492,0.4818,0.0,0.0,0.0,0.0,0.0,0.0,0.0,0.0,0.0,0.2152,0.0,0.0,0.1197,0.0984,0.0811,0.0463,-0.0241,0.0,-0.109,-0.1145,-0.1207,-0.1339,0.0,0.0,0.0,-0.2036,-0.2267,-0.2638,-0.2898,-0.2969,-0.2991,-0.3076,-0.3149,-0.3272,-0.3509,-0.3635,-0.3937,-0.4237,-0.4438,-0.4537,-0.4736,-0.4834,-0.4834,-0.5265,-0.5682,-0.5953,-0.6418,-0.6861,-0.7152,-0.7601,-0.7826,-0.8045,-0.8488,-0.8712,-0.894,-0.894,-0.9047,-0.9379,-0.9706,-1.0036,-1.0257,-1.0582,-1.0692,-1.0692,-1.0692,-1.0692,-1.0692,-1.0692,-1.0692,-1.0692,-1.0692,-1.0692,-1.0692,0.0,0.0,0.0,0.0,0.0,0.0,0.0,0.0,0.0,0.0,0.0,0.0,0.0,0.0,0.0,0.0,0.0,0.0,0.0,0.0,0.449,0.449,0.449,0.449,0.449,0.441,0.4465,0.4579,0.4754,0.4795,0.4706,0.4915,0.4953,0.4915,0.4936,0.4946,0.4946,0.4946,0.4946,0.4908,0.4798,0.4726,0.4708,0.4661,0.0,0.0,0.0,0.0,0.0,0.0,0.0,0.0,0.2072,0.167,0.1303,0.1303,0.1041,0.076,0.0814,0.0,0.0,-0.1029,-0.1149,0.0,-0.1551,-0.1766,-0.1973,-0.2267,0.0,-0.2545,-0.2511,-0.2837,-0.308,-0.3143,-0.3109,-0.3266,-0.3626,-0.3635,-0.3836,-0.4338,-0.4438,-0.4537,-0.4734,-0.4834,-0.4834,-0.4834,-0.532,-0.5748,-0.5955,-0.6481,-0.6935,-0.7154,-0.7709,-0.8045,-0.8045,-0.8602,-0.894,-0.894,-0.894,-0.9047,-0.9379,-0.9706,-1.0036,-1.0366,-1.0582,-1.0692,-1.0692,-1.0692,-1.0692,-1.0692,-1.0692,-1.0692,-1.0692,-1.0692,-1.0692,-1.0692,0.0,0.0,0.0,0.0,0.0,0.0,0.0,0.0,0.0,0.0,0.0,0.0,0.0,0.0,0.0,0.0,0.0,0.0,0.0,0.0,0.435,0.442,0.4382,0.435,0.435,0.434,0.4322,0.4373,0.4468,0.4557,0.4627,0.0,0.0,0.5004,0.0,0.5229,0.5229,0.5229,0.5229,0.5224,0.5139,0.5017,0.4942,0.4809,0.4561,0.0,0.0,0.0,0.0,0.0,0.0,0.0,0.1909,0.1546,0.1255,0.1198,0.081,0.045,0.018,-0.0184,0.0,0.0,-0.1253,-0.1549,-0.2065,-0.2218,-0.227,-0.2406,-0.2635,-0.2872,-0.2838,-0.2989,-0.3146,-0.3403,-0.347,-0.3618,-0.3831,-0.4137,-0.4237,-0.4338,-0.4535,-0.4736,-0.4834,-0.4834,-0.4834,-0.4834,-0.5525,-0.5958,-0.5955,-0.6699,-0.7154,-0.7154,-0.7709,-0.8045,-0.8045,-0.8602,-0.894,-0.894,-0.894,-0.9047,-0.9379,-0.9706,-1.0143,-1.0582,-1.0692,-1.0692,-1.0692,-1.0692,-1.0692,-1.0692,-1.0692,-1.0692,-1.0692,-1.0692,-1.0692,-1.0692,0.0,0.0,0.0,0.0,0.0,0.0,0.0,0.0,0.0,0.0,0.0,0.0,0.0,0.0,0.0,0.0,0.0,0.0,0.0,0.0,0.0,0.4221,0.4188,0.4156,0.4156,0.4147,0.4204,0.4311,0.4333,0.0,0.0,0.0,0.0,0.481,0.0,0.5032,0.5127,0.5127,0.5143,0.5236,0.5232,0.5093,0.4954,0.4853,0.4574,0.4249,0.4019,0.0,0.0,0.0,0.0,0.0,0.0,0.0,0.13,0.1166,0.0819,0.0284,-0.0425,0.0,0.0,-0.1236,0.0,-0.1742,-0.2277,-0.2418,-0.2632,-0.2805,-0.2872,-0.3015,-0.3138,-0.3222,-0.3394,-0.3622,-0.3788,-0.3935,-0.4135,-0.4338,-0.4438,-0.4537,-0.4736,-0.4834,-0.4834,-0.4834,-0.4834,-0.4937,-0.5583,-0.5984,-0.6091,-0.6674,-0.6986,-0.6986,-0.7531,-0.7855,-0.7855,-0.8464,-0.8828,-0.8828,-0.8903,-0.9158,-0.9596,-0.9926,-1.0257,-1.0692,-1.0692,-1.0692,-1.0692,-1.0692,-1.0692,-1.0692,-1.0692,-1.0692,-1.0692,-1.0692,-1.0802,-1.0907,0.0,0.0,0.0,0.0,0.0,0.0,0.0,0.0,0.0,0.0,0.0,0.0,0.0,0.0,0.0,0.0,0.0,0.0,0.0,0.0,0.0,0.0,0.3993,0.4009,0.4049,0.4023,0.4122,0.4336,0.0,0.0,0.0,0.0,0.0,0.4622,0.0,0.469,0.4871,0.4871,0.4966,0.5112,0.5067,0.4964,0.4808,0.4709,0.4508,0.4214,0.3969,0.367,0.3321,0.2873,0.0,0.0,0.0,0.0,0.1226,0.1181,0.0771,0.0172,-0.073,0.0,-0.1166,-0.1497,-0.171,0.0,-0.2319,-0.2608,-0.2811,-0.3109,-0.3099,-0.3147,-0.3438,-0.3545,-0.3633,-0.3937,-0.3992,-0.4135,-0.4437,-0.4437,-0.4537,-0.4734,-0.4834,-0.4834,-0.4834,-0.4834,-0.4937,-0.514,-0.5637,-0.6004,-0.6213,-0.6634,-0.6801,-0.6801,-0.7331,-0.7648,-0.7648,-0.8291,-0.8682,-0.8713,-0.8866,-0.9158,-0.9706,-1.0036,-1.0363,-1.0692,-1.0692,-1.0692,-1.0692,-1.0692,-1.0692,-1.0692,-1.0692,-1.0692,-1.0692,-1.0802,-1.0911,-1.1126,0.0,0.0,0.0,0.0,0.0,0.0,0.0,0.0,0.0,0.0,0.0,0.0,0.0,0.0,0.0,0.0,0.0,0.0,0.0,0.0,0.0,0.3993,0.3956,0.398,0.4177,0.4168,0.4263,0.4473,0.0,0.0,0.0,0.0,0.0,0.4684,0.0,0.0,0.4718,0.4718,0.473,0.4755,0.466,0.4565,0.4515,0.437,0.4172,0.3969,0.3621,0.3371,0.3168,0.2618,0.2265,0.0,0.0,0.0,0.1018,0.0939,0.0685,0.0236,0.0,0.0,-0.1183,0.0,-0.1785,-0.1931,0.0,0.0,-0.2983,-0.32,-0.3281,-0.3441,-0.3693,-0.3769,-0.3942,-0.431,-0.4331,-0.4437,-0.4736,-0.4734,-0.4734,-0.4834,-0.4834,-0.4834,-0.4834,-0.5037,-0.514,-0.524,-0.5741,-0.6213,-0.6213,-0.6634,-0.6801,-0.6801,-0.7331,-0.7648,-0.7648,-0.8187,-0.8577,-0.8713,-0.8866,-0.9047,-0.9489,-0.9706,-1.0143,-1.0692,-1.0692,-1.0692,-1.0692,-1.0692,-1.0692,-1.0692,-1.0692,-1.0692,-1.0692,-1.0907,-1.1017,-1.1126,0.0,0.0,0.0,0.0,0.0,0.0,0.0,0.0,0.0,0.0,0.0,0.0,0.0,0.0,0.0,0.0,0.0,0.0,0.0,0.0,0.0,0.3836,0.3909,0.3985,0.4014,0.4175,0.4253,0.0,0.0,0.0,0.0,0.4244,0.4287,0.0,0.0,0.0,0.0,0.4547,0.4603,0.4688,0.453,0.4428,0.4326,0.4168,0.3956,0.3744,0.3369,0.3101,0.2837,0.2408,0.2088,0.1827,0.1474,0.0,0.0,0.0,0.0804,0.0,-0.0563,-0.1011,-0.1294,0.0,-0.1804,-0.2043,-0.2576,-0.2862,-0.3068,-0.3377,-0.3679,-0.3865,-0.3994,-0.4101,-0.4294,-0.4529,-0.4636,-0.4636,-0.4734,-0.4834,-0.4834,-0.5037,-0.5037,-0.5037,-0.5236,-0.5336,-0.5438,-0.5641,-0.5886,-0.6118,-0.6318,-0.6465,-0.6597,-0.6805,-0.7214,-0.7418,-0.7629,-0.8117,-0.8479,-0.8713,-0.8866,-0.9047,-0.9379,-0.9706,-1.0036,-1.0472,-1.0582,-1.0692,-1.0692,-1.0692,-1.0692,-1.0692,-1.0692,-1.0802,-1.0911,-1.1017,-1.1345,-1.1673,0.0,0.0,0.0,0.0,0.0,0.0,0.0,0.0,0.0,0.0,0.0,0.0,0.0,0.0,0.0,0.0,0.0,0.0,0.0,0.0,0.0,0.378,0.3976,0.4112,0.4095,0.4231,0.0,0.0,0.0,0.0,0.4264,0.4022,0.4017,0.0,0.4225,0.0,0.0,0.0,0.444,0.4635,0.4465,0.4295,0.4128,0.3954,0.3727,0.3501,0.3154,0.2868,0.2586,0.2239,0.1954,0.1668,0.1381,0.1208,0.0,0.0,0.0,0.0,0.0,0.0,-0.1312,-0.1677,-0.1819,-0.207,0.0,0.0,-0.3236,-0.3556,-0.3966,-0.426,-0.4281,-0.4422,-0.4537,-0.4734,-0.4834,-0.4937,-0.4937,-0.4935,-0.5035,-0.5238,-0.5338,-0.5338,-0.5534,-0.5636,-0.5739,-0.5942,-0.6039,-0.6239,-0.6437,-0.6437,-0.6639,-0.6845,-0.7141,-0.7441,-0.7646,-0.8093,-0.8397,-0.8655,-0.8808,-0.901,-0.9379,-0.9706,-1.0036,-1.0257,-1.0582,-1.0692,-1.0692,-1.0692,-1.0692,-1.0692,-1.0802,-1.0907,-1.1131,-1.1236,-1.1568,-1.2005,0.0,0.0,0.0,0.0,0.0,0.0,0.0,0.0,0.0,0.0,0.0,0.0,0.0,0.0,0.0,0.2867,0.0,0.0,0.0,0.0,0.0,0.3986,0.4234,0.0,0.4671,0.4409,0.0,0.0,0.0,0.0,0.4084,0.3889,0.3878,0.401,0.4017,0.4123,0.4207,0.0,0.0,0.0,0.4221,0.4102,0.4041,0.0,0.3549,0.3371,0.3001,0.2698,0.2393,0.2023,0.1717,0.141,0.1351,0.1168,0.0984,0.0,0.0,0.0,0.0,-0.1121,0.0,-0.1677,-0.1819,0.0,0.0,0.0,-0.3403,-0.3556,-0.4014,-0.4469,-0.4557,-0.4716,-0.4734,-0.4834,-0.5037,-0.514,-0.514,-0.5438,-0.5536,-0.5536,-0.5536,-0.5534,-0.5634,-0.5839,-0.5942,-0.6042,-0.6239,-0.6337,-0.6437,-0.6639,-0.6745,-0.6845,-0.7344,-0.7547,-0.7646,-0.8093,-0.8347,-0.8496,-0.8648,-0.8907,-0.9379,-0.9706,-1.0036,-1.0257,-1.0582,-1.0692,-1.0692,-1.0692,-1.0692,-1.0692,-1.1021,-1.1126,-1.1126,-1.1787,-1.2005,-1.2114,0.0,0.0,0.0,0.0,0.0,0.0,0.0,0.0,0.0,0.0,0.0,0.0,0.0,0.2542,0.2824,0.3177,0.3472,0.0,0.0,0.0,0.0,0.4248,0.4485,0.4593,0.4591,0.0,0.0,0.0,0.0,0.4017,0.4282,0.3939,0.3888,0.4005,0.4005,0.3996,0.399,0.3931,0.0,0.0,0.0,0.0,0.0,0.0,0.3103,0.2921,0.2526,0.2284,0.2148,0.1787,0.1523,0.133,0.1305,0.1112,0.0868,0.0442,-0.0064,0.0,0.0,0.0,0.0,-0.1677,-0.1819,-0.2061,-0.2697,-0.3162,-0.3474,-0.3669,-0.4062,-0.4447,-0.4667,-0.4921,-0.4967,-0.5029,-0.5238,-0.5438,-0.5438,-0.5536,-0.5636,-0.5839,-0.5839,-0.5939,-0.6137,-0.6237,-0.6239,-0.6239,-0.6337,-0.6437,-0.6642,-0.6742,-0.6945,-0.7347,-0.7547,-0.7646,-0.7842,-0.8194,-0.834,-0.8482,-0.8635,-0.89,-0.9379,-0.9706,-1.0036,-1.0257,-1.0582,-1.0692,-1.0692,-1.0692,-1.0802,-1.1017,-1.1017,-1.135,-1.1678,-1.1896,-1.2223,-1.2659,0.0,0.0,0.0,0.0,0.0,0.0,0.0,0.0,0.0,0.0,0.0,0.0,0.0,0.0,0.3093,0.3506,0.3813,0.4042,0.4199,0.4384,0.4504,0.4504,0.4704,0.4777,0.4656,0.0,0.0,0.0,0.0,0.0,0.0,0.3966,0.3865,0.4024,0.4014,0.3935,0.0,0.0,0.0,0.3599,0.0,0.324,0.3079,0.2935,0.2755,0.2493,0.2199,0.2007,0.1863,0.1557,0.1414,0.1209,0.1252,0.0911,0.0519,0.0132,0.0,0.0,-0.1006,0.0,0.0,0.0,-0.1819,-0.2056,-0.2752,-0.3142,-0.3467,-0.3718,-0.4198,-0.4582,-0.4802,-0.5099,-0.5234,-0.5271,-0.5487,-0.5695,-0.5732,-0.5837,-0.5937,-0.6139,-0.6139,-0.6239,-0.6337,-0.6437,-0.6437,-0.6539,-0.6539,-0.6639,-0.6942,-0.7045,-0.7244,-0.7743,-0.7746,-0.7842,-0.8038,-0.814,-0.8289,-0.8482,-0.869,-0.9061,-0.9596,-0.9816,-1.0147,-1.0472,-1.0582,-1.0692,-1.0692,-1.0802,-1.0911,-1.1131,-1.1345,-1.1678,-1.2001,-1.2223,-1.2555,-1.2881,0.0,0.0,0.0,0.0,0.0,0.0,0.0,0.0,0.0,0.0,0.0,0.0,0.0,0.0,0.0,0.3799,0.3944,0.4098,0.4218,0.452,0.4714,0.4714,0.0,0.0,0.0,0.0,0.0,0.0,0.0,0.0,0.0,0.0,0.3865,0.3974,0.3995,0.3889,0.3707,0.0,0.372,0.3565,0.336,0.3203,0.3061,0.2699,0.2484,0.2268,0.2051,0.1758,0.1391,0.1464,0.1317,0.1096,0.1094,0.0574,0.0,0.0,0.0,0.0,0.0,0.0,0.0,0.0,0.0,0.0,-0.2749,-0.3139,-0.3463,-0.3714,-0.4236,-0.4687,-0.4785,-0.5264,-0.5611,-0.5543,-0.5771,-0.5907,-0.6016,-0.6229,-0.6426,-0.6426,-0.6426,-0.6426,-0.6426,-0.6429,-0.6534,-0.6739,-0.6842,-0.6942,-0.7238,-0.7444,-0.7746,-0.8038,-0.8038,-0.8038,-0.8038,-0.8038,-0.8187,-0.8476,-0.879,-0.9169,-0.9809,-1.0143,-1.0472,-1.0692,-1.0692,-1.0692,-1.0802,-1.1021,-1.1126,-1.1126,-1.1782,-1.2005,-1.2114,-1.2663,-1.2881,-1.2989,0.0,0.0,0.0,0.0,0.0,0.0,0.0,0.0,0.0,0.0,0.0,0.0,0.0,0.0,0.0,0.4375,0.4506,0.4637,0.4768,0.4947,0.5019,0.4943,0.5077,0.5111,0.0,0.0,0.0,0.0,0.0,0.0,0.0,0.0,0.0,0.0,0.4092,0.3909,0.352,0.3627,0.0,0.3149,0.3081,0.2848,0.249,0.2504,0.2231,0.1935,0.1841,0.17,0.1615,0.1431,0.1328,0.1148,0.0516,0.0145,0.0,0.0,0.0,0.0,-0.1071,0.0,0.0,0.0,0.0,0.0,-0.285,-0.3226,-0.3465,-0.3884,-0.4228,-0.4669,-0.4858,-0.5238,-0.5556,-0.5792,-0.5889,-0.605,-0.6085,-0.6184,-0.6181,-0.6181,-0.6181,-0.6277,-0.6367,-0.6549,-0.6703,-0.6905,-0.6988,-0.7241,-0.7444,-0.7743,-0.7942,-0.8038,-0.8038,-0.8038,-0.8038,-0.8038,-0.8237,-0.8635,-0.8845,-0.9319,-0.9962,-1.0198,-1.0582,-1.1021,-1.1021,-1.1131,-1.135,-1.1131,-1.1345,-1.1782,-1.1891,-1.2223,-1.2659,-1.2881,-1.3098,-1.3532,0.0,0.0,0.0,0.0,0.0,0.0,0.0,0.0,0.0,0.0,0.0,0.0,0.0,0.0,0.0,0.4691,0.4839,0.5015,0.524,0.5337,0.5293,0.5112,0.5197,0.5154,0.499,0.0,0.0,0.0,0.0,0.0,0.0,0.0,0.0,0.0,0.0,0.0,0.0,0.0,0.0,0.2921,0.281,0.2516,0.2224,0.2128,0.1925,0.1704,0.1584,0.143,0.126,0.1327,0.1064,0.0643,0.0155,-0.0,-0.0,-0.0,0.0,0.0,0.0,0.0,0.0,0.0,0.0,0.0,-0.2906,-0.3195,-0.3422,-0.3884,-0.43,-0.4653,-0.493,-0.5215,-0.5604,-0.5902,-0.6073,-0.6154,-0.6258,-0.6272,-0.6272,-0.6369,-0.6369,-0.6461,-0.6552,-0.6718,-0.6861,-0.7056,-0.7124,-0.7388,-0.7648,-0.7848,-0.7974,-0.8038,-0.8038,-0.8038,-0.8137,-0.8137,-0.8414,-0.8878,-0.9069,-0.944,-0.9996,-1.043,-1.0732,-1.1126,-1.1236,-1.1459,-1.1787,-1.1673,-1.1787,-1.2005,-1.2332,-1.255,-1.2881,-1.3098,-1.3532,-1.3959,0.0,0.0,0.0,0.2129,0.2195,0.2312,0.2462,0.0,0.0,0.0,0.0,0.0,0.0,0.0,0.0,0.0,0.505,0.5268,0.5594,0.5609,0.5524,0.533,0.5367,0.5281,0.5061,0.4963,0.0,0.0,0.0,0.0,0.0,0.0,0.0,0.0,0.0,0.0,0.0,0.0,0.3353,0.286,0.2556,0.2341,0.2114,0.1718,0.166,0.1605,0.1359,0.1022,0.0766,0.1019,0.0678,-0.0,-0.0,-0.0,-0.0,-0.0,-0.0,0.0,0.0,0.0,0.0,-0.1674,-0.1857,0.0,-0.2906,-0.3188,-0.3399,-0.3814,-0.4292,-0.4718,-0.4825,-0.5274,-0.5651,-0.6025,-0.6042,-0.6129,-0.6377,-0.6412,-0.6508,-0.6701,-0.6795,-0.6795,-0.6795,-0.681,-0.6913,-0.7189,-0.7205,-0.7364,-0.778,-0.7801,-0.7875,-0.8011,-0.8031,-0.8137,-0.8432,-0.8432,-0.8703,-0.9154,-0.9372,-0.9649,-1.0071,-1.0634,-1.0961,-1.1236,-1.1568,-1.1787,-1.2114,-1.2332,-1.2332,-1.2114,-1.2772,-1.2989,-1.3098,-1.3532,-1.3959,-1.4277,0.0,0.0,0.2365,0.2355,0.248,0.2667,0.2911,0.0,0.0,0.0,0.0,0.0,0.0,0.0,0.0,0.0,0.5353,0.5517,0.5609,0.5702,0.5683,0.5547,0.5635,0.562,0.5486,0.5438,0.0,0.0,0.0,0.0,0.0,0.0,0.0,0.0,0.0,0.0,0.0,0.0,0.3298,0.2936,0.2546,0.2219,0.1957,0.1777,0.155,0.1391,0.0988,0.1,0.1179,0.0446,0.0176,-0.0,-0.0,-0.0,-0.0,-0.0,-0.0,-0.0079,-0.0623,-0.101,-0.1405,-0.1796,-0.188,0.0,-0.2747,-0.2994,-0.3257,-0.3561,-0.4155,-0.4608,-0.4713,-0.5239,-0.567,-0.5777,-0.5945,-0.612,-0.6382,-0.6418,-0.6418,-0.6511,-0.6511,-0.6601,-0.6786,-0.6891,-0.705,-0.7322,-0.7433,-0.7516,-0.7641,-0.775,-0.7925,-0.8157,-0.8273,-0.8432,-0.8726,-0.8726,-0.8847,-0.9187,-0.9419,-0.9796,-1.0531,-1.0792,-1.1285,-1.1787,-1.1896,-1.2223,-1.2772,-1.2767,-1.2772,-1.2772,-1.3098,-1.3315,-1.364,-1.3959,-1.4277,-1.4606,0.0,0.0,0.2847,0.2879,0.303,0.3208,0.339,0.0,0.0,0.0,0.0,0.0,0.0,0.0,0.0,0.0,0.0,0.0,0.0,0.6282,0.6187,0.593,0.5967,0.5867,0.5613,0.5555,0.5408,0.0,0.0,0.0,0.0,0.0,0.0,0.0,0.0,0.0,0.0,0.0,0.3272,0.3013,0.2372,0.2105,0.191,0.1649,0.1511,0.1352,0.0836,0.0657,0.0656,0.0186,-0.0,-0.0,-0.0,-0.0,-0.0,-0.0,-0.0,-0.0083,-0.0571,-0.0968,-0.136,-0.168,-0.1824,0.0,0.0,-0.2904,-0.3149,-0.3502,-0.4066,-0.4496,-0.4603,-0.5199,-0.5632,-0.5859,-0.6037,-0.6251,-0.6471,-0.6405,-0.6408,-0.649,-0.6576,-0.6576,-0.6754,-0.6974,-0.7269,-0.7613,-0.7695,-0.7773,-0.7855,-0.7927,-0.8044,-0.8394,-0.8474,-0.8652,-0.9031,-0.9031,-0.9229,-0.9628,-0.9713,-1.0054,-1.0656,-1.105,-1.1456,-1.2079,-1.229,-1.2659,-1.3098,-1.3207,-1.3423,-1.3527,-1.3532,-1.364,-1.3959,-1.4277,-1.4713,-1.5041,0.3239,0.0,0.3403,0.3533,0.3628,0.3744,0.3854,0.3924,0.0,0.0,0.0,0.0,0.0,0.0,0.0,0.0,0.0,0.0,0.0,0.6731,0.6587,0.6253,0.6239,0.6086,0.5752,0.5636,0.5482,0.5383,0.0,0.0,0.0,0.0,0.0,0.0,0.0,0.0,0.0,0.0,0.0,0.3011,0.2269,0.199,0.1955,0.1599,0.1459,0.13,0.0761,0.0288,-0.0,-0.0,-0.0,-0.0,-0.0,-0.0,-0.0,-0.0,-0.0,-0.0085,-0.059,-0.0997,-0.1393,-0.1556,-0.1778,-0.1989,0.0,0.0,0.0,-0.3376,-0.3917,-0.4411,-0.4576,-0.5074,-0.5592,-0.5858,-0.6125,-0.6374,-0.6617,-0.6453,-0.6473,-0.6692,-0.6781,-0.6781,-0.6785,-0.7147,-0.7446,-0.7752,-0.7789,-0.7867,-0.8001,-0.8072,-0.8225,-0.8585,-0.8653,-0.8848,-0.928,-0.9316,-0.9628,-1.0117,-1.0117,-1.0319,-1.0822,-1.1317,-1.1831,-1.2254,-1.2788,-1.3207,-1.3532,-1.3748,-1.4067,-1.4277,-1.3959,-1.4067,-1.4385,-1.4713,-1.5041,-1.5482,0.3782,0.3854,0.0,0.4,0.4138,0.4264,0.4395,0.4423,0.0,0.0,0.0,0.0,0.0,0.0,0.0,0.0,0.0,0.6344,0.6366,0.6371,0.6349,0.6305,0.63,0.6283,0.6239,0.6176,0.6117,0.5994,0.0,0.0,0.0,0.0,0.0,0.0,0.4739,0.0,0.0,0.0,0.3409,0.3086,0.2324,0.2037,0.2087,0.1634,0.1478,0.1395,0.0386,-0.0,-0.0,-0.0,-0.0,-0.0,-0.0,-0.0,-0.0,-0.0,-0.0,-0.0086,-0.0593,-0.1009,-0.1427,-0.1676,-0.1839,-0.1992,-0.2195,0.0,-0.3142,-0.3154,0.0,-0.4387,-0.4399,0.0,0.0,-0.5602,-0.5996,-0.6312,-0.6312,-0.6464,-0.6641,-0.6912,-0.694,-0.7026,-0.7199,-0.7296,-0.7318,-0.7337,-0.755,-0.7636,-0.7658,-0.7942,-0.8212,-0.8524,-0.8816,-0.9176,-0.9769,-0.9841,-1.0019,-1.0314,-1.0314,-1.0712,-1.1423,-1.1728,-1.2248,-1.2881,-1.3106,-1.3527,-1.4062,-1.4169,-1.4493,-1.4928,-1.4606,-1.4713,-1.4928,-1.5261,-1.5482,-1.5589,0.4217,0.4285,0.0,0.0,0.4529,0.4683,0.4722,0.496,0.0,0.0,0.0,0.0,0.0,0.61,0.6361,0.653,0.6705,0.6901,0.6972,0.6972,0.0,0.6807,0.6698,0.6585,0.6471,0.6298,0.6181,0.6117,0.5876,0.0,0.0,0.0,0.0,0.0,0.4785,0.0,0.4014,0.0,0.3335,0.2996,0.2326,0.2036,0.19,0.1584,0.1338,0.0977,0.0298,-0.0,-0.0,-0.0,-0.0,-0.0,-0.0,-0.0,-0.0,-0.0,-0.0,-0.0091,-0.0537,-0.1059,-0.1394,-0.1547,-0.1782,-0.2013,-0.2077,-0.2735,-0.3296,-0.3142,0.0,0.0,0.0,0.0,0.0,0.0,-0.5797,-0.597,-0.6125,-0.62,-0.6407,-0.672,-0.6835,-0.7027,-0.7365,-0.7377,-0.7419,-0.7679,-0.7753,-0.7922,-0.8025,-0.8174,-0.8436,-0.8906,-0.9058,-0.9426,-0.9931,-1.0018,-1.0303,-1.09,-1.09,-1.1147,-1.1836,-1.2181,-1.2698,-1.333,-1.3693,-1.4169,-1.4708,-1.4708,-1.4934,-1.5261,-1.5154,-1.5154,-1.5261,-1.5482,-1.5696,-1.601,0.4783,0.0,0.0,0.0,0.4956,0.5083,0.514,0.54,0.0,0.0,0.0,0.0,0.6338,0.639,0.6571,0.6884,0.7015,0.7093,0.7241,0.7241,0.7158,0.6965,0.6835,0.6697,0.6494,0.6297,0.6168,0.6168,0.5868,0.0,0.0,0.0,0.0,0.0,0.0,0.4477,0.4059,0.3645,0.3243,0.2957,0.2382,0.1921,0.1697,0.153,0.1178,0.0707,0.0202,-0.0,-0.0,-0.0,-0.0,-0.0,-0.0,-0.0,-0.0,-0.0,-0.0,-0.0095,-0.0562,-0.1107,-0.1453,-0.1423,-0.1748,-0.2067,-0.2042,-0.2714,-0.337,-0.3299,-0.3834,0.0,0.0,0.0,-0.5321,0.0,0.0,-0.58,-0.5956,-0.612,-0.6252,-0.6482,-0.681,-0.7022,-0.7348,-0.7368,-0.7596,-0.7938,-0.8077,-0.8164,-0.8301,-0.8404,-0.866,-0.9106,-0.9217,-0.9614,-1.0238,-1.0296,-1.0706,-1.1394,-1.1394,-1.1683,-1.2191,-1.2643,-1.3162,-1.3707,-1.4183,-1.4713,-1.5148,-1.525,-1.547,-1.569,-1.5797,-1.5797,-1.5797,-1.5797,-1.6004,-1.6424,0.558,0.5415,0.0,0.0,0.5453,0.5581,0.5649,0.5767,0.591,0.6137,0.6282,0.6469,0.6639,0.6616,0.6649,0.6888,0.6763,0.6619,0.6619,0.6619,0.6544,0.6373,0.629,0.6283,0.6279,0.6275,0.6268,0.6268,0.6121,0.0,0.0,0.0,0.0,0.0,0.4862,0.46,0.4169,0.3657,0.3292,0.2957,0.2382,0.1861,0.1568,0.157,0.1192,0.0707,0.0202,-0.0,-0.0,-0.0,-0.0,-0.0,-0.0,-0.0,-0.0,-0.0,-0.0,-0.0095,-0.0667,-0.1143,-0.1516,-0.1485,-0.1847,-0.2193,-0.2104,-0.2863,-0.3449,-0.3372,-0.3796,-0.4306,-0.4458,-0.4767,-0.5162,0.0,0.0,0.0,0.0,-0.619,-0.638,-0.6391,-0.6754,-0.7041,-0.7224,-0.7385,-0.7613,-0.7804,-0.8134,-0.8396,-0.84,-0.8669,-0.8878,-0.8887,-0.9261,-0.9831,-1.0579,-1.0792,-1.1284,-1.198,-1.198,-1.2273,-1.278,-1.326,-1.3777,-1.431,-1.4818,-1.5154,-1.5482,-1.5785,-1.5998,-1.6324,-1.6524,-1.6624,-1.6624,-1.6318,-1.6424,-1.6736,0.0,0.0,0.0,0.0,0.5788,0.6054,0.6116,0.6258,0.6311,0.631,0.6547,0.6797,0.697,0.6916,0.6932,0.7179,0.7114,0.7034,0.7034,0.7034,0.7009,0.6788,0.6613,0.6433,0.6256,0.6077,0.5971,0.5871,0.5755,0.0,0.0,0.0,0.0,0.0,0.0,0.4422,0.4042,0.3583,0.303,0.2593,0.1921,0.1634,0.1601,0.1601,0.1215,0.072,0.0206,-0.0,-0.0,-0.0,-0.0,-0.0,-0.0,-0.0,-0.0,-0.0,-0.0,-0.0099,-0.0683,-0.1167,-0.1549,-0.1519,-0.1889,-0.2251,-0.2191,-0.2809,-0.3408,-0.3461,-0.384,-0.4206,-0.4487,-0.4673,0.0,0.0,0.0,0.0,0.0,-0.5878,-0.6124,-0.6391,-0.674,-0.7048,-0.7178,-0.7254,-0.7475,-0.7742,-0.7961,-0.8111,-0.837,-0.8506,-0.8777,-0.9377,-0.9528,-1.0022,-1.082,-1.1037,-1.1541,-1.2247,-1.2394,-1.2764,-1.3266,-1.3758,-1.4287,-1.4826,-1.5346,-1.5891,-1.6318,-1.6418,-1.6524,-1.6524,-1.6624,-1.6842,-1.6955,-1.663,-1.6743,-1.706,0.6053,0.6157,0.0,0.5878,0.6122,0.6356,0.645,0.6459,0.6505,0.6626,0.6807,0.695,0.7179,0.7057,0.7126,0.7352,0.72,0.7137,0.7197,0.7059,0.6915,0.6696,0.6552,0.6351,0.6099,0.6002,0.5909,0.5815,0.5647,0.5526,0.0,0.0,0.0,0.0,0.0,0.4302,0.3905,0.3503,0.3014,0.2388,0.1788,0.1572,0.1618,0.1425,0.1234,0.104,0.0209,-0.0,-0.0,-0.0,-0.0,-0.0,-0.0,-0.0,-0.0,-0.0,-0.0312,-0.0616,-0.0806,-0.1203,-0.1594,-0.1553,-0.1927,-0.2301,-0.2257,-0.279,-0.3395,-0.3575,-0.3773,-0.413,-0.443,-0.4594,0.0,0.0,0.0,0.0,0.0,-0.5787,-0.6024,-0.6284,-0.6619,-0.6855,-0.7053,-0.7202,-0.7451,-0.7863,-0.7955,-0.8173,-0.8581,-0.8663,-0.9015,-0.9692,-0.9774,-1.0277,-1.1248,-1.1475,-1.1982,-1.2692,-1.2934,-1.3346,-1.3841,-1.4354,-1.4898,-1.5435,-1.5971,-1.6418,-1.673,-1.6842,-1.6842,-1.6842,-1.6942,-1.716,-1.7279,-1.6955,-1.706,-1.7384,0.6791,0.681,0.6702,0.6304,0.6441,0.6577,0.6628,0.6448,0.6506,0.7019,0.6902,0.6964,0.727,0.7148,0.7193,0.7499,0.6992,0.6783,0.7011,0.6616,0.6395,0.6186,0.606,0.5987,0.5981,0.5975,0.5966,0.596,0.5704,0.0,0.0,0.0,0.0,0.0,0.4542,0.0,0.3842,0.3587,0.2999,0.2357,0.1825,0.1591,0.1521,0.1033,0.1144,0.1462,0.0425,-0.0,-0.0,-0.0,-0.0,-0.0,-0.0,-0.0,-0.0,-0.0107,-0.0854,-0.1701,-0.1045,-0.1248,-0.165,-0.1591,-0.1968,-0.2348,-0.2303,-0.2823,-0.3338,-0.361,-0.3765,-0.3919,-0.4428,-0.4522,-0.4629,0.0,0.0,0.0,0.0,-0.5865,-0.5962,-0.6148,-0.635,-0.6552,-0.686,-0.715,-0.7516,-0.8052,-0.8309,-0.8556,-0.8993,-0.9203,-0.9503,-0.9989,-1.0191,-1.0771,-1.1677,-1.2015,-1.2433,-1.3128,-1.3408,-1.3823,-1.4316,-1.4859,-1.5405,-1.5935,-1.6495,-1.673,-1.673,-1.7067,-1.7285,-1.7279,-1.7483,-1.7687,-1.7582,-1.7279,-1.7378,-1.7582,0.6667,0.6786,0.6766,0.6535,0.6531,0.6607,0.657,0.6734,0.6903,0.6853,0.7137,0.7382,0.7465,0.7413,0.7397,0.7283,0.7105,0.7028,0.6882,0.6755,0.6626,0.6406,0.6098,0.586,0.5592,0.5414,0.5241,0.5077,0.502,0.4951,0.4951,0.0,0.0,0.0,0.0,0.4036,0.3765,0.3252,0.2567,0.202,0.1757,0.1603,0.155,0.1473,0.1496,0.1406,0.0434,-0.0,-0.0,-0.0,-0.0,-0.0,-0.0,-0.0,-0.0218,-0.1088,-0.151,-0.1705,-0.1484,-0.1587,-0.1684,-0.1648,-0.2047,-0.2434,-0.2354,-0.2716,-0.326,-0.363,-0.367,-0.3879,-0.4365,-0.458,-0.4719,0.0,0.0,0.0,-0.5557,-0.5827,-0.6094,-0.616,-0.635,-0.6502,-0.6884,-0.6955,-0.7257,-0.785,-0.8231,-0.8481,-0.8763,-0.9135,-0.9589,-1.0222,-1.0458,-1.0961,-1.1701,-1.2299,-1.2905,-1.3439,-1.3892,-1.44,-1.4904,-1.5457,-1.591,-1.6251,-1.6821,-1.7166,-1.7371,-1.7694,-1.7806,-1.7806,-1.8115,-1.8213,-1.8108,-1.7687,-1.7582,-1.7582,0.7001,0.7043,0.7014,0.7026,0.6896,0.684,0.6797,0.684,0.6894,0.7104,0.7197,0.7375,0.7514,0.7495,0.7429,0.7301,0.7117,0.6855,0.6819,0.6576,0.6351,0.6157,0.5826,0.5583,0.543,0.5274,0.512,0.4975,0.4913,0.4837,0.4834,0.0,0.0,0.0,0.0,0.3882,0.3622,0.2846,0.2285,0.187,0.17,0.1427,0.0,0.1497,0.1303,0.0767,0.0221,-0.0,-0.0,-0.0,-0.0,-0.0,-0.0,-0.0334,-0.0885,-0.155,-0.1759,-0.1743,-0.1728,-0.1724,-0.1717,-0.1688,-0.2087,-0.2476,-0.2425,-0.2779,-0.3217,-0.3718,-0.3745,-0.3857,-0.4391,-0.4613,-0.4806,-0.5057,-0.53,-0.5433,-0.5506,-0.5766,-0.6006,-0.6039,-0.6218,-0.6482,-0.6881,-0.6881,-0.7158,-0.7763,-0.819,-0.8541,-0.8822,-0.9195,-0.9715,-1.0397,-1.0665,-1.1144,-1.1781,-1.275,-1.3338,-1.3713,-1.4339,-1.4879,-1.5287,-1.5853,-1.6319,-1.6653,-1.7237,-1.7694,-1.8003,-1.8115,-1.822,-1.822,-1.8318,-1.8422,-1.8318,-1.8108,-1.7898,-1.7898,0.7486,0.736,0.7287,0.748,0.7287,0.7106,0.7152,0.6842,0.6799,0.7344,0.7286,0.7329,0.7503,0.7374,0.7251,0.7378,0.6911,0.6674,0.6785,0.6278,0.5917,0.5917,0.5521,0.5274,0.5274,0.5165,0.5158,0.5158,0.4965,0.4871,0.0,0.0,0.0,0.0,0.0,0.0,0.0,0.2592,0.2064,0.1879,0.1639,0.1353,0.0942,0.1407,0.0987,-0.0,-0.0,-0.0,-0.0,-0.0,-0.0,-0.0,-0.0224,-0.1009,-0.1795,-0.1795,-0.1795,-0.1789,-0.1763,-0.1755,-0.1748,-0.1718,-0.2109,-0.2497,-0.2491,-0.2828,-0.3247,-0.3726,-0.3811,-0.3803,-0.4252,-0.4545,-0.4947,-0.5311,-0.5392,-0.5414,-0.5495,-0.5722,-0.5851,-0.5944,-0.6117,0.0,-0.6885,-0.6881,-0.7149,-0.7725,-0.817,-0.8603,-0.8927,-0.9404,-0.9959,-1.0595,-1.0913,-1.1404,-1.2064,-1.3121,-1.3791,-1.3979,-1.481,-1.5267,-1.5566,-1.6157,-1.672,-1.7155,-1.7757,-1.822,-1.8422,-1.8422,-1.8534,-1.8527,-1.8527,-1.8527,-1.8527,-1.8527,-1.8527,-1.8422,0.7509,0.7439,0.7447,0.7399,0.7415,0.7371,0.7386,0.7339,0.7292,0.7217,0.7465,0.762,0.7481,0.7598,0.7547,0.7071,0.7061,0.6922,0.6534,0.6218,0.605,0.5843,0.5441,0.5189,0.5189,0.4718,0.4485,0.4485,0.4195,0.4056,0.0,0.0,0.0,0.0,0.0,0.0,0.2512,0.215,0.1883,0.1612,0.1648,0.1572,0.1491,0.1522,0.0884,-0.0,-0.0,-0.0,-0.0,-0.0,-0.0,-0.0224,-0.1121,-0.1683,-0.1795,-0.1795,-0.1795,-0.1794,-0.1789,-0.1787,-0.178,-0.1749,-0.2149,-0.2535,-0.2498,-0.2857,-0.33,-0.3544,-0.3663,-0.3868,-0.4077,-0.4401,-0.4772,-0.4892,-0.5311,-0.5555,-0.5414,-0.5892,-0.6205,-0.6062,-0.623,-0.6511,-0.6898,-0.6881,-0.7091,-0.7513,-0.8216,-0.8674,-0.8781,-0.9611,-1.0258,-1.0595,-1.1152,-1.1723,-1.223,-1.3291,-1.4063,-1.4508,-1.5078,-1.5642,-1.6143,-1.665,-1.7114,-1.7441,-1.8053,-1.8318,-1.8422,-1.8653,-1.8966,-1.9168,-1.9168,-1.9168,-1.9168,-1.9168,-1.9168,-1.9063,0.777,0.7778,0.7765,0.7788,0.7735,0.7642,0.7699,0.7721,0.7585,0.7489,0.7555,0.7664,0.764,0.7527,0.7336,0.7131,0.6873,0.6698,0.6386,0.6018,0.5779,0.5673,0.5209,0.4975,0.4975,0.4483,0.4241,0.4241,0.3925,0.3869,0.0,0.0,0.0,0.0,0.0,0.2918,0.2256,0.2083,0.1814,0.154,0.1255,0.1385,0.1517,0.0992,0.0446,-0.0,-0.0,-0.0449,-0.0785,-0.0224,-0.0449,-0.1009,-0.157,-0.1795,-0.1795,-0.1795,-0.1795,-0.1795,-0.1795,-0.1795,-0.1791,-0.1777,-0.2173,-0.2551,-0.253,-0.2884,-0.3222,-0.3494,-0.3699,-0.3873,-0.4298,-0.4572,-0.4751,-0.4894,-0.5267,-0.5511,-0.5388,-0.5725,-0.6089,-0.622,-0.6331,-0.6541,-0.7042,-0.7116,-0.7297,-0.7611,-0.8265,-0.8725,-0.8865,-0.9737,-1.0334,-1.0751,-1.1476,-1.2053,-1.2478,-1.3642,-1.4417,-1.4597,-1.5458,-1.6109,-1.6477,-1.7007,-1.7503,-1.798,-1.8447,-1.875,-1.8848,-1.9071,-1.9175,-1.9279,-1.9279,-1.9279,-1.9279,-1.9279,-1.9279,-1.9168,0.8178,0.8102,0.8118,0.8167,0.8042,0.7873,0.7879,0.7859,0.7858,0.7764,0.7697,0.7639,0.7673,0.7392,0.7152,0.7046,0.665,0.6455,0.6241,0.5792,0.5459,0.5354,0.4904,0.468,0.4574,0.4199,0.4067,0.4067,0.3833,0.377,0.3768,0.0,0.0,0.0,0.304,0.2671,0.2284,0.202,0.1747,0.1569,0.1172,0.1082,0.1207,0.0334,-0.0,-0.0,-0.0,-0.0785,-0.1683,-0.0673,-0.0897,-0.1683,-0.1795,-0.1795,-0.1795,-0.1795,-0.1795,-0.1795,-0.1795,-0.1795,-0.1795,-0.1907,-0.2187,-0.2558,-0.2558,-0.2902,-0.323,-0.3433,-0.3625,-0.396,-0.4542,-0.4682,-0.4827,-0.489,-0.5271,-0.5515,-0.5433,-0.5623,-0.5942,-0.6379,-0.6432,-0.6651,-0.7237,-0.7434,-0.7608,-0.7893,-0.8433,-0.8867,-0.908,-0.9838,-1.0486,-1.0979,-1.1714,-1.2302,-1.2731,-1.3986,-1.4681,-1.4771,-1.5744,-1.6382,-1.6884,-1.7372,-1.7881,-1.8513,-1.8837,-1.9078,-1.9279,-1.9279,-1.9279,-1.9279,-1.9279,-1.9279,-1.9279,-1.9279,-1.9279,-1.9279,0.8714,0.8567,0.8355,0.8262,0.8106,0.7886,0.7863,0.7919,0.7918,0.7624,0.7743,0.7676,0.729,0.7315,0.7177,0.6634,0.6623,0.646,0.5906,0.5711,0.5443,0.4903,0.4721,0.4576,0.4259,0.3934,0.3823,0.3823,0.3543,0.3407,0.3406,0.3243,0.3114,0.2912,0.2316,0.2135,0.2064,0.176,0.1571,0.1599,0.1519,0.0984,0.011,-0.0,-0.0,-0.0,-0.0,-0.0785,-0.1795,-0.1683,-0.1346,-0.1121,-0.1683,-0.1795,-0.1795,-0.1795,-0.1795,-0.1795,-0.1795,-0.1795,-0.1907,-0.2132,-0.2296,-0.2558,-0.2878,-0.311,-0.323,-0.323,-0.3526,-0.3884,-0.435,-0.4639,-0.4827,-0.472,-0.5189,-0.5548,-0.5559,-0.5767,-0.602,-0.6548,-0.6604,-0.683,-0.7446,-0.7513,-0.7792,-0.8529,-0.8816,-0.9171,-0.9545,-1.0148,-1.0714,-1.1134,-1.1872,-1.2463,-1.2978,-1.4073,-1.4764,-1.5212,-1.5923,-1.6573,-1.7355,-1.7675,-1.8189,-1.8803,-1.9133,-1.9279,-1.9279,-1.9279,-1.9279,-1.9279,-1.9279,-1.9279,-1.9279,-1.9279,-1.9279,-1.9279,0.8974,0.8798,0.8571,0.846,0.8283,0.8203,0.8062,0.8008,0.7927,0.7697,0.7753,0.7699,0.7327,0.7339,0.7084,0.6644,0.6468,0.627,0.5822,0.5452,0.5099,0.488,0.4519,0.4174,0.4066,0.3807,0.3569,0.3569,0.3403,0.3271,0.3164,0.3141,0.2921,0.2608,0.2192,0.2095,0.2108,0.1794,0.1493,0.1192,0.142,0.0992,-0.0,-0.0,-0.0,-0.0112,-0.0785,-0.1121,-0.1346,-0.1683,-0.1683,-0.1458,-0.1683,-0.1795,-0.1795,-0.1795,-0.1795,-0.1795,-0.1795,-0.1795,-0.1907,-0.2132,-0.2296,-0.2558,-0.2878,-0.311,-0.323,-0.323,-0.3526,-0.3885,-0.436,-0.4692,-0.4918,-0.4815,-0.5126,-0.5499,-0.5692,-0.5683,-0.5999,-0.6699,-0.6768,-0.7005,-0.7638,-0.7799,-0.8116,-0.8856,-0.8932,-0.9202,-0.9723,-1.0239,-1.086,-1.1678,-1.2196,-1.2787,-1.3394,-1.434,-1.495,-1.5301,-1.6102,-1.6854,-1.7731,-1.8057,-1.8491,-1.9089,-1.922,-1.9279,-1.9279,-1.9279,-1.9279,-1.9279,-1.9279,-1.9279,-1.9279,-1.9279,-1.9279,-1.9272,0.9224,0.9036,0.8798,0.8682,0.85,0.8407,0.8316,0.8249,0.8056,0.7828,0.7768,0.7683,0.7359,0.7216,0.6935,0.6604,0.6272,0.5938,0.5599,0.5152,0.4819,0.4596,0.426,0.3924,0.3924,0.3545,0.3412,0.3412,0.325,0.3116,0.29,0.2778,0.2558,0.2345,0.2131,0.203,0.1933,0.1826,0.1411,0.1102,0.1103,0.0666,-0.0,-0.0,-0.0224,-0.0673,-0.1458,-0.157,-0.1234,-0.1683,-0.1795,-0.1795,-0.1795,-0.1795,-0.1795,-0.1795,-0.1795,-0.1795,-0.1795,-0.1907,-0.202,-0.2244,-0.2516,-0.277,-0.3091,-0.311,-0.323,-0.343,-0.3624,-0.3892,-0.4394,-0.474,-0.4977,-0.479,-0.5139,-0.5535,-0.5773,-0.575,-0.5989,-0.6791,-0.6865,-0.7126,-0.7829,-0.8018,-0.8348,-0.9015,-0.9079,-0.9374,-1.0042,-1.0421,-1.1064,-1.2074,-1.2487,-1.3041,-1.3861,-1.4703,-1.5266,-1.5528,-1.6337,-1.7206,-1.8016,-1.8404,-1.884,-1.9279,-1.9279,-1.9279,-1.9279,-1.9279,-1.9279,-1.9279,-1.9279,-1.9279,-1.9279,-1.9279,-1.9279,-1.9168,0.954,0.9271,0.9021,0.8877,0.8689,0.8476,0.8479,0.8398,0.817,0.784,0.7633,0.749,0.7263,0.6932,0.6604,0.6274,0.6047,0.5599,0.4929,0.4929,0.4596,0.4038,0.4038,0.3924,0.3587,0.3249,0.3136,0.3136,0.2756,0.2625,0.2624,0.2256,0.2131,0.2131,0.1811,0.1721,0.1749,0.1749,0.1767,0.1682,0.0448,-0.0,-0.0,-0.0,-0.0785,-0.1795,-0.1795,-0.1795,-0.1795,-0.1795,-0.1795,-0.1795,-0.1795,-0.1795,-0.1795,-0.1795,-0.1795,-0.1795,-0.1795,-0.202,-0.2244,-0.2581,-0.2845,-0.3091,-0.3305,-0.3318,-0.3331,-0.3831,-0.3917,-0.4005,-0.4476,-0.4787,-0.4977,-0.479,-0.5203,-0.5548,-0.5785,-0.5827,-0.6093,-0.6806,-0.6865,-0.7249,-0.8021,-0.8102,-0.8408,-0.9241,-0.9316,-0.962,-1.0438,-1.0764,-1.1341,-1.224,-1.2757,-1.3413,-1.4161,-1.4974,-1.5632,-1.6225,-1.6729,-1.7493,-1.8328,-1.8972,-1.9264,-1.9279,-1.9279,-1.9279,-1.9279,-1.9279,-1.9279,-1.9279,-1.9279,-1.9279,-1.9279,-1.9279,-1.9279,-1.9168,0.9649,0.9453,0.9161,0.8905,0.8786,0.8638,0.8638,0.833,0.8094,0.7981,0.7575,0.7268,0.7154,0.6935,0.6604,0.6274,0.6047,0.5599,0.4931,0.4706,0.4482,0.4038,0.3813,0.3587,0.325,0.3138,0.3026,0.2805,0.2679,0.2561,0.2337,0.1992,0.1876,0.1876,0.1766,0.1772,0.178,0.178,0.1786,0.1683,0.0449,-0.0,-0.0,-0.0,-0.0785,-0.1795,-0.1795,-0.1795,-0.1795,-0.1795,-0.1795,-0.1795,-0.1795,-0.1795,-0.1795,-0.1795,-0.1795,-0.1795,-0.202,-0.2132,-0.2356,-0.2803,-0.2953,-0.3091,-0.3305,-0.3318,-0.3331,-0.3932,-0.3917,-0.4005,-0.4478,-0.4789,-0.4999,-0.4968,-0.5254,-0.5609,-0.6036,-0.6028,-0.6244,-0.6976,-0.7036,-0.7305,-0.8038,-0.8102,-0.8539,-0.9534,-0.9544,-0.9932,-1.071,-1.0867,-1.1502,-1.2757,-1.294,-1.3419,-1.4429,-1.4974,-1.5632,-1.6225,-1.6736,-1.75,-1.8321,-1.8979,-1.9279,-1.9279,-1.9279,-1.9279,-1.9279,-1.9279,-1.9279,-1.9279,-1.9279,-1.9279,-1.9279,-1.9279,-1.9175,-1.8966,0.9719,0.9414,0.9122,0.8973,0.8845,0.8798,0.8798,0.8323,0.8045,0.8045,0.7487,0.7154,0.7154,0.6824,0.6495,0.6274,0.5938,0.5377,0.4817,0.4592,0.4257,0.3924,0.3587,0.3362,0.3137,0.2914,0.2691,0.2469,0.2357,0.2244,0.202,0.1907,0.1795,0.1795,0.1795,0.1683,0.1458,0.1683,0.157,0.1009,0.0336,-0.0,-0.0,-0.0449,-0.1009,-0.1458,-0.1683,-0.1795,-0.1795,-0.1795,-0.1795,-0.1795,-0.1795,-0.1907,-0.1908,-0.1908,-0.1908,-0.202,-0.2356,-0.2468,-0.2579,-0.3026,-0.317,-0.3187,-0.325,-0.3285,-0.3331,-0.3932,-0.3917,-0.4005,-0.4478,-0.4789,-0.501,-0.501,-0.531,-0.5689,-0.6162,-0.6166,-0.6396,-0.7149,-0.7211,-0.7488,-0.8256,-0.84,-0.8844,-0.9766,-0.9936,-1.0375,-1.1187,-1.1192,-1.1739,-1.2972,-1.3188,-1.3769,-1.4683,-1.5322,-1.5805,-1.6401,-1.7115,-1.7887,-1.8503,-1.903,-1.9279,-1.9279,-1.9279,-1.9279,-1.9279,-1.9279,-1.9279,-1.9279,-1.9279,-1.9279,-1.9279,-1.9279,-1.9175,-1.8869,0.9552,0.9259,0.9092,0.8913,0.894,0.894,0.894,0.838,0.8045,0.8045,0.7487,0.7154,0.7154,0.6715,0.6274,0.6274,0.5717,0.5156,0.4592,0.4479,0.4257,0.3587,0.325,0.3137,0.3026,0.2467,0.2244,0.2132,0.1908,0.1795,0.1795,0.1795,0.1795,0.1795,0.1795,0.1458,0.1009,0.1458,0.1009,-0.0,-0.0,-0.0,-0.0224,-0.1346,-0.1458,-0.1009,-0.157,-0.1795,-0.1795,-0.1795,-0.1795,-0.1795,-0.1795,-0.202,-0.2244,-0.2244,-0.2244,-0.2356,-0.2693,-0.2915,-0.3137,-0.3137,-0.328,-0.338,-0.3259,-0.323,-0.3331,-0.3932,-0.3917,-0.4005,-0.4478,-0.4789,-0.501,-0.501,-0.5371,-0.5871,-0.6183,-0.6251,-0.6544,-0.7318,-0.7383,-0.7793,-0.86,-0.8841,-0.9255,-0.9932,-1.0421,-1.1013,-1.1666,-1.1761,-1.2177,-1.301,-1.3531,-1.4209,-1.4957,-1.57,-1.6288,-1.6718,-1.7811,-1.8474,-1.8803,-1.9125,-1.9279,-1.9279,-1.9279,-1.9279,-1.9279,-1.9279,-1.9279,-1.9279,-1.9279,-1.9279,-1.9279,-1.9279,-1.9078,-1.8869,0.9749,0.9537,0.9223,0.893,0.894,0.894,0.894,0.838,0.8045,0.8045,0.7487,0.7154,0.7154,0.6715,0.6274,0.6274,0.5491,0.4817,0.448,0.4258,0.3923,0.3587,0.325,0.3026,0.2806,0.2356,0.2132,0.1907,0.1795,0.1795,0.1795,0.1795,0.1795,0.1795,0.1795,0.1683,0.157,0.0785,0.0224,-0.0,-0.0,-0.0561,-0.1458,-0.1683,-0.1683,-0.157,-0.1795,-0.1795,-0.1795,-0.1795,-0.1795,-0.1795,-0.202,-0.2132,-0.2244,-0.2244,-0.2357,-0.2693,-0.2915,-0.3026,-0.3138,-0.3362,-0.339,-0.338,-0.3259,-0.323,-0.3331,-0.3932,-0.3917,-0.4005,-0.4478,-0.4789,-0.501,-0.501,-0.5547,-0.6071,-0.6301,-0.6565,-0.6863,-0.748,-0.7547,-0.7835,-0.8613,-0.8841,-0.9316,-1.0143,-1.0653,-1.126,-1.1849,-1.2111,-1.2529,-1.3296,-1.3627,-1.4209,-1.4957,-1.5798,-1.6586,-1.7515,-1.8011,-1.8474,-1.8803,-1.9125,-1.9279,-1.9279,-1.9279,-1.9279,-1.9279,-1.9279,-1.9279,-1.9279,-1.9279,-1.9279,-1.9279,-1.9071,-1.8757,-1.8429,0.9706,0.9379,0.9158,0.8937,0.894,0.8826,0.8712,0.8269,0.7934,0.7826,0.749,0.7154,0.6935,0.6606,0.6274,0.6049,0.5377,0.4817,0.448,0.4147,0.3813,0.3362,0.3027,0.2803,0.2469,0.2132,0.1908,0.1795,0.1795,0.1795,0.1795,0.1795,0.1795,0.1795,0.1795,0.1795,0.1683,0.0561,-0.0,-0.0,-0.0561,-0.1234,-0.1795,-0.1795,-0.1795,-0.1795,-0.1795,-0.1795,-0.1795,-0.1795,-0.1907,-0.202,-0.2132,-0.2355,-0.2579,-0.2579,-0.2691,-0.2915,-0.325,-0.3362,-0.3351,-0.3521,-0.3459,-0.338,-0.3259,-0.3331,-0.3533,-0.3932,-0.4013,-0.4096,-0.4664,-0.4878,-0.501,-0.5191,-0.5725,-0.6171,-0.6343,-0.6697,-0.7112,-0.7639,-0.7887,-0.8283,-0.8954,-0.9363,-0.9827,-1.0454,-1.1064,-1.1685,-1.2197,-1.2551,-1.2984,-1.3582,-1.3856,-1.4404,-1.5157,-1.6005,-1.6935,-1.8035,-1.8218,-1.8547,-1.9016,-1.9199,-1.9279,-1.9279,-1.9279,-1.9279,-1.9279,-1.9279,-1.9279,-1.9279,-1.9279,-1.9279,-1.9279,-1.8974,-1.8646,-1.8318,0.9489,0.9158,0.894,0.894,0.894,0.8826,0.8484,0.8266,0.7934,0.7607,0.7379,0.7046,0.6712,0.6495,0.6161,0.5822,0.5264,0.4706,0.448,0.4147,0.3699,0.3137,0.2805,0.2581,0.2244,0.1908,0.1795,0.1795,0.1795,0.1795,0.1795,0.1795,0.1795,0.1795,0.1795,0.1683,0.1458,0.0449,-0.0112,-0.0336,-0.1346,-0.1795,-0.1795,-0.1795,-0.1795,-0.1795,-0.1795,-0.1795,-0.1907,-0.1907,-0.202,-0.2244,-0.2356,-0.2691,-0.3137,-0.3138,-0.3138,-0.325,-0.3475,-0.358,-0.3548,-0.344,-0.3405,-0.3369,-0.3256,-0.3433,-0.3635,-0.3932,-0.4109,-0.4377,-0.4849,-0.4968,-0.5099,-0.5371,-0.5816,-0.6169,-0.6343,-0.6874,-0.7319,-0.7856,-0.8288,-0.8811,-0.9262,-0.9864,-1.0381,-1.0641,-1.1548,-1.2192,-1.2397,-1.2892,-1.3371,-1.3932,-1.4257,-1.4702,-1.555,-1.6268,-1.7163,-1.8134,-1.8277,-1.8621,-1.9206,-1.925,-1.9279,-1.9279,-1.9279,-1.9279,-1.9279,-1.9279,-1.9279,-1.9279,-1.9279,-1.9279,-1.9175,-1.8974,-1.8646,-1.8325,0.9379,0.9158,0.894,0.894,0.894,0.8826,0.8484,0.8266,0.7934,0.7607,0.7379,0.7046,0.6712,0.6495,0.6161,0.5822,0.5039,0.4592,0.448,0.3921,0.3475,0.3137,0.2805,0.2581,0.2244,0.1908,0.1795,0.1795,0.1795,0.1795,0.1795,0.1795,0.1795,0.1795,0.1795,0.1234,0.0224,0.0112,-0.0561,-0.157,-0.1683,-0.1795,-0.1795,-0.1795,-0.1795,-0.1795,-0.1795,-0.1908,-0.2132,-0.2132,-0.2356,-0.2693,-0.2914,-0.3026,-0.3138,-0.3474,-0.3475,-0.3587,-0.3587,-0.3549,-0.3495,-0.3428,-0.3373,-0.3318,-0.3247,-0.3433,-0.3635,-0.3932,-0.4109,-0.4377,-0.4849,-0.4968,-0.5099,-0.5371,-0.5902,-0.6343,-0.6428,-0.6966,-0.7591,-0.7856,-0.8288,-0.8811,-0.9262,-0.9864,-1.0381,-1.0641,-1.1701,-1.2374,-1.2409,-1.3064,-1.3822,-1.4504,-1.4647,-1.5093,-1.6055,-1.6379,-1.6954,-1.7516,-1.8076,-1.8503,-1.8877,-1.9147,-1.9279,-1.9279,-1.9279,-1.9279,-1.9279,-1.9279,-1.9279,-1.9279,-1.9279,-1.9175,-1.8869,-1.8646,-1.8325,-1.8016,0.9158,0.9047,0.894,0.894,0.8823,0.8598,0.8266,0.7934,0.7715,0.7382,0.7268,0.7046,0.6495,0.6386,0.6049,0.5375,0.4815,0.4369,0.4258,0.3811,0.3363,0.2915,0.2805,0.2469,0.202,0.1907,0.1795,0.1795,0.1795,0.1795,0.1795,0.1795,0.1795,0.1795,0.1121,0.0561,-0.0,-0.0,-0.0673,-0.1795,-0.1795,-0.1795,-0.1795,-0.1795,-0.1795,-0.1795,-0.202,-0.2132,-0.2244,-0.2357,-0.2692,-0.2915,-0.3026,-0.325,-0.3362,-0.3587,-0.3587,-0.3587,-0.3587,-0.3542,-0.3484,-0.3427,-0.3367,-0.3305,-0.3448,-0.3633,-0.3935,-0.4135,-0.4401,-0.4662,-0.5043,-0.5156,-0.5369,-0.5727,-0.6166,-0.6432,-0.6612,-0.7234,-0.7768,-0.7856,-0.8556,-0.9078,-0.9257,-1.0143,-1.074,-1.0828,-1.1931,-1.2671,-1.2803,-1.3383,-1.4124,-1.4873,-1.5155,-1.5597,-1.6224,-1.6312,-1.6749,-1.7452,-1.7858,-1.8382,-1.8803,-1.9125,-1.9279,-1.9279,-1.9279,-1.9279,-1.9279,-1.9279,-1.9279,-1.9279,-1.9175,-1.8974,-1.8869,-1.8331,-1.8122,-1.7911,0.8937,0.894,0.8826,0.8826,0.8598,0.8374,0.7934,0.7715,0.7493,0.7265,0.7154,0.6935,0.6386,0.6274,0.5826,0.4929,0.4704,0.4369,0.4038,0.3699,0.3251,0.2693,0.2581,0.2244,0.1795,0.1795,0.1795,0.1795,0.1795,0.1683,0.157,0.1683,0.1683,0.1346,0.0449,-0.0,-0.0,-0.0336,-0.0897,-0.157,-0.1795,-0.1795,-0.1795,-0.1795,-0.1795,-0.1795,-0.2132,-0.2244,-0.2356,-0.2692,-0.3027,-0.325,-0.325,-0.3362,-0.3587,-0.3587,-0.3587,-0.3585,-0.357,-0.3522,-0.3463,-0.3511,-0.3449,-0.3392,-0.3646,-0.3935,-0.4135,-0.4338,-0.4694,-0.4946,-0.5232,-0.5341,-0.5549,-0.5994,-0.6254,-0.652,-0.6792,-0.7499,-0.794,-0.794,-0.8732,-0.9275,-0.9407,-1.0351,-1.101,-1.1055,-1.2177,-1.2951,-1.3233,-1.3679,-1.4282,-1.5077,-1.5547,-1.5927,-1.6123,-1.613,-1.6524,-1.7145,-1.7554,-1.8067,-1.8585,-1.8913,-1.9206,-1.9279,-1.9279,-1.9279,-1.9279,-1.9279,-1.9175,-1.9175,-1.8862,-1.8764,-1.866,-1.8122,-1.7911,-1.7911,0.894,0.894,0.8826,0.8598,0.8484,0.8263,0.7715,0.7607,0.7493,0.7265,0.6935,0.6604,0.6386,0.6047,0.5599,0.4929,0.4704,0.4369,0.4038,0.3475,0.3027,0.2693,0.2132,0.1795,0.1795,0.1795,0.1795,0.1795,0.1795,0.1458,0.1009,0.157,0.1234,0.0112,-0.0,-0.0,-0.0112,-0.1234,-0.1346,-0.1009,-0.157,-0.1795,-0.1795,-0.1795,-0.1795,-0.1795,-0.2132,-0.2357,-0.2693,-0.3027,-0.325,-0.3587,-0.3587,-0.3587,-0.3587,-0.3587,-0.3587,-0.3575,-0.3519,-0.3462,-0.3403,-0.3652,-0.3588,-0.3641,-0.3935,-0.4135,-0.4338,-0.4438,-0.4694,-0.4946,-0.5232,-0.5341,-0.5549,-0.5994,-0.6254,-0.652,-0.7051,-0.7588,-0.794,-0.8201,-0.8815,-0.9416,-0.9589,-1.0433,-1.1071,-1.1268,-1.2423,-1.3228,-1.3245,-1.385,-1.4573,-1.5083,-1.5547,-1.5832,-1.5832,-1.6123,-1.6231,-1.6259,-1.6849,-1.7442,-1.7967,-1.8282,-1.8788,-1.9279,-1.9279,-1.9279,-1.9279,-1.9078,-1.8981,-1.8869,-1.8534,-1.8325,-1.8016,-1.8016,-1.7799,-1.7582,0.8712,0.8598,0.8598,0.8263,0.8045,0.7826,0.7607,0.7493,0.7268,0.7265,0.6935,0.6604,0.6274,0.6047,0.5487,0.4704,0.4592,0.4145,0.3475,0.3027,0.2692,0.2357,0.202,0.1795,0.1795,0.1795,0.1795,0.1795,0.1795,0.1683,0.1458,0.0897,0.0449,-0.0,-0.0,-0.0449,-0.1121,-0.157,-0.1683,-0.1458,-0.1683,-0.1795,-0.1795,-0.1795,-0.1907,-0.2132,-0.2357,-0.2692,-0.3027,-0.3251,-0.3475,-0.3587,-0.3587,-0.3587,-0.3587,-0.3813,-0.3784,-0.3848,-0.3999,-0.3854,-0.3711,-0.3852,-0.3885,-0.3934,-0.4237,-0.4338,-0.4539,-0.4841,-0.4988,-0.5232,-0.5521,-0.5707,-0.5905,-0.6257,-0.6523,-0.6792,-0.7323,-0.7676,-0.8028,-0.8372,-0.9093,-0.9553,-0.9809,-1.0779,-1.144,-1.152,-1.268,-1.3397,-1.3397,-1.4154,-1.4694,-1.5083,-1.5452,-1.5635,-1.5832,-1.5927,-1.6028,-1.6224,-1.6622,-1.7121,-1.7619,-1.8037,-1.8348,-1.8743,-1.8743,-1.8743,-1.8743,-1.8639,-1.8541,-1.8534,-1.822,-1.8122,-1.8016,-1.7799,-1.7694,-1.7582,0.8484,0.8374,0.8263,0.7934,0.7715,0.7607,0.7493,0.7268,0.7154,0.7046,0.6715,0.6495,0.6161,0.5824,0.5264,0.4592,0.4369,0.4033,0.3138,0.2803,0.2357,0.2132,0.1907,0.1795,0.1795,0.1795,0.1795,0.1795,0.1795,0.1795,0.1795,0.0561,-0.0,-0.0,-0.0449,-0.1009,-0.1795,-0.1795,-0.1795,-0.1795,-0.1795,-0.1795,-0.1795,-0.1907,-0.202,-0.2244,-0.2692,-0.2915,-0.3138,-0.3475,-0.3587,-0.3587,-0.3587,-0.3587,-0.3699,-0.3924,-0.3989,-0.4029,-0.4279,-0.4242,-0.41,-0.4131,-0.4173,-0.4236,-0.4437,-0.4638,-0.474,-0.514,-0.528,-0.5521,-0.5713,-0.5893,-0.6171,-0.6343,-0.67,-0.7058,-0.7591,-0.7856,-0.8224,-0.8714,-0.9276,-0.9772,-1.0182,-1.1106,-1.1782,-1.1944,-1.2866,-1.3539,-1.3727,-1.4304,-1.479,-1.5083,-1.5356,-1.5635,-1.5832,-1.5832,-1.5927,-1.613,-1.6334,-1.6683,-1.7274,-1.7489,-1.7803,-1.8275,-1.8275,-1.8338,-1.8422,-1.8325,-1.8318,-1.822,-1.801,-1.7905,-1.7806,-1.7687,-1.7582,-1.7582,0.8484,0.8266,0.7934,0.7607,0.7607,0.7493,0.7265,0.7154,0.7043,0.6712,0.6495,0.6161,0.5822,0.5264,0.4817,0.448,0.4147,0.3701,0.3137,0.2579,0.2132,0.1795,0.1795,0.1795,0.1795,0.1795,0.1795,0.1795,0.1795,0.1795,0.1795,0.0561,-0.0,-0.0,-0.1234,-0.1795,-0.1795,-0.1795,-0.1795,-0.1795,-0.1795,-0.1795,-0.1795,-0.2132,-0.2244,-0.2244,-0.2914,-0.3137,-0.3138,-0.3475,-0.3587,-0.3587,-0.3587,-0.3587,-0.3699,-0.3924,-0.3989,-0.4029,-0.4596,-0.4622,-0.444,-0.4459,-0.4438,-0.4437,-0.4736,-0.5037,-0.524,-0.524,-0.5477,-0.5713,-0.5713,-0.5893,-0.6171,-0.6343,-0.6786,-0.7319,-0.7852,-0.8116,-0.844,-0.9156,-0.9453,-0.9971,-1.0858,-1.1372,-1.1939,-1.2355,-1.305,-1.3727,-1.4298,-1.4592,-1.479,-1.5083,-1.5356,-1.5635,-1.5832,-1.5832,-1.5832,-1.5832,-1.5832,-1.6088,-1.6676,-1.6676,-1.7196,-1.7967,-1.7967,-1.8135,-1.8415,-1.8115,-1.8016,-1.8016,-1.7687,-1.7582,-1.7582,-1.7582,-1.7582,-1.7582,0.7937,0.7826,0.7604,0.7379,0.7268,0.7268,0.7265,0.7154,0.7043,0.6712,0.6495,0.6161,0.5822,0.5264,0.4817,0.448,0.4147,0.3701,0.2917,0.2244,0.1907,0.1795,0.1795,0.1795,0.1795,0.1795,0.1795,0.1795,0.1795,0.1346,0.0561,0.0224,-0.0,-0.0,-0.1234,-0.1795,-0.1795,-0.1795,-0.1795,-0.1795,-0.1795,-0.1795,-0.1795,-0.2132,-0.2356,-0.2581,-0.2914,-0.325,-0.3475,-0.3587,-0.3587,-0.3587,-0.3587,-0.3699,-0.3924,-0.4258,-0.439,-0.4498,-0.4902,-0.489,-0.4669,-0.4642,-0.4636,-0.4736,-0.5037,-0.514,-0.534,-0.5641,-0.5769,-0.5805,-0.6083,-0.625,-0.6432,-0.6612,-0.7058,-0.7503,-0.7856,-0.822,-0.8673,-0.9354,-0.9776,-1.018,-1.0882,-1.1505,-1.2007,-1.2073,-1.2953,-1.3636,-1.4022,-1.4304,-1.4496,-1.479,-1.4879,-1.5166,-1.5635,-1.573,-1.5832,-1.5832,-1.5832,-1.5985,-1.6377,-1.6377,-1.6677,-1.7042,-1.7042,-1.7089,-1.7184,-1.74,-1.7488,-1.7405,-1.7607,-1.7582,-1.7582,-1.7582,-1.7483,-1.7279,0.7718,0.7493,0.7379,0.7265,0.7154,0.7154,0.7154,0.7043,0.6935,0.6604,0.6272,0.5935,0.5487,0.5041,0.4594,0.437,0.3813,0.3254,0.2581,0.202,0.1795,0.1795,0.1795,0.1795,0.1795,0.157,0.157,0.1795,0.1346,0.0673,-0.0,-0.0,-0.0224,-0.0785,-0.1234,-0.157,-0.1795,-0.1795,-0.1795,-0.1795,-0.1795,-0.1795,-0.1795,-0.2244,-0.2469,-0.2806,-0.3139,-0.3474,-0.3587,-0.3587,-0.3587,-0.3587,-0.3587,-0.3813,-0.4036,-0.4369,-0.4614,-0.483,-0.501,-0.5,-0.4879,-0.4845,-0.4834,-0.5037,-0.514,-0.534,-0.5641,-0.5942,-0.5963,-0.5992,-0.6361,-0.643,-0.652,-0.6792,-0.7326,-0.768,-0.7856,-0.8352,-0.8848,-0.9648,-0.9925,-1.0336,-1.1101,-1.1711,-1.2078,-1.237,-1.3055,-1.3636,-1.3931,-1.4112,-1.4394,-1.4688,-1.4688,-1.4879,-1.5356,-1.5452,-1.5642,-1.5832,-1.5832,-1.5925,-1.6099,-1.6099,-1.6253,-1.6533,-1.6533,-1.66,-1.672,-1.6901,-1.6974,-1.6987,-1.7168,-1.7131,-1.7048,-1.716,-1.7101,-1.6806,0.7607,0.7379,0.7154,0.7154,0.7154,0.7154,0.7154,0.6935,0.6604,0.6386,0.6047,0.5599,0.4929,0.4704,0.4369,0.4036,0.3254,0.2581,0.2244,0.1908,0.1795,0.1795,0.1795,0.1795,0.1795,0.1234,0.1234,0.1683,0.0561,-0.0,-0.0,-0.0,-0.0673,-0.1795,-0.1234,-0.1234,-0.1795,-0.1795,-0.1795,-0.1795,-0.1795,-0.1795,-0.1907,-0.2469,-0.2693,-0.2806,-0.3363,-0.3587,-0.3587,-0.3587,-0.3587,-0.3587,-0.3587,-0.3813,-0.4036,-0.4369,-0.4648,-0.4895,-0.5026,-0.5041,-0.4949,-0.4857,-0.5037,-0.524,-0.524,-0.5641,-0.6042,-0.6042,-0.6058,-0.6178,-0.6361,-0.643,-0.652,-0.6792,-0.7411,-0.7944,-0.7944,-0.8454,-0.9088,-0.9815,-1.0017,-1.05,-1.1468,-1.178,-1.2273,-1.305,-1.3346,-1.3539,-1.3835,-1.4112,-1.4394,-1.4688,-1.4688,-1.479,-1.5083,-1.5083,-1.5267,-1.5737,-1.5737,-1.5737,-1.5832,-1.5832,-1.5979,-1.6233,-1.6233,-1.6386,-1.6627,-1.6653,-1.6667,-1.6667,-1.6693,-1.6513,-1.6251,-1.651,-1.6491,-1.6219,0.7379,0.7265,0.7154,0.7154,0.7154,0.7154,0.7154,0.6935,0.6604,0.6386,0.6047,0.5599,0.4929,0.4704,0.4369,0.4036,0.3254,0.2581,0.2244,0.1908,0.1795,0.1795,0.1795,0.1795,0.1795,0.1683,0.1234,0.0336,0.0112,-0.0,-0.0,-0.0,-0.0673,-0.1795,-0.1683,-0.1683,-0.1795,-0.1795,-0.1795,-0.1795,-0.1795,-0.1795,-0.1795,-0.2132,-0.2469,-0.2693,-0.3138,-0.3362,-0.3587,-0.3587,-0.3587,-0.3587,-0.3587,-0.3813,-0.4036,-0.4369,-0.4648,-0.4895,-0.5026,-0.5041,-0.4949,-0.4857,-0.5135,-0.5536,-0.5536,-0.5739,-0.6042,-0.6237,-0.6343,-0.6458,-0.6649,-0.6712,-0.6792,-0.6966,-0.7499,-0.7944,-0.7944,-0.856,-0.9237,-0.9833,-1.014,-1.0556,-1.1189,-1.1683,-1.2273,-1.2861,-1.3055,-1.3346,-1.3539,-1.3829,-1.4118,-1.4394,-1.4394,-1.4496,-1.479,-1.479,-1.507,-1.554,-1.554,-1.5635,-1.5832,-1.5832,-1.5865,-1.5925,-1.5925,-1.5959,-1.6039,-1.6273,-1.6261,-1.6085,-1.6327,-1.6218,-1.6023,-1.6087,-1.5999,-1.5623,0.7265,0.7154,0.7154,0.7154,0.7154,0.7154,0.6935,0.6715,0.6383,0.6049,0.5826,0.5377,0.4817,0.4592,0.4145,0.3478,0.2918,0.2469,0.202,0.1907,0.1795,0.1795,0.157,0.1458,0.1795,0.1795,0.1234,-0.0,-0.0,-0.0,-0.0,-0.0,-0.0449,-0.1346,-0.1683,-0.1795,-0.1795,-0.1795,-0.1795,-0.1795,-0.1795,-0.1795,-0.1795,-0.2132,-0.2357,-0.2693,-0.3026,-0.3362,-0.3587,-0.3587,-0.3587,-0.3587,-0.3587,-0.3813,-0.4036,-0.4369,-0.4675,-0.4837,-0.5038,-0.5073,-0.5004,-0.4869,-0.5236,-0.5636,-0.5636,-0.5937,-0.6239,-0.6337,-0.6438,-0.6458,-0.6747,-0.6803,-0.6881,-0.7051,-0.7584,-0.7944,-0.7944,-0.8595,-0.9283,-0.9842,-1.018,-1.0703,-1.1487,-1.1883,-1.2175,-1.2764,-1.2958,-1.3147,-1.3346,-1.3636,-1.3931,-1.4118,-1.4202,-1.4394,-1.4496,-1.4496,-1.4688,-1.5166,-1.5261,-1.5363,-1.5458,-1.5458,-1.5458,-1.5458,-1.5458,-1.5458,-1.5471,-1.5621,-1.568,-1.5499,-1.5654,-1.5614,-1.543,-1.5562,-1.5495,-1.534,0.7154,0.7154,0.7154,0.7154,0.7154,0.7043,0.6712,0.6495,0.6161,0.5822,0.5491,0.5154,0.4592,0.4367,0.381,0.2806,0.2693,0.2357,0.1795,0.1795,0.1795,0.1795,0.1234,0.1234,0.1795,0.157,0.1009,-0.0,-0.0,-0.0,-0.0,-0.0,-0.0336,-0.0897,-0.157,-0.1795,-0.1795,-0.1795,-0.1795,-0.1795,-0.1795,-0.1795,-0.1795,-0.202,-0.2356,-0.2693,-0.2915,-0.325,-0.3587,-0.3587,-0.3587,-0.3587,-0.3587,-0.3701,-0.4036,-0.4369,-0.4583,-0.4877,-0.4939,-0.5096,-0.5045,-0.4877,-0.5135,-0.5536,-0.5634,-0.6037,-0.6437,-0.6437,-0.6457,-0.6579,-0.675,-0.6822,-0.691,-0.7058,-0.7584,-0.7863,-0.7893,-0.8615,-0.9295,-0.9881,-1.0294,-1.09,-1.1883,-1.198,-1.2175,-1.2667,-1.2953,-1.305,-1.3147,-1.3539,-1.3835,-1.3931,-1.4112,-1.4298,-1.4298,-1.4298,-1.4394,-1.4592,-1.4885,-1.4987,-1.5083,-1.5083,-1.5083,-1.5083,-1.5083,-1.5083,-1.5083,-1.5083,-1.5083,-1.4987,-1.4987,-1.4885,-1.4623,-1.4844,-1.5004,-1.5071,0.7154,0.7154,0.7154,0.7154,0.7154,0.7043,0.6712,0.6495,0.6161,0.5822,0.5264,0.4817,0.448,0.3808,0.3138,0.2693,0.2469,0.2132,0.1795,0.1795,0.1795,0.1795,0.1234,0.1234,0.1795,0.0785,0.0112,-0.0,-0.0,-0.0,-0.0,-0.0,-0.0336,-0.0897,-0.157,-0.1795,-0.1795,-0.1795,-0.1795,-0.1795,-0.1795,-0.1795,-0.1795,-0.1795,-0.202,-0.2356,-0.2581,-0.3141,-0.3587,-0.3587,-0.3587,-0.3587,-0.3587,-0.3587,-0.3699,-0.4036,-0.4216,-0.4477,-0.4706,-0.4839,-0.4965,-0.4861,-0.5037,-0.5338,-0.5536,-0.6037,-0.6437,-0.6437,-0.6726,-0.6885,-0.6768,-0.7085,-0.7299,-0.716,-0.7584,-0.7904,-0.805,-0.8694,-0.9337,-0.9962,-1.066,-1.1194,-1.159,-1.1878,-1.2175,-1.2467,-1.2662,-1.2958,-1.305,-1.3147,-1.3443,-1.3931,-1.3931,-1.4118,-1.4298,-1.4298,-1.4298,-1.4394,-1.4394,-1.4688,-1.5083,-1.5083,-1.5083,-1.5083,-1.5083,-1.5083,-1.5083,-1.5083,-1.4981,-1.479,-1.479,-1.4592,-1.44,-1.4437,-1.4527,-1.4775,0.7073,0.7111,0.7154,0.7154,0.7154,0.7046,0.6606,0.6386,0.6163,0.5603,0.5154,0.4817,0.448,0.3696,0.3027,0.2693,0.2357,0.2132,0.1795,0.1795,0.1795,0.1795,0.1234,0.0897,0.0785,0.0224,-0.0,-0.0,-0.0,-0.0,-0.0,-0.0,-0.0112,-0.0449,-0.1346,-0.1795,-0.1795,-0.1795,-0.1795,-0.1795,-0.1795,-0.1795,-0.1795,-0.1795,-0.202,-0.2244,-0.2581,-0.2917,-0.3362,-0.3362,-0.3474,-0.3587,-0.3587,-0.3587,-0.3699,-0.3924,-0.4099,-0.4358,-0.4596,-0.4829,-0.4949,-0.4857,-0.5037,-0.524,-0.5536,-0.5937,-0.6239,-0.6337,-0.664,-0.6807,-0.6771,-0.7009,-0.7141,-0.7078,-0.7584,-0.7912,-0.8083,-0.8706,-0.9386,-1.0149,-1.0844,-1.1292,-1.159,-1.1883,-1.2078,-1.237,-1.2667,-1.2861,-1.2958,-1.305,-1.3244,-1.3443,-1.3642,-1.3732,-1.3823,-1.3823,-1.3919,-1.4118,-1.4118,-1.4304,-1.4688,-1.4688,-1.4688,-1.4688,-1.4688,-1.4688,-1.4688,-1.4688,-1.4592,-1.4496,-1.4496,-1.4394,-1.4298,-1.4298,-1.4377,-1.4503]},{"header":{"parameterUnit":"m.s-1","parameterCategory":1,"la1":30.6,"la2":28.766,"lo1":-90.7593,"lo2":-88.6598,"dy":0.0162,"dx":0.0183,"nx":116,"ny":114,"refTime":"2023-05-16T12:00:00:Z","depth":0,"parameterNumber":3,"parameterNumberName":"V-component_of_WINDS"},"data":[0.0,0.0,0.0,0.0,0.0,0.0,0.0,0.0,0.0,0.0,0.0,0.0,0.0,0.0,0.0,0.0,0.0,0.0,0.0,0.0,0.0,0.0,0.0,0.0,0.0,0.0,0.0,0.0,0.0,0.0,0.0,0.0,0.0,0.0,0.0,0.0,0.0,0.0,0.0,0.0,0.0,0.0,0.0,0.0,0.0,0.0,0.0,0.0,0.0,0.0,0.0,0.0,0.0,0.0,0.0,0.0,0.0,0.0,0.0,0.0,0.0,0.0,0.0,0.0,0.0,0.0,0.0,0.0,0.0,0.0,0.0,0.0,0.0,0.0,0.0,0.0,0.0,0.0,0.0,0.0,0.0,0.0,0.0,0.0,0.0,0.0,0.0,0.0,0.0,0.0,0.0,0.0,0.0,0.0,0.0,0.0,0.0,0.0,0.0,0.0,0.0,0.0,0.0,0.0,0.0,0.0,0.0,0.0,0.0,0.0,0.0,0.0,0.0,0.0,0.0,0.0,0.0,0.0,0.0,0.0,0.0,0.0,0.0,0.0,0.0,0.0,0.0,0.0,0.0,0.0,0.0,0.0,0.0,0.0,0.0,0.0,0.0,0.0,0.0,0.0,0.0,0.0,0.0,0.0,0.0,0.0,0.0,0.0,0.0,0.0,0.0,0.0,0.0,0.0,0.0,0.0,0.0,0.0,0.0,0.0,0.0,0.0,0.0,0.0,0.0,0.0,0.0,0.0,0.0,0.0,0.0,0.0,0.0,0.0,0.0,0.0,0.0,0.0,0.0,0.0,0.0,0.0,0.0,0.0,0.0,0.0,0.0,0.0,0.0,0.0,0.0,0.0,0.0,0.0,0.0,0.0,0.0,0.0,0.0,0.0,0.0,0.0,0.0,0.0,0.0,0.0,0.0,0.0,0.0,0.0,0.0,0.0,0.0,0.0,0.0,0.0,0.0,0.0,0.0,0.0,0.0,0.0,0.0,0.0,0.0,0.0,0.0,0.0,0.0,0.0,0.0,0.0,0.0,0.0,0.0,0.0,0.0,0.0,0.0,0.0,0.0,0.0,0.0,0.0,0.0,0.0,0.0,0.0,0.0,0.0,0.0,0.0,0.0,0.0,0.0,0.0,0.0,0.0,0.0,0.0,0.0,0.0,0.0,0.0,0.0,0.0,0.0,0.0,0.0,0.0,0.0,0.0,0.0,0.0,0.0,0.0,0.0,0.0,0.0,0.0,0.0,0.0,0.0,0.0,0.0,0.0,0.0,0.0,0.0,0.0,0.0,0.0,0.0,0.0,0.0,0.0,0.0,0.0,0.0,0.0,0.0,0.0,0.0,0.0,0.0,0.0,0.0,0.0,0.0,0.0,0.0,0.0,0.0,0.0,0.0,0.0,0.0,0.0,0.0,0.0,0.0,0.0,0.0,0.0,0.0,0.0,0.0,0.0,0.0,0.0,0.0,0.0,0.0,0.0,0.0,0.0,0.0,0.0,0.0,0.0,0.0,0.0,0.0,0.0,0.0,0.0,0.0,0.0,0.0,0.0,0.0,0.0,0.0,0.0,0.0,0.0,0.0,0.0,0.0,0.0,0.0,0.0,0.0,0.0,0.0,0.0,0.0,0.0,0.0,0.0,0.0,0.0,0.0,0.0,0.0,0.0,0.0,0.0,0.0,0.0,0.0,0.0,0.0,0.0,0.0,0.0,0.0,0.0,0.0,0.0,0.0,0.0,0.0,0.0,0.0,0.0,0.0,0.0,0.0,0.0,0.0,0.0,0.0,0.0,0.0,0.0,0.0,0.0,0.0,0.0,0.0,0.0,0.0,0.0,0.0,0.0,0.0,0.0,0.0,0.0,0.0,0.0,0.0,0.0,0.0,0.0,0.0,0.0,0.0,0.0,0.0,0.0,0.0,0.0,0.0,0.0,0.0,0.0,0.0,0.0,0.0,0.0,0.0,0.0,0.0,0.0,0.0,0.0,0.0,0.0,0.0,0.0,0.0,0.0,0.0,0.0,0.0,0.0,0.0,0.0,0.0,0.0,0.0,0.0,0.0,0.0,0.0,0.0,0.0,0.0,0.0,0.0,0.0,0.0,0.0,0.0,0.0,0.0,0.0,0.0,0.0,0.0,0.0,0.0,0.0,0.0,0.0,0.0,0.0,0.0,0.0,0.0,0.0,0.0,0.0,0.0,0.0,0.0,0.0,0.0,0.0,0.0,0.0,0.0,0.0,0.0,0.0,0.0,0.0,0.0,0.0,0.0,0.0,0.0,0.0,0.0,0.0,0.0,0.0,0.0,0.0,0.0,0.0,0.0,0.0,0.0,0.0,0.0,0.0,0.0,0.0,0.0,0.0,0.0,0.0,0.0,0.0,0.0,0.0,0.0,0.0,0.0,0.0,0.0,0.0,0.0,0.0,0.0,0.0,0.0,0.0,0.0,0.0,0.0,0.0,0.0,0.0,0.0,0.0,0.0,0.0,0.0,0.0,0.0,0.0,0.0,0.0,0.0,0.0,0.0,0.0,0.0,0.0,0.0,0.0,0.0,0.0,0.0,0.0,0.0,0.0,0.0,0.0,0.0,0.0,0.0,0.0,0.0,0.0,0.0,0.0,0.0,0.0,0.0,0.0,0.0,0.0,0.0,0.0,0.0,0.0,0.0,0.0,0.0,0.0,0.0,0.0,0.0,0.0,0.0,0.0,0.0,0.0,0.0,0.0,0.0,0.0,0.0,0.0,0.0,0.0,0.0,0.0,0.0,0.0,0.0,0.0,0.0,0.0,0.0,0.0,0.0,0.0,0.0,0.0,0.0,0.0,0.0,0.0,0.0,0.0,0.0,0.0,0.0,0.0,0.0,0.0,0.0,0.0,0.0,0.0,0.0,0.0,0.0,0.0,0.0,0.0,0.0,0.0,0.0,0.0,0.0,0.0,0.0,0.0,0.0,0.0,0.0,0.0,0.0,0.0,0.0,0.0,0.0,0.0,0.0,0.0,0.0,0.0,0.0,0.0,0.0,0.0,0.0,0.0,0.0,0.0,0.0,0.0,0.0,0.0,0.0,0.0,0.0,0.0,0.0,0.0,0.0,0.0,0.0,0.0,0.0,0.0,0.0,0.0,0.0,0.0,0.0,0.0,0.0,0.0,0.0,0.0,0.0,0.0,0.0,0.0,0.0,0.0,0.0,0.0,0.0,0.0,0.0,0.0,0.0,0.0,0.0,0.0,0.0,0.0,0.0,0.0,0.0,0.0,0.0,0.0,0.0,0.0,0.0,0.0,0.0,0.0,0.0,0.0,0.0,0.0,0.0,0.0,0.0,0.0,0.0,0.0,0.0,0.0,0.0,0.0,0.0,0.0,0.0,0.0,0.0,0.0,0.0,0.0,0.0,0.0,0.0,0.0,0.0,0.0,0.0,0.0,0.0,0.0,0.0,0.0,0.0,0.0,0.0,0.0,0.0,0.0,0.0,0.0,0.0,0.0,0.0,0.0,0.0,0.0,0.0,0.0,0.0,0.0,0.0,0.0,0.0,0.0,0.0,0.0,0.0,0.0,0.0,0.0,0.0,0.0,0.0,0.0,0.0,0.0,0.0,0.0,0.0,0.0,0.0,0.0,0.0,0.0,0.0,0.0,0.0,0.0,0.0,0.0,0.0,0.0,0.0,0.0,0.0,0.0,0.0,0.0,0.0,0.0,0.0,0.0,0.0,0.0,0.0,0.0,0.0,0.0,0.0,0.0,0.0,0.0,0.0,0.0,0.0,0.0,0.0,0.0,0.0,0.0,0.0,0.0,0.0,0.0,0.0,0.0,0.0,0.0,0.0,0.0,0.0,0.0,0.0,0.0,0.0,0.0,0.0,0.0,0.0,0.0,0.0,0.0,0.0,0.0,0.0,0.0,0.0,0.0,0.0,0.0,0.0,0.0,0.0,0.0,0.0,0.0,0.0,0.0,0.0,0.0,0.0,0.0,0.0,0.0,0.0,0.0,0.0,0.0,0.0,0.0,0.0,0.0,0.0,0.0,0.0,0.0,0.0,0.0,0.0,0.0,0.0,0.0,0.0,0.0,0.0,0.0,0.0,0.0,0.0,0.0,0.0,0.0,0.0,0.0,0.0,0.0,0.0,0.0,0.0,0.0,0.0,0.0,0.0,0.0,0.0,0.0,0.0,0.0,0.0,0.0,0.0,0.0,0.0,0.0,0.0,0.0,0.0,0.0,0.0,0.0,0.0,0.0,0.0,0.0,0.0,0.0,0.0,0.0,0.0,0.0,0.0,0.0,0.0,0.0,0.0,0.0,0.0,0.0,0.0,0.0,0.0,0.0,0.0,0.0,0.0,0.0,0.0,0.0,0.0,0.0,0.0,0.0,0.0,0.0,0.0,0.0,0.0,0.0,0.0,0.0,0.0,0.0,0.0,0.0,0.0,0.0,0.0,0.0,0.0,0.0,0.0,0.0,0.0,0.0,0.0,0.0,0.0,0.0,0.0,0.0,0.0,0.0,0.0,0.0,0.0,0.0,0.0,0.0,0.0,0.0,0.0,0.0,0.0,0.0,0.0,0.0,0.0,0.0,0.0,0.0,0.0,0.0,0.0,0.0,0.0,0.0,0.0,0.0,0.0,0.0,0.0,0.0,0.0,0.0,0.0,0.0,0.0,0.0,0.0,0.0,0.0,0.0,0.0,0.0,0.0,0.0,0.0,0.0,0.0,0.0,0.0,0.0,0.0,0.0,0.0,0.0,0.0,0.0,0.0,0.0,0.0,0.0,0.0,0.0,0.0,0.0,0.0,0.0,0.0,0.0,0.0,0.0,0.0,0.0,0.0,0.0,0.0,0.0,0.0,0.0,0.0,0.0,0.0,0.0,0.0,0.0,0.0,0.0,0.0,0.0,0.0,0.0,0.0,0.0,0.0,0.0,0.0,0.0,0.0,0.0,0.0,0.0,0.0,0.0,0.0,0.0,0.0,0.0,0.0,0.0,0.0,0.0,0.0,0.0,0.0,0.0,0.0,0.0,0.0,0.0,0.0,0.0,0.0,0.0,0.0,0.0,0.0,0.0,0.0,0.0,0.0,0.0,0.0,0.0,0.0,0.0,0.0,0.0,0.0,0.0,0.0,0.0,0.0,0.0,0.0,0.0,0.0,0.0,0.0,0.0,0.0,0.0,0.0,0.0,0.0,0.0,0.0,0.0,0.0,0.0,0.0,0.0,0.0,0.0,0.0,0.0,0.0,0.0,0.0,0.0,0.0,0.0,0.0,0.0,0.0,0.0,0.0,0.0,0.0,0.0,0.0,0.0,0.0,0.0,0.0,0.0,0.0,0.0,0.0,0.0,0.0,0.0,0.0,0.0,0.0,0.0,0.0,0.0,0.0,0.0,0.0,0.0,0.0,0.0,0.0,0.0,0.0,0.0,0.0,0.0,0.0,0.0,0.0,0.0,0.0,0.0,0.0,0.0,0.0,0.0,0.0,0.0,0.0,0.0,0.0,0.0,0.0,0.0,0.0,0.0,0.0,0.0,0.0,0.0,0.0,0.0,0.0,0.0,0.0,0.0,0.0,0.0,0.0,0.0,0.0,0.0,0.0,0.0,0.0,0.0,0.0,0.0,0.0,0.0,0.0,0.0,0.0,0.0,0.0,0.0,0.0,0.0,0.0,0.0,0.0,0.0,0.0,0.0,0.0,0.0,0.0,0.0,0.0,0.0,0.0,0.0,0.0,0.0,0.0,0.0,0.0,0.0,0.0,0.0,0.0,0.0,0.0,0.0,0.0,0.0,0.0,0.0,0.0,0.0,0.0,0.0,0.0,0.0,0.0,0.0,0.0,0.0,0.0,0.0,0.0,0.0,0.0,0.0,0.0,0.0,0.0,0.0,0.0,0.0,0.0,0.0,0.0,0.0,0.0,0.0,0.0,0.0,0.0,0.0,0.0,0.0,0.0,0.0,0.0,0.0,0.0,0.0,0.0,0.0,0.0,0.0,0.0,0.0,0.0,0.0,0.0,0.0,0.0,0.0,0.0,0.0,0.0,0.0,0.0,0.0,0.0,0.0,0.0,0.0,0.0,0.0,0.0,0.0,0.0,0.0,0.0,0.0,0.0,0.0,0.0,-1.8304,-1.7522,0.0,0.0,0.0,0.0,0.0,0.0,0.0,0.0,0.0,0.0,0.0,0.0,0.0,0.0,0.0,0.0,0.0,0.0,0.0,0.0,0.0,0.0,0.0,0.0,0.0,0.0,0.0,0.0,0.0,0.0,0.0,0.0,0.0,0.0,0.0,0.0,0.0,0.0,0.0,0.0,0.0,0.0,0.0,0.0,0.0,0.0,0.0,0.0,0.0,0.0,0.0,0.0,0.0,0.0,0.0,0.0,0.0,0.0,0.0,0.0,0.0,0.0,0.0,0.0,0.0,0.0,0.0,0.0,0.0,0.0,0.0,0.0,0.0,0.0,0.0,0.0,0.0,0.0,0.0,0.0,0.0,0.0,0.0,0.0,0.0,0.0,0.0,0.0,0.0,0.0,0.0,0.0,0.0,0.0,0.0,0.0,0.0,0.0,0.0,0.0,0.0,0.0,0.0,0.0,0.0,0.0,0.0,0.0,0.0,0.0,0.0,0.0,0.0,0.0,-2.0889,-1.9869,0.0,0.0,0.0,0.0,0.0,0.0,0.0,0.0,0.0,0.0,0.0,0.0,0.0,0.0,0.0,0.0,0.0,0.0,0.0,0.0,0.0,0.0,0.0,0.0,0.0,0.0,0.0,0.0,0.0,0.0,0.0,0.0,0.0,0.0,0.0,0.0,0.0,0.0,0.0,0.0,0.0,0.0,0.0,0.0,0.0,0.0,0.0,0.0,0.0,0.0,0.0,0.0,0.0,0.0,0.0,0.0,0.0,0.0,0.0,0.0,0.0,0.0,0.0,0.0,0.0,0.0,0.0,0.0,0.0,0.0,0.0,0.0,0.0,0.0,0.0,0.0,0.0,0.0,0.0,0.0,0.0,0.0,0.0,0.0,0.0,0.0,0.0,0.0,0.0,0.0,0.0,0.0,0.0,0.0,0.0,0.0,0.0,0.0,0.0,0.0,0.0,0.0,0.0,0.0,0.0,0.0,0.0,0.0,-2.4038,-2.4436,-2.5136,-2.5152,-2.5589,-2.6231,-2.4053,-2.3065,-2.2948,-2.2811,0.0,0.0,0.0,0.0,0.0,0.0,0.0,0.0,0.0,0.0,0.0,0.0,0.0,0.0,0.0,0.0,0.0,0.0,0.0,0.0,0.0,0.0,0.0,0.0,0.0,0.0,0.0,0.0,0.0,0.0,0.0,0.0,0.0,0.0,0.0,0.0,0.0,0.0,-1.8989,-1.9019,-1.9003,-1.8899,0.0,0.0,0.0,0.0,0.0,0.0,0.0,0.0,0.0,0.0,0.0,0.0,0.0,0.0,0.0,0.0,0.0,0.0,0.0,0.0,0.0,0.0,0.0,0.0,0.0,0.0,0.0,0.0,0.0,0.0,0.0,0.0,0.0,0.0,0.0,0.0,0.0,0.0,0.0,0.0,0.0,0.0,0.0,0.0,-1.4648,-1.4965,0.0,0.0,0.0,0.0,0.0,0.0,0.0,0.0,0.0,0.0,0.0,0.0,0.0,-2.3253,-2.4149,-2.4854,-2.5669,-2.6597,-2.6666,-2.6773,-2.6866,-2.693,-2.71,-2.7308,-2.6953,0.0,-2.554,-2.4847,0.0,0.0,0.0,0.0,0.0,0.0,0.0,0.0,0.0,0.0,0.0,0.0,0.0,0.0,0.0,0.0,0.0,0.0,0.0,0.0,0.0,0.0,0.0,0.0,0.0,0.0,0.0,0.0,0.0,0.0,0.0,0.0,0.0,0.0,0.0,0.0,-1.8336,-1.8745,-1.9244,-1.986,-2.0217,-2.0201,-1.9362,-1.9022,-1.9009,-1.8461,0.0,0.0,0.0,0.0,0.0,0.0,0.0,0.0,0.0,0.0,0.0,0.0,0.0,0.0,0.0,0.0,0.0,0.0,0.0,0.0,0.0,0.0,0.0,0.0,0.0,0.0,0.0,0.0,0.0,0.0,0.0,0.0,0.0,0.0,0.0,0.0,0.0,0.0,0.0,-1.5103,-1.5973,-1.6586,-1.7185,-1.7783,0.0,0.0,0.0,0.0,0.0,0.0,0.0,0.0,0.0,-2.3822,-2.4727,-2.5412,-2.5838,-2.6318,-2.7211,-2.8558,-2.8628,-2.9168,-3.0107,-3.0158,-3.0227,-3.0364,-3.0377,-3.0129,-2.9585,-2.7343,-2.6412,-2.6382,0.0,0.0,0.0,0.0,-2.543,-2.5423,0.0,0.0,0.0,0.0,0.0,0.0,0.0,0.0,0.0,0.0,0.0,0.0,0.0,0.0,0.0,-1.3331,0.0,0.0,0.0,0.0,0.0,0.0,0.0,0.0,0.0,0.0,0.0,0.0,-1.978,-1.9723,-1.9924,-2.0793,-2.1214,-2.123,-2.1164,-2.0751,-2.0081,-1.9807,-1.9563,0.0,0.0,0.0,0.0,0.0,0.0,0.0,0.0,0.0,0.0,0.0,0.0,0.0,0.0,0.0,0.0,0.0,0.0,0.0,0.0,0.0,0.0,0.0,0.0,0.0,0.0,0.0,0.0,0.0,0.0,0.0,0.0,0.0,0.0,0.0,0.0,0.0,0.0,-1.6476,-1.7434,-1.8399,-1.9144,-1.9876,0.0,0.0,0.0,0.0,0.0,0.0,-2.3637,-2.4368,-2.513,-2.5831,-2.697,-2.7587,-2.7606,-2.8183,-2.9118,-3.0395,-3.0429,-3.1159,-3.2422,-3.2439,-3.2509,-3.2629,-3.2641,-3.2653,-3.2492,-2.9966,-2.8921,-2.8911,-2.8695,-2.8645,-2.8683,-2.8466,-2.8394,-2.8391,0.0,0.0,0.0,0.0,0.0,0.0,0.0,0.0,0.0,0.0,0.0,0.0,0.0,0.0,-1.4873,-1.4808,-1.5384,-1.5761,0.0,0.0,0.0,0.0,0.0,0.0,0.0,0.0,0.0,-2.1117,-2.0847,-2.1264,-2.2331,-2.2313,-2.2254,-2.2125,-2.2125,-2.1768,-2.1036,-1.9767,-1.9382,-1.9588,0.0,0.0,0.0,0.0,0.0,0.0,0.0,0.0,0.0,0.0,0.0,0.0,0.0,0.0,0.0,0.0,0.0,0.0,0.0,0.0,0.0,0.0,0.0,0.0,0.0,0.0,0.0,0.0,0.0,0.0,0.0,0.0,0.0,0.0,0.0,0.0,0.0,0.0,0.0,-2.0339,-2.0563,0.0,0.0,0.0,0.0,-2.3569,-2.5175,-2.6179,-2.63,-2.6537,-2.6709,-2.6841,-2.8483,-2.9439,-2.957,-3.1148,-3.2053,-3.2277,-3.2256,-3.2346,-3.2492,-3.2556,-3.2622,-3.2688,-3.2752,-3.2842,-3.2878,-3.2637,-3.2551,-3.2455,-3.1699,-3.1399,-3.1315,-3.0544,-3.0252,-3.0265,0.0,0.0,0.0,0.0,0.0,0.0,0.0,0.0,0.0,0.0,0.0,0.0,0.0,-1.4581,-1.502,-1.5379,-1.6043,-1.6427,-1.6387,0.0,0.0,0.0,0.0,0.0,0.0,0.0,-2.1095,-2.1793,-2.1881,-2.2103,-2.2377,-2.267,-2.2751,-2.2696,-2.2696,-2.2593,-2.2372,-2.1689,-2.1087,-2.0573,-2.0776,-2.0135,0.0,0.0,0.0,0.0,0.0,0.0,0.0,0.0,0.0,0.0,0.0,0.0,0.0,0.0,0.0,0.0,0.0,0.0,0.0,0.0,0.0,0.0,0.0,0.0,0.0,0.0,0.0,0.0,0.0,0.0,0.0,0.0,0.0,0.0,0.0,0.0,0.0,-2.1452,-2.2167,0.0,-2.3512,-2.4679,-2.5426,-2.5491,-2.6209,-2.6903,-2.75,-2.8161,-2.88,-2.938,-3.0602,-3.128,-3.1356,-3.2014,-3.2673,-3.3313,-3.3327,-3.368,-3.4227,-3.4312,-3.4374,-3.4434,-3.4515,-3.4537,-3.4571,-3.4597,-3.3936,-3.2897,-3.2613,-3.2521,-3.2524,-3.2231,-3.2155,-3.2213,0.0,0.0,0.0,0.0,0.0,0.0,0.0,0.0,0.0,0.0,0.0,-1.4506,-1.486,-1.5263,-1.5635,-1.6013,-1.6923,-1.7456,-1.7384,0.0,0.0,0.0,0.0,0.0,0.0,-2.176,-2.2178,-2.2639,-2.2764,-2.2964,-2.3213,-2.3492,-2.3701,-2.387,-2.387,-2.3912,-2.3967,-2.3529,-2.2645,-2.1597,-2.1858,-2.1241,-2.0185,0.0,0.0,0.0,0.0,0.0,0.0,0.0,0.0,0.0,0.0,0.0,0.0,0.0,0.0,0.0,0.0,0.0,0.0,0.0,0.0,0.0,0.0,0.0,0.0,0.0,0.0,0.0,0.0,0.0,0.0,0.0,0.0,0.0,0.0,-2.094,-2.1935,-2.2954,-2.3925,-2.4765,-2.5481,-2.6395,-2.7068,-2.7411,-2.7853,-2.8513,-2.9373,-3.0075,-3.0715,-3.1298,-3.2241,-3.2751,-3.2807,-3.3143,-3.3631,-3.4272,-3.4626,-3.5092,-3.5729,-3.6067,-3.6243,-3.6309,-3.6375,-3.6408,-3.6407,-3.6485,-3.5828,-3.4723,-3.4135,-3.3933,-3.3973,-3.3993,-3.4038,-3.412,0.0,0.0,0.0,0.0,0.0,0.0,0.0,0.0,0.0,0.0,-1.4672,-1.506,-1.4931,-1.6123,-1.6853,-1.6796,-1.8013,-1.8766,-1.8743,-1.9402,0.0,0.0,0.0,0.0,-2.2525,-2.2935,-2.3338,-2.3716,-2.3491,-2.3917,-2.5014,-2.4896,-2.5107,-2.5615,-2.5615,-2.5661,-2.5725,-2.5122,-2.3973,-2.2609,-2.2896,-2.2321,-2.1279,0.0,0.0,0.0,0.0,0.0,0.0,0.0,0.0,0.0,0.0,0.0,0.0,0.0,0.0,0.0,0.0,0.0,0.0,0.0,0.0,0.0,0.0,0.0,0.0,0.0,0.0,0.0,0.0,0.0,0.0,0.0,0.0,0.0,-2.2157,-2.2909,-2.3835,-2.4928,-2.5819,-2.6425,-2.6618,-2.7506,-2.8458,-2.9289,-3.023,-3.1117,-3.195,-3.2222,-3.2355,-3.2336,-3.3315,-3.384,-3.3859,-3.4708,-3.5196,-3.5248,-3.6119,-3.6619,-3.6767,-3.7623,-3.8045,-3.8106,-3.8182,-3.8199,-3.8216,-3.8287,-3.8297,-3.8141,-3.6445,-3.5786,-3.5795,-3.586,-3.5889,-3.6009,0.0,0.0,0.0,0.0,0.0,0.0,0.0,0.0,0.0,0.0,-1.4644,-1.5172,-1.5592,-1.6392,-1.7279,-1.82,-1.8603,-1.8959,-1.941,0.0,0.0,0.0,0.0,0.0,-2.3139,-2.3638,-2.4068,-2.4437,-2.4725,-2.5167,-2.5743,-2.5606,-2.5559,-2.5615,-2.5615,-2.5615,-2.5661,-2.5583,-2.5047,-2.4234,-2.3559,-2.2976,-2.2426,0.0,0.0,0.0,0.0,0.0,0.0,0.0,0.0,0.0,0.0,0.0,0.0,0.0,0.0,0.0,0.0,0.0,0.0,0.0,0.0,0.0,0.0,0.0,0.0,0.0,0.0,0.0,0.0,0.0,0.0,0.0,-2.259,-2.3318,-2.3209,-2.4028,-2.4998,-2.5969,-2.6921,-2.7588,-2.7751,-2.9074,-3.0105,-3.043,-3.1336,-3.1958,-3.2184,-3.2976,-3.3389,-3.3386,-3.4255,-3.48,-3.4885,-3.5752,-3.622,-3.6305,-3.7171,-3.7632,-3.7706,-3.8016,-3.815,-3.8183,-3.8236,-3.8267,-3.8278,-3.8343,-3.8369,-3.8327,-3.7841,-3.7658,-3.7666,-3.7735,-3.7759,-3.78,0.0,0.0,0.0,0.0,0.0,0.0,0.0,0.0,0.0,0.0,-1.5137,-1.5783,-1.639,-1.7033,-1.7834,-1.8863,-1.9157,-1.9563,-2.0257,0.0,0.0,0.0,0.0,-2.36,-2.3794,-2.4607,-2.5076,-2.5108,-2.5641,-2.6103,-2.6489,-2.638,-2.6391,-2.6597,-2.6597,-2.6597,-2.6612,-2.6389,-2.6153,-2.5817,-2.4635,-2.3788,-2.3169,-2.2528,-2.2224,-2.2021,-2.0717,-2.0397,-2.0334,-1.896,0.0,0.0,0.0,0.0,0.0,0.0,0.0,0.0,0.0,0.0,0.0,0.0,0.0,0.0,0.0,0.0,0.0,0.0,0.0,0.0,0.0,0.0,0.0,0.0,-2.4151,-2.5108,-2.5394,-2.5917,-2.6499,-2.7145,-2.8359,-2.9187,-2.9363,-3.0584,-3.1543,-3.1996,-3.2599,-3.3089,-3.3449,-3.4067,-3.4435,-3.4429,-3.5299,-3.5806,-3.5887,-3.6752,-3.7219,-3.7299,-3.8169,-3.8627,-3.8709,-3.91,-3.9301,-3.9335,-3.9364,-3.9412,-3.9427,-3.9478,-3.9519,-3.9468,0.0,0.0,0.0,0.0,-3.8502,-3.8551,0.0,0.0,0.0,0.0,0.0,0.0,0.0,0.0,0.0,0.0,0.0,-1.6483,-1.7021,-1.7755,-1.8444,-1.899,-1.9661,-2.0373,0.0,0.0,0.0,-2.3007,-2.4164,-2.4743,-2.4531,-2.5639,-2.6072,-2.5873,-2.6311,-2.6811,-2.7347,-2.7189,-2.7461,-2.802,-2.802,-2.7985,-2.7985,-2.739,-2.7175,-2.7139,-2.5925,-2.4779,-2.3834,-2.3856,-2.3602,-2.3067,-2.1939,-2.1614,-2.1519,-2.024,0.0,0.0,0.0,0.0,0.0,0.0,0.0,0.0,0.0,0.0,0.0,0.0,0.0,0.0,0.0,0.0,0.0,0.0,0.0,0.0,0.0,0.0,0.0,0.0,-2.5735,-2.7149,-2.7929,-2.8167,-2.8322,-2.8463,-2.983,-3.0864,-3.1148,-3.1938,-3.2786,-3.3582,-3.3838,-3.4304,-3.5089,-3.534,0.0,0.0,0.0,-3.6853,-3.6862,-3.7731,-3.8196,-3.8273,-3.9148,-3.9603,-3.968,-4.0469,-4.0849,-4.0906,-4.0904,-4.0945,-4.1013,-4.1007,-4.1058,-4.0953,-3.9394,-3.8795,-3.8785,-3.8793,-3.8786,-3.8906,0.0,0.0,0.0,0.0,0.0,0.0,0.0,0.0,0.0,-1.4333,-1.5478,-1.6322,-1.6396,-1.7528,-1.8558,-1.925,-1.9893,-2.0773,0.0,0.0,-2.3421,-2.3752,-2.4496,-2.5026,-2.5352,-2.5958,-2.6417,-2.6761,-2.7337,-2.7798,-2.8163,-2.8148,-2.8079,-2.802,-2.802,-2.802,-2.797,-2.7845,-2.7643,-2.7332,-2.7103,-2.6284,-2.5176,-2.4076,-2.3806,-2.3882,-2.3106,-2.2653,-2.2277,-2.1439,-2.0953,-2.0602,-1.9925,0.0,0.0,0.0,0.0,0.0,0.0,0.0,0.0,0.0,0.0,0.0,0.0,0.0,0.0,0.0,0.0,0.0,0.0,0.0,0.0,-2.6108,-2.7192,-2.7997,-2.8278,-2.957,-3.0434,-3.0319,-3.0716,-3.1299,-3.2051,-3.2971,-3.3606,-3.3824,-3.456,-3.5085,-3.5235,-3.6002,-3.6459,-3.6516,-3.7379,-3.7848,-3.7906,-3.8779,-3.9209,-3.924,-4.0176,0.0,-4.0636,-4.08,-4.0913,-4.0972,-4.0986,-4.1026,-4.1089,-4.1075,-4.109,-4.1062,-4.0723,-4.0594,-4.0603,-4.0605,-4.0605,-4.0617,0.0,0.0,0.0,0.0,0.0,0.0,0.0,0.0,0.0,0.0,-1.5729,-1.6509,-1.6817,-1.7803,-1.8726,-1.9447,-2.0408,0.0,0.0,-2.3401,-2.4028,-2.4242,-2.5095,-2.5628,-2.5749,-2.6557,-2.6981,-2.6993,-2.8005,-2.8529,-2.8604,-2.8604,-2.8556,-2.8411,-2.8427,-2.8378,-2.8378,-2.8378,-2.8307,-2.8062,-2.7767,-2.7125,-2.6267,-2.5199,-2.4705,-2.4541,-2.4023,-2.3772,-2.3538,-2.2536,-2.2185,-2.1961,-2.094,-2.0739,-2.0776,0.0,0.0,0.0,0.0,0.0,0.0,0.0,0.0,0.0,0.0,0.0,0.0,0.0,0.0,-2.4172,-2.5217,0.0,-2.6891,-2.7474,-2.8727,-2.9664,-2.9738,-3.0973,-3.165,-3.1072,-3.1861,-3.265,-3.3123,-3.4004,-3.4557,-3.46,-3.5484,-3.6027,-3.6045,-3.6947,-3.7482,-3.7506,-3.8361,-3.8829,-3.8894,-3.9769,-4.0208,-4.0218,-4.0684,-4.0926,-4.0941,-4.0945,-4.0986,-4.1071,-4.1512,-4.1724,-4.1779,-4.222,-4.2396,-4.2402,-4.2401,-4.1871,-4.109,-4.1105,-4.1094,-4.1097,0.0,0.0,0.0,0.0,0.0,0.0,0.0,0.0,0.0,0.0,-1.5868,-1.6566,-1.7238,-1.7986,-1.8744,0.0,0.0,0.0,0.0,-2.3705,-2.4479,-2.4509,-2.548,-2.6019,-2.597,-2.6964,-2.7355,-2.7121,-2.8345,-2.8949,-2.8889,-2.8873,-2.8826,-2.8842,-2.8826,-2.8794,-2.8826,-2.8826,-2.8873,-2.8857,-2.8399,-2.7762,-2.7074,-2.6586,-2.5879,-2.5121,-2.4883,-2.4827,-2.4742,-2.3702,-2.3402,-2.3248,-2.2136,-2.1833,-2.1752,-2.1144,-2.1013,0.0,0.0,0.0,0.0,0.0,0.0,0.0,0.0,0.0,-2.3324,-2.433,-2.5065,-2.5823,-2.6893,-2.7678,-2.8296,-2.8746,-3.0113,-3.1182,-3.137,-3.2245,-3.2594,-3.1844,-3.2978,-3.3925,-3.4158,-3.4882,-3.5411,-3.5585,-3.6309,-3.6845,-3.7063,-3.795,-3.8462,-3.8479,-3.9323,-3.979,-3.9859,-4.0558,-4.0917,-4.0921,-4.0929,-4.0972,-4.1039,-4.1188,-4.1304,-4.1398,-4.2275,-4.2659,-4.2711,-4.3417,-4.3709,-4.3707,-4.3697,-4.283,-4.1596,-4.1597,-4.1598,-4.1582,0.0,0.0,0.0,0.0,0.0,0.0,0.0,0.0,0.0,0.0,0.0,0.0,0.0,0.0,0.0,0.0,0.0,0.0,-2.1781,-2.3171,-2.4162,-2.4567,-2.5094,-2.5646,-2.6168,-2.6515,-2.7017,-2.7623,-2.8201,-2.8729,-2.9259,-2.9121,-2.8982,-2.8873,-2.8826,-2.8826,-2.8873,-2.8873,-2.9013,-2.9243,-2.93,-2.8558,-2.7458,-2.7672,-2.6889,-2.561,-2.5709,-2.5537,-2.5213,-2.5079,-2.438,-2.3574,-2.3543,-2.3162,-2.2666,-2.2101,0.0,-2.1848,-2.1304,-2.1267,-2.1545,-2.2267,-2.2488,-2.291,0.0,0.0,-2.5207,-2.6276,-2.6556,-2.693,-2.7941,-2.826,-2.8876,-3.0433,-3.0973,-3.1474,-3.2317,-3.3236,-3.383,-3.3776,-3.3895,-3.4286,-3.5059,-3.5354,-3.5795,-3.6562,-3.6781,-3.7223,-3.8005,-3.8891,-3.937,-3.9442,-4.0286,-4.0752,-4.074,-4.0918,-4.0999,-4.0979,-4.1052,-4.1089,-4.1109,-4.19,-4.2242,-4.2299,-4.3178,-4.3554,-4.3554,-4.3667,-4.369,-4.3708,-4.3704,-4.3532,-4.3325,-4.3317,-4.3331,-4.3312,0.0,0.0,0.0,0.0,0.0,0.0,0.0,0.0,0.0,0.0,0.0,0.0,0.0,0.0,0.0,0.0,0.0,0.0,-2.1914,-2.3282,-2.4118,-2.4167,-2.506,-2.5597,-2.5731,-2.6541,-2.7054,-2.7248,-2.8181,-2.8705,-2.8894,-2.9175,-2.9275,-2.9245,-2.9231,-2.9215,-2.9229,-2.9348,-2.9438,-2.9531,-2.9798,-2.9095,-2.7891,-2.8229,-2.7507,-2.6332,-2.633,-2.6252,0.0,0.0,-2.5493,-2.5057,-2.4356,-2.3998,-2.3721,-2.314,-2.2999,0.0,-2.2826,-2.3161,-2.3656,-2.4083,-2.4543,-2.5113,-2.5894,-2.6103,-2.6403,-2.7357,-2.7603,-2.796,-2.8933,-2.9586,-3.024,-3.1042,-3.2126,-3.2969,-3.3425,-3.427,-3.488,-3.4916,-3.4924,-3.5064,-3.5383,-3.5957,-3.6472,-3.6822,-3.7812,-3.8593,-3.8986,-3.983,-4.0345,-4.041,-4.0766,-4.0957,-4.096,-4.1026,-4.1064,-4.107,-4.1607,-4.1852,-4.1896,-4.2759,-4.3427,-4.394,-4.4297,-4.4742,-4.5213,-4.5207,-4.5187,-4.5142,-4.5144,-4.5105,-4.4935,-4.3955,-4.3591,-4.358,0.0,0.0,0.0,0.0,0.0,0.0,0.0,0.0,0.0,0.0,0.0,0.0,0.0,0.0,0.0,0.0,0.0,0.0,0.0,-2.297,-2.3727,-2.3962,-2.4722,0.0,-2.5494,-2.628,-2.6776,-2.6984,-2.7891,-2.8387,-2.8456,-2.8844,-2.9127,-2.9335,-2.9291,-2.9403,-2.9624,-2.975,-2.968,-2.9594,-2.9894,-2.9213,-2.8009,-2.833,-2.786,-2.6939,-2.6791,-2.6858,0.0,0.0,-2.6516,-2.6304,-2.5428,-2.491,-2.4521,-2.4136,-2.4046,-2.419,-2.4517,-2.5051,-2.5549,-2.5654,-2.6156,-2.6675,-2.6997,-2.7152,-2.7473,-2.8351,-2.8633,-2.8932,-2.9622,-3.0519,-3.1265,-3.1641,-3.2997,-3.4125,-3.4443,-3.507,-3.5509,-3.5521,-3.5601,-3.5709,-3.59,-3.6528,-3.7127,-3.7617,-3.881,-3.9655,-3.9945,-4.0576,-4.0952,-4.0991,-4.1006,-4.1007,-4.1025,-4.1081,-4.1228,-4.1471,-4.21,-4.2533,-4.2795,-4.3665,-4.4526,-4.5368,-4.5367,-4.5724,-4.6294,-4.6284,-4.6234,-4.6196,-4.6169,-4.6127,-4.5927,-4.4717,-4.4273,-4.4248,0.0,0.0,0.0,0.0,0.0,0.0,0.0,0.0,0.0,0.0,0.0,0.0,0.0,0.0,0.0,0.0,0.0,0.0,0.0,-2.1839,-2.2729,-2.4043,-2.3895,-2.4389,-2.5654,-2.5479,-2.5962,-2.7172,-2.7147,-2.7449,-2.8003,-2.7899,-2.8249,-2.8916,-2.8757,-2.9205,-2.9989,-2.9973,-2.9695,-2.9231,-2.9433,-2.8748,-2.7664,-2.8066,-2.7853,-2.7365,-2.7149,0.0,0.0,0.0,-2.73,-2.6899,-2.6994,-2.6056,0.0,-2.5012,-2.5099,-2.5345,-2.6179,-2.6481,-2.656,-2.6641,-2.6723,-2.7006,-2.7863,-2.8146,-2.8521,-2.9458,-2.9718,-2.9787,-2.9872,-3.0652,-3.1584,-3.2516,-3.347,-3.4424,-3.5339,-3.5483,-3.5519,-3.5596,-3.5667,-3.6038,-3.6861,-3.6978,-3.7695,-3.9393,-3.9567,-3.9974,-4.0827,-4.0941,-4.0991,-4.1007,-4.0987,-4.1025,-4.1091,-4.1105,-4.1523,-4.2358,-4.2393,-4.2845,-4.3687,-4.4569,-4.5445,-4.6261,-4.6269,-4.6279,-4.6294,-4.6235,-4.6203,-4.6196,-4.6138,-4.6066,-4.6007,-4.5949,-4.5929,-4.5919,0.0,0.0,0.0,0.0,0.0,0.0,0.0,0.0,0.0,0.0,0.0,0.0,0.0,0.0,0.0,0.0,0.0,0.0,0.0,-2.1634,-2.2442,-2.277,-2.3493,-2.4085,-2.443,-2.4659,-2.521,-2.6151,-2.641,-2.6879,-2.7476,-2.7892,-2.8132,-2.831,-2.8265,-2.8436,-2.8808,-2.886,-2.8857,-2.8821,-2.9127,-2.874,-2.8083,-2.8416,-2.8246,-2.7811,0.0,0.0,0.0,0.0,0.0,-2.7885,-2.7488,-2.7037,-2.6558,-2.6191,-2.6151,-2.6266,-2.6604,-2.7124,-2.7532,-2.7616,-2.8046,-2.857,-2.9006,-2.9158,-2.9326,-2.9681,-2.9859,-3.0127,-3.0776,-3.166,-3.2589,-3.3541,-3.4449,-3.5149,-3.5519,-3.5604,-3.5667,-3.5718,-3.6251,-3.6957,-3.7847,-3.7927,-3.8403,-3.9585,-4.0205,-4.0657,-4.0948,-4.0993,-4.1026,-4.1061,-4.1072,-4.1354,-4.1963,-4.196,-4.2393,-4.3271,-4.3841,-4.4587,-4.5446,-4.5722,-4.6022,-4.6303,-4.6299,-4.627,-4.6234,-4.6209,-4.6162,-4.613,-4.6066,-4.6026,-4.5983,-4.5949,-4.5912,-4.5848,0.0,0.0,0.0,0.0,0.0,0.0,0.0,0.0,0.0,0.0,0.0,0.0,0.0,0.0,0.0,0.0,0.0,0.0,0.0,0.0,-2.1732,-2.2154,-2.2849,-2.3432,-2.3853,-2.4115,-2.4567,-2.522,-2.5514,-2.5947,-2.6521,-2.6932,-2.7379,-2.7836,-2.7793,-2.798,-2.8365,-2.8443,-2.8419,-2.839,-2.8694,-2.851,-2.8115,-2.8408,-2.8227,0.0,0.0,0.0,0.0,0.0,-2.8612,-2.8621,-2.8213,-2.7894,-2.761,-2.7206,-2.7122,-2.7237,-2.7592,-2.8077,-2.8468,-2.8552,-2.9021,-2.9472,-2.9607,-2.9719,-2.979,-2.9859,-2.9991,-3.0251,-3.0892,-3.2004,-3.3044,-3.3667,-3.4762,-3.5554,-3.5629,-3.5689,-3.5747,-3.5782,-3.6584,-3.7491,-3.835,-3.8712,-3.9256,-4.0101,-4.068,-4.1013,-4.1025,-4.1045,-4.1198,-4.1549,-4.1558,-4.1972,-4.2854,-4.2871,-4.3308,-4.4171,-4.5058,-4.5758,-4.6305,-4.63,-4.6303,-4.6294,-4.6275,-4.624,-4.6196,-4.6169,-4.6111,-4.6066,-4.6026,-4.5983,-4.5956,-4.5887,-4.5833,-4.5805,0.0,0.0,0.0,0.0,0.0,0.0,0.0,0.0,0.0,0.0,0.0,0.0,0.0,0.0,0.0,0.0,0.0,0.0,0.0,0.0,0.0,-2.2121,-2.197,-2.2485,-2.385,-2.3749,-2.3939,-2.4458,-2.4458,-2.4753,-2.5246,-2.518,-2.5932,-2.732,-2.7244,-2.7664,-2.839,-2.8555,-2.8262,-2.7777,-2.8047,-2.7938,-2.7637,-2.7966,0.0,0.0,0.0,0.0,0.0,0.0,0.0,-2.8984,-2.9089,-2.8639,-2.8073,-2.8073,-2.8073,-2.826,-2.9079,-2.9307,-2.9314,-2.9412,-2.955,-2.9701,-2.972,-2.9825,-2.994,-3.0007,-3.0113,-3.0232,0.0,0.0,-3.2947,-3.3045,-3.4502,-3.5639,-3.5708,-3.5754,-3.5807,-3.5811,-3.6669,-3.7592,-3.8427,-3.9324,-4.0181,-4.0955,-4.1013,-4.1025,-4.1091,-4.1135,-4.1549,-4.2366,-4.244,-4.2893,-4.3762,-4.382,-4.4257,-4.5078,-4.5905,-4.63,-4.63,-4.63,-4.6292,-4.6294,-4.6226,-4.6209,-4.6196,-4.6111,-4.6066,-4.5997,-4.6003,-4.5956,-4.5893,-4.5814,-4.5791,-4.5781,0.0,0.0,0.0,0.0,0.0,0.0,0.0,0.0,0.0,0.0,0.0,0.0,0.0,0.0,0.0,0.0,0.0,0.0,0.0,0.0,0.0,0.0,0.0,0.0,0.0,0.0,0.0,0.0,0.0,-2.41,-2.4702,-2.4639,-2.4743,-2.5029,-2.5012,-2.5195,-2.5545,-2.5659,-2.5698,-2.5769,0.0,-2.6191,-2.6321,0.0,0.0,0.0,0.0,0.0,0.0,0.0,0.0,0.0,-2.9055,-2.9116,-2.8973,-2.8968,-2.9008,-2.9087,-2.9314,-2.9372,-2.9394,-2.9569,-2.9664,-2.9719,-2.9842,-2.9907,-3.0022,-3.0128,-3.0221,-3.0484,-3.1218,-3.2281,-3.3265,-3.3935,-3.4991,0.0,-3.5768,-3.583,0.0,-3.5866,0.0,-3.8254,-3.8473,-3.9887,-4.0842,-4.1061,-4.1072,-4.1072,-4.1109,-4.1714,-4.2167,-4.2396,-4.3037,-4.3782,-4.4663,-4.5312,-4.5748,-4.5961,-4.6186,-4.63,-4.63,-4.6292,-4.6264,-4.6226,-4.6203,-4.6196,-4.6193,-4.6066,-4.6017,-4.5997,-4.5956,-4.5874,-4.5814,-4.581,-4.577,-4.5742,0.0,0.0,0.0,0.0,0.0,0.0,0.0,0.0,0.0,0.0,0.0,0.0,0.0,0.0,0.0,0.0,0.0,0.0,0.0,0.0,0.0,0.0,0.0,0.0,0.0,0.0,0.0,0.0,0.0,0.0,0.0,-2.3829,-2.4086,-2.4346,-2.4281,-2.4394,-2.4557,0.0,0.0,0.0,0.0,0.0,0.0,0.0,0.0,0.0,0.0,0.0,0.0,0.0,0.0,-2.781,-2.8628,-2.8869,-2.8927,-2.9279,-2.9411,-2.9431,-2.9433,-2.9471,-2.9531,-2.9664,-2.9738,-2.9827,-2.9924,-3.0019,-3.0128,-3.0221,-3.0292,-3.0529,-3.1116,-3.1961,-3.2879,0.0,0.0,0.0,-3.5788,-3.5885,-3.5903,0.0,-3.7459,0.0,-3.8506,-4.0071,-4.1094,-4.1101,-4.1109,-4.1261,-4.1647,-4.2135,-4.2747,-4.352,-4.4022,-4.4696,-4.5566,-4.6063,-4.63,-4.63,-4.63,-4.63,-4.6292,-4.6308,-4.625,-4.6209,-4.6209,-4.6174,-4.6152,-4.6047,-4.5986,-4.5953,-4.5867,-4.5833,-4.5791,-4.577,-4.5722,-4.5693,0.0,0.0,0.0,0.0,0.0,0.0,0.0,0.0,0.0,0.0,-1.4242,0.0,0.0,0.0,0.0,0.0,0.0,0.0,0.0,0.0,0.0,0.0,0.0,0.0,0.0,0.0,0.0,0.0,0.0,0.0,0.0,0.0,0.0,0.0,0.0,0.0,0.0,0.0,0.0,0.0,0.0,0.0,0.0,0.0,0.0,0.0,0.0,0.0,0.0,0.0,-2.6424,-2.7117,-2.7904,-2.8222,-2.8446,-2.9137,-2.9418,-2.9492,-2.9512,-2.9569,-2.9626,-2.9701,-2.9827,-2.991,-3.0007,-3.0128,-3.024,-3.0304,-3.0375,-3.046,-3.0578,-3.131,-3.2213,-3.3153,0.0,-3.4911,-3.5791,-3.5904,-3.5934,-3.5986,-3.7488,-3.8506,-3.8518,-4.0079,-4.1097,-4.1091,-4.1218,-4.1605,-4.2363,-4.2516,-4.3364,-4.5115,-4.5169,-4.5546,-4.6284,-4.6303,-4.63,-4.63,-4.63,-4.6292,-4.6303,-4.6279,-4.6259,-4.6196,-4.6196,-4.6158,-4.6076,-4.6007,-4.5953,-4.5893,-4.5827,-4.5791,-4.5785,-4.5706,-4.5693,-4.5693,0.0,0.0,0.0,0.0,0.0,0.0,0.0,0.0,0.0,0.0,-1.4145,-1.4229,0.0,0.0,0.0,0.0,0.0,0.0,0.0,0.0,0.0,0.0,0.0,0.0,0.0,0.0,0.0,0.0,0.0,0.0,0.0,0.0,0.0,0.0,0.0,0.0,0.0,0.0,0.0,0.0,0.0,0.0,0.0,0.0,0.0,0.0,0.0,0.0,0.0,0.0,-2.566,-2.6403,-2.7148,-2.7845,-2.8408,-2.8484,-2.8988,-2.9512,-2.9645,-2.9664,-2.9719,-2.9823,-2.9891,-2.9956,-3.0128,-3.0245,0.0,0.0,-3.0491,-3.0567,-3.0599,-3.1351,-3.2292,-3.3223,-3.4077,-3.4925,-3.5841,-3.5977,-3.5997,0.0,-3.7537,-3.8575,-3.8587,-4.0112,-4.1091,-4.1103,-4.1777,-4.2246,-4.2394,-4.3088,-4.4273,-4.6022,-4.6061,-4.6141,-4.63,-4.6306,-4.63,-4.63,-4.6292,-4.6308,-4.6303,-4.6245,-4.6203,-4.6196,-4.6146,-4.6075,-4.6007,-4.5933,-4.5905,-4.5887,-4.5824,-4.5765,-4.5715,-4.5706,-4.5657,-4.5622,0.0,0.0,0.0,0.0,0.0,0.0,0.0,-1.3998,-1.3995,-1.3995,-1.4064,-1.4119,-1.4195,-1.4234,-1.426,0.0,0.0,0.0,0.0,0.0,0.0,0.0,0.0,0.0,0.0,0.0,-1.9205,-1.9464,0.0,0.0,0.0,-1.9993,-2.0125,0.0,0.0,0.0,0.0,0.0,0.0,0.0,0.0,0.0,0.0,0.0,0.0,0.0,0.0,0.0,0.0,0.0,-2.5283,-2.5703,-2.6412,-2.6892,-2.7274,-2.7674,-2.8387,-2.9062,-2.9098,-2.9454,-2.9827,-2.9891,-2.9953,-3.0049,-3.0213,0.0,0.0,-3.0481,-3.0567,-3.0607,-3.0658,-3.1047,0.0,-3.3171,-3.3711,-3.4445,-3.5814,-3.5994,-3.6001,-3.5996,-3.7533,-3.8609,-3.86,-4.0118,-4.1091,-4.1099,-4.1913,-4.2597,-4.3054,-4.4335,-4.5445,-4.6261,-4.63,-4.6303,-4.6293,-4.6303,-4.6296,-4.6292,-4.6308,-4.6279,-4.6245,-4.6203,-4.6176,-4.6146,-4.6084,-4.6037,-4.5994,-4.5937,-4.5887,-4.5847,-4.5761,-4.5735,-4.5706,-4.5657,-4.5622,-4.5531,0.0,0.0,0.0,0.0,0.0,0.0,0.0,-1.397,-1.3984,-1.3984,-1.3995,-1.4037,-1.4145,-1.4181,-1.4203,0.0,0.0,0.0,0.0,0.0,0.0,0.0,0.0,0.0,0.0,0.0,0.0,-1.7916,-1.8662,0.0,0.0,0.0,0.0,0.0,-1.9631,-1.9743,0.0,0.0,0.0,0.0,0.0,0.0,0.0,0.0,0.0,0.0,0.0,0.0,0.0,0.0,-2.4986,-2.5209,-2.5725,-2.5996,-2.6254,-2.688,-2.7673,-2.8372,-2.8577,-2.912,-2.9699,-2.9899,-3.0064,-3.0166,-3.0305,-3.0383,0.0,-3.0576,-3.0614,-3.0639,-3.0703,-3.0755,-3.1304,0.0,-3.3278,-3.3936,-3.5497,-3.5874,-3.5996,-3.6007,-3.7535,0.0,-3.8593,-4.0114,-4.1105,-4.1105,-4.2083,-4.3058,-4.3937,-4.5445,-4.6303,-4.63,-4.63,-4.63,-4.63,-4.63,-4.6292,-4.6303,-4.6299,-4.6245,-4.6196,-4.6203,-4.6154,-4.6104,-4.6017,-4.5986,-4.596,-4.5919,-4.5847,-4.5786,-4.5731,-4.5687,-4.5693,-4.5622,-4.555,-4.5495,0.0,0.0,0.0,0.0,0.0,0.0,0.0,-1.3912,-1.3906,-1.3906,-1.3963,-1.4005,-1.4023,-1.4127,-1.4204,0.0,0.0,0.0,0.0,0.0,0.0,0.0,0.0,0.0,0.0,0.0,0.0,-1.6413,-1.7075,0.0,0.0,0.0,0.0,0.0,0.0,-1.8523,-1.9201,0.0,0.0,0.0,0.0,0.0,0.0,0.0,0.0,0.0,0.0,0.0,0.0,0.0,0.0,-2.5195,-2.526,-2.5698,-2.6205,-2.629,0.0,0.0,-2.8476,-2.8791,-2.9117,-2.9952,-3.0226,-3.0305,-3.0364,0.0,-3.051,-3.0579,-3.0652,-3.0706,-3.0774,-3.0806,-3.1116,-3.2053,0.0,-3.3732,-3.4699,-3.5491,-3.5994,-3.5994,0.0,0.0,-3.8598,-4.012,-4.1097,-4.1097,-4.2633,-4.3964,-4.484,-4.5774,-4.6295,-4.63,-4.63,-4.63,-4.63,-4.6292,-4.6303,-4.6303,-4.624,-4.6216,-4.6203,-4.6201,-4.6169,-4.6105,-4.6037,-4.5964,-4.5905,-4.5841,-4.5805,-4.5781,-4.5722,-4.5709,-4.5673,-4.5568,-4.5513,-4.5495,0.0,0.0,0.0,0.0,0.0,0.0,-1.3888,-1.39,-1.3897,-1.3897,-1.3955,-1.3995,-1.3995,-1.4086,-1.4145,-1.4145,0.0,0.0,0.0,0.0,0.0,0.0,0.0,0.0,0.0,0.0,-1.6303,-1.6185,-1.6466,0.0,0.0,0.0,0.0,0.0,0.0,-1.7479,-1.783,0.0,0.0,0.0,0.0,0.0,0.0,0.0,0.0,0.0,0.0,0.0,-2.3177,0.0,0.0,0.0,-2.4481,-2.4985,0.0,0.0,-2.6142,-2.6871,-2.7222,-2.7719,-2.8345,-2.9264,-2.9562,-2.977,-3.0326,0.0,-3.0587,-3.0659,-3.0714,-3.0765,-3.0806,-3.0801,-3.1086,-3.1958,0.0,0.0,-3.4574,-3.5442,-3.619,-3.6718,-3.7865,-3.8819,-3.9325,-4.0418,-4.1548,-4.2591,-4.331,-4.4309,-4.5704,-4.6114,-4.6306,-4.63,-4.6296,-4.6292,-4.6292,-4.626,-4.6231,-4.624,-4.6203,-4.6196,-4.6201,-4.6169,-4.6095,-4.6037,-4.5964,-4.5886,-4.5841,-4.5819,-4.5765,-4.5742,-4.5709,-4.564,-4.5568,-4.5513,-4.5457,-4.5438,0.0,0.0,0.0,0.0,0.0,-1.3888,-1.3888,-1.3903,-1.39,-1.39,-1.3955,-1.4012,-1.4012,-1.4054,-1.41,-1.41,-1.41,0.0,0.0,0.0,0.0,0.0,0.0,0.0,0.0,0.0,-1.566,-1.5581,-1.5762,-1.5801,0.0,0.0,-1.5863,-1.5843,0.0,0.0,0.0,0.0,0.0,0.0,0.0,0.0,0.0,0.0,0.0,0.0,0.0,0.0,0.0,0.0,0.0,0.0,0.0,0.0,0.0,0.0,-2.5597,-2.6132,-2.6381,-2.6907,-2.7574,-2.8449,-2.875,-2.9023,0.0,0.0,-3.0283,-3.0331,-3.0589,-3.0806,-3.0804,-3.081,-3.1033,0.0,0.0,-3.361,-3.4234,-3.5293,-3.6325,-3.719,-3.8063,-3.8944,-3.9813,-4.0869,-4.2095,-4.3587,-4.3935,-4.4735,-4.6218,-4.6296,-4.6296,-4.6296,-4.6308,-4.6284,-4.6279,-4.6226,-4.6195,-4.6196,-4.6196,-4.6193,-4.6169,-4.6105,-4.6037,-4.6005,-4.5929,-4.5867,-4.58,-4.5776,-4.5754,-4.5693,-4.5657,-4.5586,-4.5495,-4.5495,-4.5438,-4.5398,0.0,0.0,0.0,0.0,0.0,0.0,-1.3888,-1.3897,-1.3906,-1.3906,-1.3963,-1.3991,-1.3991,-1.4068,-1.41,-1.41,-1.41,0.0,0.0,0.0,0.0,0.0,0.0,0.0,0.0,0.0,-1.4118,-1.4118,-1.4722,-1.5012,-1.503,-1.5609,-1.5899,-1.5899,0.0,0.0,0.0,0.0,0.0,0.0,0.0,0.0,0.0,0.0,0.0,0.0,0.0,0.0,0.0,0.0,0.0,0.0,0.0,0.0,0.0,0.0,-2.5311,-2.5503,-2.636,-2.6592,-2.6815,-2.7682,-2.7951,-2.8039,0.0,-2.8851,-2.9504,-2.9513,-3.0205,-3.0807,-3.0807,-3.0855,-3.0899,-3.0919,-3.2304,0.0,-3.3414,-3.491,-3.6321,0.0,-3.8071,-3.8941,-3.9819,-4.14,-4.2747,-4.3626,-4.4504,-4.5379,-4.6245,-4.6303,-4.6303,-4.6303,-4.6303,-4.6279,-4.6206,-4.6195,-4.6196,-4.6196,-4.6201,-4.6169,-4.6095,-4.6037,-4.6005,-4.5991,-4.5932,-4.586,-4.58,-4.5727,-4.5703,-4.5693,-4.5568,-4.5495,-4.5495,-4.5419,-4.5398,-4.5398,0.0,0.0,0.0,0.0,0.0,0.0,0.0,-1.397,-1.3984,-1.3984,-1.3995,-1.3991,-1.3991,-1.4068,-1.41,-1.41,-1.41,0.0,0.0,0.0,0.0,0.0,0.0,0.0,0.0,0.0,-1.4181,-1.41,-1.4293,-1.4344,-1.4257,-1.4439,-1.448,-1.4416,-1.49,-1.5124,0.0,0.0,0.0,0.0,0.0,0.0,0.0,0.0,0.0,0.0,0.0,0.0,0.0,0.0,0.0,0.0,0.0,0.0,0.0,0.0,0.0,0.0,-2.5706,-2.5809,-2.6067,-2.6931,-2.7191,-2.7414,-2.8034,-2.8398,-2.8797,-2.9445,-2.9787,-3.0164,-3.0757,-3.0889,-3.1074,-3.1638,-3.2668,0.0,0.0,0.0,0.0,-3.801,-3.9432,-4.0424,-4.0698,-4.1732,-4.2763,-4.3638,-4.4512,-4.5367,-4.6197,-4.6231,-4.6231,-4.6231,-4.6226,-4.6215,-4.6195,-4.6203,-4.6201,-4.6201,-4.6141,-4.6105,-4.6037,-4.6005,-4.596,-4.5932,-4.586,-4.5786,-4.5727,-4.5703,-4.5673,-4.5622,-4.5531,-4.5476,-4.5419,-4.5419,-4.5359,-4.5317,0.0,0.0,0.0,0.0,0.0,0.0,0.0,-1.3998,-1.3995,-1.3995,-1.4023,-1.4037,-1.4037,-1.4068,-1.41,-1.41,-1.4114,0.0,0.0,0.0,0.0,0.0,0.0,0.0,0.0,-1.4304,-1.4252,-1.4136,-1.4109,-1.4044,-1.3947,-1.3918,-1.3843,-1.3769,-1.4187,-1.4379,0.0,0.0,0.0,0.0,0.0,0.0,-1.7894,0.0,0.0,0.0,0.0,0.0,0.0,0.0,0.0,0.0,0.0,0.0,0.0,0.0,-2.406,-2.5012,0.0,-2.5476,-2.5645,-2.6204,-2.6378,0.0,0.0,-2.7764,-2.8408,-2.899,-2.964,-3.025,-3.0792,-3.0898,-3.1166,-3.197,-3.2836,-3.3697,0.0,0.0,0.0,-3.8843,-4.0268,-4.1225,-4.1553,-4.237,-4.3244,-4.4094,-4.4968,-4.5665,-4.6162,-4.6201,-4.6195,-4.6203,-4.6196,-4.619,-4.6203,-4.6174,-4.6149,-4.616,-4.6085,-4.6026,-4.6005,-4.596,-4.5932,-4.586,-4.5819,-4.5761,0.0,-4.569,-4.564,-4.5568,-4.5495,-4.5438,-4.54,-4.5379,-4.5338,-4.5297,0.0,0.0,0.0,0.0,0.0,0.0,0.0,-1.4009,-1.4005,-1.4005,-1.4082,-1.4114,-1.4114,-1.4114,-1.4114,-1.4114,0.0,0.0,0.0,0.0,0.0,0.0,0.0,0.0,0.0,-1.4299,-1.4273,-1.4216,-1.4136,-1.4068,-1.4016,-1.3947,-1.3871,-1.3809,-1.3733,-1.37,0.0,0.0,0.0,0.0,0.0,0.0,0.0,0.0,0.0,0.0,0.0,0.0,0.0,0.0,0.0,0.0,0.0,0.0,0.0,0.0,0.0,0.0,0.0,-2.5454,-2.5525,-2.5582,-2.562,0.0,0.0,0.0,0.0,0.0,-2.9645,-3.0829,-3.0898,-3.0951,-3.125,-3.2068,-3.2926,-3.3805,-3.4664,-3.6286,-3.7985,-3.9605,-4.0561,-4.1436,-4.2323,-4.3201,-4.4031,-4.4835,-4.5718,-4.6201,-4.6203,-4.6203,-4.6203,-4.6212,-4.6201,-4.6181,-4.6185,-4.6122,-4.6104,-4.6095,-4.6026,-4.6005,-4.5991,-4.5919,-4.586,-4.58,-4.5795,-4.5754,-4.5693,-4.5693,-4.5603,-4.5495,-4.5419,-4.54,-4.5398,-4.5317,-4.5297,-4.5297,0.0,0.0,0.0,0.0,0.0,0.0,0.0,0.0,0.0,0.0,-1.4159,-1.419,-1.419,-1.419,-1.419,0.0,0.0,0.0,0.0,0.0,0.0,0.0,0.0,0.0,0.0,-1.4293,-1.4299,-1.4291,-1.4203,-1.415,-1.4086,-1.4016,-1.3944,-1.3873,-1.3811,0.0,0.0,0.0,0.0,0.0,0.0,0.0,0.0,0.0,0.0,0.0,-1.9021,-1.9592,0.0,0.0,0.0,0.0,0.0,0.0,0.0,0.0,-2.2447,-2.3478,-2.4344,0.0,-2.5587,-2.5654,-2.5691,-2.5683,0.0,0.0,0.0,0.0,0.0,0.0,0.0,-3.1392,-3.2109,-3.2966,-3.3827,-3.4705,-3.5561,-3.7201,-3.8665,-3.9689,-4.0567,-4.1445,-4.231,-4.3188,-4.4041,-4.4844,-4.5702,-4.6203,-4.6203,-4.6189,-4.6201,-4.6205,-4.6141,-4.6113,-4.6122,-4.6104,-4.6076,-4.6026,-4.6005,-4.598,-4.5919,-4.586,-4.5819,-4.5795,-4.5738,-4.5726,-4.5693,-4.5586,-4.5513,-4.5495,-4.5419,-4.5399,-4.5398,-4.5317,-4.5297,-4.5297,0.0,0.0,0.0,0.0,0.0,0.0,0.0,0.0,0.0,0.0,0.0,-1.4198,-1.4198,-1.4198,0.0,0.0,0.0,0.0,0.0,0.0,0.0,0.0,0.0,0.0,-1.4293,-1.4293,-1.4299,-1.4304,-1.426,-1.4208,-1.41,-1.4054,-1.4016,-1.3944,-1.39,0.0,0.0,0.0,0.0,0.0,-1.4295,0.0,0.0,0.0,0.0,0.0,-1.8488,-1.9154,0.0,-2.0073,-2.0235,-2.0301,0.0,0.0,0.0,0.0,-2.2022,-2.3111,-2.3606,-2.4676,-2.5649,-2.5691,-2.5707,-2.5798,0.0,0.0,0.0,0.0,0.0,0.0,0.0,0.0,0.0,-3.3261,-3.4139,-3.5271,-3.6925,-3.8307,-3.9455,-4.0301,-4.1163,-4.2037,-4.2861,-4.3738,-4.461,-4.543,-4.593,-4.6196,-4.6208,-4.6166,-4.6149,-4.616,-4.6114,-4.6105,-4.6104,-4.6066,-4.6035,-4.5994,-4.598,-4.5932,-4.5847,-4.5819,-4.5781,-4.5754,-4.5726,-4.5676,-4.5586,-4.5531,-4.5476,-4.5438,-4.5399,-4.5379,-4.5338,-4.5317,-4.5297,-4.5297,0.0,0.0,0.0,0.0,0.0,0.0,0.0,0.0,0.0,0.0,0.0,0.0,0.0,0.0,0.0,0.0,0.0,0.0,0.0,0.0,0.0,0.0,0.0,-1.4293,-1.4293,-1.4293,-1.4312,-1.4304,-1.4304,-1.4234,-1.4127,-1.4114,-1.4054,-1.3998,-1.3987,-1.397,0.0,0.0,0.0,-1.4229,-1.4356,0.0,0.0,0.0,0.0,0.0,0.0,0.0,0.0,-1.9901,-2.0235,-2.0301,-2.0302,0.0,0.0,0.0,0.0,0.0,-2.3081,-2.4378,-2.5707,-2.5707,-2.5798,-2.6086,0.0,0.0,0.0,0.0,0.0,0.0,0.0,-3.1758,0.0,0.0,0.0,-3.5949,-3.8362,-3.933,-4.0164,-4.1189,-4.1949,-4.2763,-4.3701,-4.4462,-4.5254,-4.6137,-4.6201,-4.6205,-4.6185,-4.6122,-4.6104,-4.6095,-4.6095,-4.6085,-4.6085,-4.6025,-4.5991,-4.598,-4.5919,-4.5847,-4.58,-4.5795,-4.5754,-4.5693,-4.5693,-4.5603,-4.5495,-4.5476,-4.5438,-4.5398,-4.5398,-4.5338,-4.5297,-4.5297,-4.5297,-4.5297,0.0,0.0,0.0,0.0,0.0,0.0,0.0,0.0,0.0,0.0,0.0,0.0,0.0,0.0,0.0,0.0,0.0,0.0,0.0,0.0,0.0,0.0,-1.4293,-1.4293,-1.4293,-1.4293,-1.4293,-1.4293,-1.4286,-1.4291,-1.4265,-1.4154,-1.4054,-1.3998,-1.3995,-1.3977,-1.3991,-1.4058,-1.4177,-1.4296,-1.4375,0.0,0.0,0.0,0.0,0.0,0.0,0.0,0.0,-1.9918,-2.025,-2.0301,-2.0373,0.0,0.0,0.0,0.0,0.0,-2.3108,-2.4375,-2.5693,-2.569,-2.6259,-2.683,0.0,0.0,0.0,0.0,0.0,0.0,0.0,-3.2617,-3.3495,0.0,-3.5848,-3.7539,-3.9353,-3.9711,-4.0398,-4.2017,-4.2329,-4.3005,-4.4546,-4.4819,-4.526,-4.6135,-4.6212,-4.6177,-4.6122,-4.6114,-4.6105,-4.6095,-4.6035,-4.6033,-4.6033,-4.6003,-4.5968,-4.5919,-4.5847,-4.5819,-4.5795,-4.5738,-4.5709,-4.5693,-4.5586,-4.5513,-4.5495,-4.5438,-4.5399,-4.5379,-4.5338,-4.5317,-4.5297,-4.5297,-4.5297,-4.5297,0.0,0.0,0.0,0.0,0.0,0.0,0.0,0.0,0.0,0.0,0.0,0.0,0.0,0.0,0.0,0.0,0.0,0.0,0.0,0.0,0.0,-1.4337,-1.4337,-1.4337,-1.4293,-1.4293,-1.4293,-1.4293,-1.4312,-1.4299,-1.4304,-1.4208,-1.4123,-1.4068,-1.4096,-1.4078,-1.4046,-1.4163,-1.4252,-1.4353,0.0,0.0,0.0,0.0,0.0,0.0,0.0,0.0,0.0,0.0,-2.0231,-2.0301,-2.0386,0.0,0.0,0.0,0.0,0.0,-2.3101,-2.4361,-2.5815,-2.6288,-2.6704,-2.7118,0.0,0.0,0.0,0.0,0.0,0.0,0.0,0.0,-3.4549,-3.5896,-3.7546,-3.892,-3.9692,-4.0608,-4.1493,-4.2253,-4.3188,-4.4046,-4.4839,-4.5331,-4.5772,-4.6166,-4.6169,-4.6132,-4.6095,-4.6075,-4.6055,-4.6055,-4.5972,-4.5949,-4.5944,-4.5912,-4.5887,-4.5847,-4.5819,-4.5781,-4.5738,-4.5726,-4.5657,-4.5586,-4.5513,-4.5476,-4.5438,-4.5399,-4.5378,-4.5338,-4.5317,-4.5297,-4.5297,-4.5297,-4.5297,-4.5297,0.0,0.0,0.0,0.0,0.0,0.0,0.0,0.0,0.0,0.0,0.0,0.0,0.0,0.0,0.0,0.0,0.0,0.0,0.0,0.0,-1.4349,-1.4392,-1.4405,-1.4392,-1.4331,-1.4331,-1.4331,-1.4331,-1.4331,-1.4324,-1.4304,-1.4242,-1.4185,-1.4132,-1.4177,-1.4177,-1.4159,-1.4268,-1.4337,-1.4416,0.0,0.0,0.0,0.0,0.0,0.0,0.0,0.0,0.0,0.0,0.0,0.0,0.0,0.0,0.0,-2.0737,-2.1893,-2.3137,-2.3347,-2.4522,-2.5915,-2.678,0.0,0.0,0.0,0.0,0.0,0.0,0.0,0.0,0.0,-3.412,0.0,-3.7591,-3.8967,-3.995,-4.0345,-4.1532,-4.2513,-4.2864,-4.4091,-4.4988,-4.5176,-4.5811,-4.6185,-4.6177,-4.6123,-4.6095,-4.6066,-4.6219,-4.6302,-4.6302,-4.6421,-4.6481,-4.6493,-4.6413,-4.6192,-4.5786,-4.5781,-4.5738,-4.5693,-4.5693,-4.5603,-4.5495,-4.5495,-4.5458,-4.5398,-4.5589,-4.5625,-4.5602,-4.5812,-4.5889,-4.5851,-4.566,-4.5583,-4.5543,0.0,0.0,0.0,0.0,0.0,0.0,0.0,0.0,0.0,0.0,0.0,0.0,0.0,0.0,0.0,0.0,0.0,0.0,0.0,0.0,-1.4387,-1.4405,-1.4387,-1.4405,-1.4387,-1.4387,-1.4387,-1.4387,-1.4387,-1.4368,-1.4293,-1.4293,-1.4268,-1.4185,-1.4198,-1.4242,-1.4293,-1.4293,-1.4344,-1.4417,-1.4478,0.0,0.0,0.0,0.0,0.0,0.0,0.0,0.0,0.0,0.0,0.0,0.0,0.0,-2.0653,-2.148,-2.2377,-2.3286,-2.4093,-2.4998,-2.5902,-2.6782,-2.7602,0.0,0.0,-3.0177,0.0,-3.1858,0.0,0.0,0.0,-3.5935,-3.7669,-3.9357,-3.9724,-4.0359,-4.1997,-4.2266,-4.2903,-4.452,-4.4812,-4.5214,-4.6037,-4.6166,-4.6169,-4.6105,-4.6105,-4.6066,-4.6007,-4.6771,-4.7214,-4.7214,-4.787,-4.8217,-4.8217,-4.8145,-4.7341,-4.5795,-4.5738,-4.5709,-4.5693,-4.564,-4.5568,-4.5495,-4.5438,-4.54,-4.5455,-4.6139,-4.6424,-4.65,-4.7302,-4.7627,-4.7532,-4.671,-4.6405,-4.6402,0.0,0.0,0.0,0.0,0.0,0.0,0.0,0.0,0.0,0.0,0.0,0.0,0.0,0.0,0.0,0.0,0.0,0.0,0.0,0.0,-1.4429,-1.4459,-1.4459,-1.4453,-1.4469,-1.4422,-1.4399,-1.4399,-1.4399,-1.4387,-1.435,-1.435,-1.4338,-1.4325,-1.4325,-1.4338,-1.435,-1.4362,-1.4399,-1.4464,-1.454,-1.4611,0.0,0.0,0.0,0.0,0.0,0.0,0.0,0.0,-2.0296,-2.0308,-2.0377,-2.0448,-2.0672,-2.1531,-2.2416,-2.3288,-2.4152,-2.5427,-2.6724,-2.7583,0.0,0.0,0.0,-3.0665,-3.1738,-3.2031,-3.2968,0.0,0.0,0.0,-3.9064,-3.9696,-4.0701,-4.1646,-4.2311,-4.328,-4.415,-4.4812,-4.539,-4.5842,-4.6166,-4.616,-4.6143,-4.6105,-4.6066,-4.626,-4.679,-4.7086,-4.7469,-4.7966,-4.8241,-4.8387,-4.8338,-4.8311,-4.7954,-4.7284,-4.727,-4.7236,-4.7181,-4.7125,-4.7069,-4.705,-4.6991,-4.6929,-4.6904,-4.7188,-4.7322,-4.7341,-4.7685,-4.7799,-4.7761,-4.7436,-4.7322,-4.728,0.0,0.0,0.0,0.0,0.0,0.0,0.0,0.0,0.0,0.0,0.0,0.0,0.0,0.0,0.0,0.0,0.0,0.0,0.0,-1.4458,-1.4488,-1.4517,-1.4517,-1.454,-1.4526,-1.4481,-1.4458,-1.4458,-1.4458,-1.4446,-1.4428,-1.4428,-1.4434,-1.4441,-1.4441,-1.4434,-1.4428,-1.4439,-1.4462,-1.4552,-1.46,-1.4669,0.0,0.0,0.0,0.0,0.0,0.0,0.0,0.0,-2.032,-2.034,-2.04,-2.0443,-2.0733,-2.1877,-2.2636,-2.3352,-2.4493,-2.5886,-2.7202,0.0,0.0,0.0,0.0,-3.1289,-3.2265,-3.2812,-3.4312,-3.6046,-3.7764,0.0,-3.9984,-4.0525,-4.1621,-4.2584,-4.3117,-4.4169,-4.5007,-4.5273,-4.5842,-4.6185,-4.6169,-4.6143,-4.6095,-4.6066,-4.6279,-4.6666,-4.7272,-4.7759,-4.8257,-4.8798,-4.9049,-4.9173,-4.9122,-4.9092,-4.9041,-4.8987,-4.8988,-4.8681,-4.8105,-4.803,-4.801,-4.7988,-4.7926,-4.7862,-4.7818,-4.8105,-4.8372,-4.8602,-4.8602,-4.8602,-4.8563,-4.8296,-4.822,-4.8178,0.0,0.0,0.0,0.0,0.0,0.0,0.0,0.0,0.0,0.0,0.0,0.0,0.0,0.0,0.0,0.0,0.0,0.0,-1.46,-1.46,-1.46,-1.46,-1.46,-1.46,-1.46,-1.46,-1.46,-1.46,-1.46,-1.4571,-1.4501,-1.4501,-1.4515,-1.4517,-1.4517,-1.4522,-1.4519,-1.4519,-1.456,-1.4618,-1.4709,-1.472,-1.4834,0.0,0.0,0.0,0.0,0.0,0.0,0.0,-2.0341,-2.0404,-2.0394,0.0,-2.0854,-2.2589,-2.3101,-2.3497,-2.5249,-2.6347,0.0,0.0,0.0,0.0,-3.1738,-3.2109,-3.2617,-3.4354,-3.6102,-3.7831,-3.949,-3.9809,-4.0398,-4.2128,-4.2403,-4.3,-4.4676,-4.491,-4.5234,-4.6096,-4.6205,-4.6169,-4.6105,-4.6095,-4.6066,-4.6007,-4.6812,-4.7306,-4.7311,-4.8884,-4.9769,-4.9708,-5.0484,-5.0899,-5.0899,-5.0775,-5.0701,-5.0701,-5.0683,-4.9798,-4.8125,-4.8049,-4.8029,-4.8027,-4.7945,-4.7881,-4.7895,-4.8754,-4.9576,-5.0302,-5.0302,-5.0302,-5.0206,-4.9404,-4.9098,-4.9098,0.0,0.0,0.0,0.0,0.0,0.0,0.0,0.0,0.0,0.0,0.0,0.0,0.0,0.0,0.0,0.0,0.0,0.0,0.0,-1.4603,-1.4592,-1.46,-1.46,-1.4611,-1.4661,-1.4714,-1.4685,-1.4603,-1.4603,-1.4603,-1.4651,-1.5229,-1.5488,-1.5514,-1.6089,-1.633,-1.6323,-1.6376,-1.6418,-1.6418,-1.6452,-1.6485,-1.6565,0.0,0.0,0.0,0.0,0.0,0.0,0.0,0.0,0.0,-2.0458,0.0,-2.1633,-2.2767,-2.3534,-2.4381,-2.6131,-2.7244,0.0,-2.9003,0.0,0.0,0.0,-3.3007,0.0,0.0,-3.787,-3.9208,-3.9705,-4.0811,-4.1779,-4.2247,-4.3351,-4.4325,-4.4832,-4.5429,-4.5901,-4.6166,-4.616,-4.6114,-4.6105,-4.6066,-4.6026,-4.5997,-4.681,-4.7544,-4.8108,-4.9155,-4.9979,-5.0534,-5.0778,-5.0883,-5.0846,-5.0738,-5.0702,-5.0683,-5.0702,-5.0394,-4.9855,-4.9775,-4.9733,-4.9688,-4.9621,-4.9599,-4.9576,-4.9843,-5.0073,-5.0302,-5.0302,-5.0302,-5.0264,-5.0034,-4.9939,-4.9939,0.0,0.0,0.0,0.0,0.0,0.0,0.0,0.0,0.0,0.0,0.0,0.0,0.0,0.0,0.0,0.0,0.0,0.0,0.0,0.0,-1.4674,-1.4683,-1.4683,-1.4693,-1.4743,-1.4793,-1.4924,-1.52,-1.5179,-1.5179,-1.5229,-1.6071,-1.6455,-1.6474,-1.6959,-1.7184,-1.7184,-1.7225,-1.7236,-1.7236,-1.727,-1.7302,-1.7372,0.0,0.0,0.0,0.0,0.0,0.0,0.0,0.0,0.0,-2.0473,0.0,0.0,-2.284,-2.373,-2.4772,-2.6539,-2.7636,0.0,-2.9374,-3.0858,-3.2517,-3.4075,0.0,0.0,0.0,-3.8853,-3.9916,-4.0246,-4.1442,-4.2455,-4.2767,-4.3994,-4.5027,-4.537,-4.5862,-4.6185,-4.616,-4.6114,-4.6095,-4.6066,-4.6026,-4.5997,-4.5997,-4.7129,-4.8005,-4.8483,-4.9586,-5.0414,-5.0887,-5.0861,-5.0846,-5.0793,-5.072,-5.0702,-5.0702,-5.0702,-5.0663,-5.0603,-5.0521,-5.0457,-5.0412,-5.0325,-5.0302,-5.0302,-5.0302,-5.0302,-5.0302,-5.0302,-5.0302,-5.0302,-5.0302,-5.0302,-5.0302,0.0,0.0,0.0,0.0,0.0,0.0,0.0,0.0,0.0,0.0,0.0,0.0,0.0,0.0,0.0,0.0,0.0,0.0,0.0,0.0,-1.4803,-1.4803,-1.4803,-1.4803,-1.4803,-1.4888,-1.532,-1.61,-1.6049,-1.6057,-1.6145,-1.6999,-1.7415,-1.7426,-1.7501,-1.7538,-1.7538,-1.7538,-1.7538,-1.7549,-1.76,-1.7639,-1.7725,-1.8524,0.0,0.0,0.0,0.0,0.0,0.0,0.0,0.0,-2.0579,-2.1223,-2.209,-2.2951,-2.3844,-2.4891,-2.6648,0.0,0.0,-2.9474,-3.0975,0.0,-3.5513,-3.6774,-3.7644,-3.8449,0.0,-4.0173,-4.1056,-4.1877,-4.2701,-4.3578,-4.4462,-4.5292,-4.6068,-4.6185,-4.6169,-4.6105,-4.6095,-4.6066,-4.6007,-4.5997,-4.5997,-4.5997,-4.7614,-4.8567,-4.8503,-5.007,-5.0956,-5.0906,-5.0825,-5.0793,-5.0793,-5.0721,-5.0702,-5.0702,-5.0702,-5.0663,-5.0603,-5.0521,-5.0457,-5.039,-5.0325,-5.0302,-5.0302,-5.0302,-5.0302,-5.0302,-5.0302,-5.0302,-5.0302,-5.0302,-5.0302,-5.0302,0.0,0.0,0.0,0.0,0.0,0.0,0.0,0.0,0.0,0.0,0.0,0.0,0.0,0.0,0.0,0.0,0.0,0.0,0.0,0.0,-1.4804,-1.4803,-1.4794,-1.4804,-1.4804,-1.5518,-1.5989,-1.6177,-1.6111,-1.6431,-1.712,0.0,0.0,-1.8354,0.0,-1.9345,-1.9345,-1.9345,-1.9345,-1.9326,-1.9349,-1.9401,-1.946,-1.9654,-1.9754,0.0,0.0,0.0,0.0,0.0,0.0,0.0,-2.1282,-2.2114,-2.2993,-2.3857,-2.4733,-2.5797,-2.7558,-2.8163,0.0,0.0,-3.1889,-3.3793,-3.6367,-3.761,-3.8488,-3.934,-4.0207,-4.1071,-4.1896,-4.2747,-4.3617,-4.4479,-4.5356,-4.5971,-4.6111,-4.6123,-4.6114,-4.6105,-4.6047,-4.6026,-4.5997,-4.5997,-4.5997,-4.5997,-4.7571,-4.8522,-4.8503,-5.0042,-5.0906,-5.0906,-5.0825,-5.0793,-5.0793,-5.0721,-5.0702,-5.0702,-5.0702,-5.0663,-5.0603,-5.0521,-5.0416,-5.0325,-5.0302,-5.0302,-5.0302,-5.0302,-5.0302,-5.0302,-5.0302,-5.0302,-5.0302,-5.0302,-5.0302,-5.0302,0.0,0.0,0.0,0.0,0.0,0.0,0.0,0.0,0.0,0.0,0.0,0.0,0.0,0.0,0.0,0.0,0.0,0.0,0.0,0.0,0.0,-1.4841,-1.485,-1.4859,-1.4859,-1.5752,-1.6403,-1.682,-1.7217,0.0,0.0,0.0,0.0,-1.9292,0.0,-2.0183,-2.0562,-2.0562,-2.082,-2.1199,-2.118,-2.1214,-2.1246,-2.123,-2.1291,-2.1359,-2.1423,0.0,0.0,0.0,0.0,0.0,0.0,0.0,-2.3812,-2.4269,-2.5026,-2.6073,-2.7829,0.0,0.0,-3.146,0.0,-3.4683,-3.7235,-3.8166,-3.8856,-4.0117,-4.1071,-4.1805,-4.2227,-4.3357,-4.4362,-4.4775,-4.5585,-4.6141,-4.6104,-4.6105,-4.6095,-4.6066,-4.6026,-4.5997,-4.5997,-4.5997,-4.5997,-4.6005,-4.7171,-4.787,-4.7876,-4.904,-4.9707,-4.9707,-4.9647,-4.9597,-4.9597,-4.9912,-5.0067,-5.0067,-5.0491,-5.0643,-5.0542,-5.0478,-5.0412,-5.0302,-5.0302,-5.0302,-5.0302,-5.0302,-5.0302,-5.0302,-5.0302,-5.0302,-5.0302,-5.0302,-5.0278,-5.0236,0.0,0.0,0.0,0.0,0.0,0.0,0.0,0.0,0.0,0.0,0.0,0.0,0.0,0.0,0.0,0.0,0.0,0.0,0.0,0.0,0.0,0.0,-1.4904,-1.496,-1.5111,-1.5986,-1.6847,-1.7719,0.0,0.0,0.0,0.0,0.0,-2.0221,0.0,-2.0726,-2.1526,-2.1526,-2.1945,-2.2593,-2.2623,-2.2626,-2.262,-2.264,-2.2661,-2.2738,-2.2802,-2.2852,-2.2905,-2.2985,0.0,0.0,0.0,0.0,-2.4422,-2.4581,-2.5242,-2.6269,-2.7861,0.0,-2.9665,-3.2661,-3.4059,0.0,-3.7917,-3.8505,-3.8981,-4.0643,-4.1701,-4.2344,-4.2498,-4.3822,-4.4912,-4.5004,-4.5626,-4.6104,-4.6076,-4.6076,-4.6066,-4.6007,-4.5997,-4.5997,-4.5997,-4.5997,-4.6005,-4.6003,-4.6751,-4.7198,-4.719,-4.7961,-4.8392,-4.8392,-4.8334,-4.8285,-4.8285,-4.8892,-4.924,-4.9413,-5.0279,-5.0643,-5.0521,-5.0457,-5.0371,-5.0302,-5.0302,-5.0302,-5.0302,-5.0302,-5.0302,-5.0302,-5.0302,-5.0302,-5.0302,-5.0278,-5.0255,-5.0188,0.0,0.0,0.0,0.0,0.0,0.0,0.0,0.0,0.0,0.0,0.0,0.0,0.0,0.0,0.0,0.0,0.0,0.0,0.0,0.0,0.0,-1.4904,-1.4894,-1.5251,-1.6007,-1.6876,-1.7757,-1.8631,0.0,0.0,0.0,0.0,0.0,-2.1128,0.0,0.0,-2.2439,-2.2439,-2.2496,-2.2611,-2.2651,-2.269,-2.27,-2.2748,-2.2785,-2.2802,-2.286,-2.2898,-2.2907,-2.2976,-2.2994,0.0,0.0,0.0,-2.4549,-2.5295,-2.6143,-2.705,0.0,0.0,-3.1873,0.0,-3.4055,-3.5377,0.0,0.0,-3.8988,-4.0655,-4.1687,-4.2537,-4.33,-4.4195,-4.5062,-4.5813,-4.6027,-4.6076,-4.6026,-4.6007,-4.6007,-4.5997,-4.5997,-4.5997,-4.5997,-4.5994,-4.6003,-4.5991,-4.6758,-4.719,-4.719,-4.7961,-4.8392,-4.8392,-4.8334,-4.8285,-4.8285,-4.8275,-4.8644,-4.9413,-5.0279,-5.0663,-5.0582,-5.0521,-5.0416,-5.0302,-5.0302,-5.0302,-5.0302,-5.0302,-5.0302,-5.0302,-5.0302,-5.0302,-5.0302,-5.0236,-5.0212,-5.0188,0.0,0.0,0.0,0.0,0.0,0.0,0.0,0.0,0.0,0.0,0.0,0.0,0.0,0.0,0.0,0.0,0.0,0.0,0.0,0.0,0.0,-1.4965,-1.539,-1.5834,-1.625,-1.7557,-1.8422,0.0,0.0,0.0,0.0,-2.0862,-2.1072,0.0,0.0,0.0,0.0,-2.339,-2.3678,-2.4119,-2.4149,-2.4188,-2.4226,-2.4254,-2.4289,-2.4323,-2.4358,-2.4374,-2.4426,-2.4452,-2.4481,-2.4581,-2.4996,0.0,0.0,0.0,-2.6316,0.0,-2.8666,-3.0882,-3.2924,0.0,-3.4425,-3.5977,-3.8038,-3.8507,-3.8981,-4.0641,-4.2046,-4.3089,-4.3469,-4.4636,-4.5638,-4.5988,-4.6037,-4.6037,-4.6007,-4.5997,-4.5997,-4.5994,-4.5994,-4.5994,-4.5953,-4.5941,-4.5949,-4.5944,-4.6268,-4.6474,-4.6427,-4.6742,-4.6941,-4.6931,-4.687,-4.6838,-4.6844,-4.7237,-4.8086,-4.9413,-5.0279,-5.0663,-5.0603,-5.0521,-5.0457,-5.0348,-5.0325,-5.0302,-5.0302,-5.0302,-5.0302,-5.0302,-5.0302,-5.0278,-5.0255,-5.0212,-5.0139,-5.0063,0.0,0.0,0.0,0.0,0.0,0.0,0.0,0.0,0.0,0.0,0.0,0.0,0.0,0.0,0.0,0.0,0.0,0.0,0.0,0.0,0.0,-1.5302,-1.6098,-1.6648,-1.6894,-1.8146,0.0,0.0,0.0,0.0,-2.1435,-2.1701,-2.194,0.0,-2.2795,0.0,0.0,0.0,-2.5178,-2.5956,-2.5986,-2.6015,-2.6062,-2.6069,-2.6102,-2.6153,-2.6158,-2.6191,-2.626,-2.6252,-2.6295,-2.6334,-2.635,-2.6359,0.0,0.0,0.0,0.0,0.0,0.0,-3.3392,-3.3395,-3.4718,-3.6445,0.0,0.0,-3.8948,-4.0645,-4.2157,-4.3248,-4.3461,-4.49,-4.6066,-4.6007,-4.5997,-4.6005,-4.6005,-4.5986,-4.5975,-4.5972,-4.596,-4.596,-4.5898,-4.5905,-4.5912,-4.5906,-4.5874,-4.5847,-4.58,-4.58,-4.5791,-4.58,-4.5735,-4.5687,-4.5693,-4.6488,-4.7625,-4.9086,-4.9952,-5.0452,-5.0603,-5.0521,-5.0457,-5.0412,-5.0325,-5.0302,-5.0302,-5.0302,-5.0302,-5.0302,-5.0278,-5.0236,-5.0207,-5.0163,-5.0108,-5.0005,0.0,0.0,0.0,0.0,0.0,0.0,0.0,0.0,0.0,0.0,0.0,0.0,0.0,0.0,0.0,-1.5101,0.0,0.0,0.0,0.0,0.0,-1.6136,-1.698,0.0,-1.8562,-1.8726,0.0,0.0,0.0,0.0,-2.151,-2.234,-2.3174,-2.3964,-2.4002,-2.4974,-2.6563,0.0,0.0,0.0,-2.7826,-2.7864,-2.7873,0.0,-2.79,-2.7961,-2.7964,-2.8015,-2.8062,-2.8052,-2.8072,-2.807,-2.8132,-2.8159,-2.8166,0.0,0.0,0.0,0.0,-3.209,0.0,-3.3395,-3.4718,0.0,0.0,0.0,-3.8894,-4.0645,-4.1682,-4.252,-4.3355,-4.487,-4.6007,-4.5997,-4.5994,-4.6003,-4.6003,-4.5949,-4.5917,-4.5917,-4.5917,-4.5898,-4.5886,-4.5899,-4.5906,-4.5893,-4.5847,-4.5814,-4.58,-4.5791,-4.5815,-4.58,-4.5722,-4.5709,-4.5693,-4.6488,-4.7336,-4.8182,-4.9048,-4.9875,-5.0603,-5.0521,-5.0457,-5.0412,-5.0325,-5.0302,-5.0302,-5.0302,-5.0302,-5.0302,-5.0231,-5.0188,-5.0188,-5.0057,-5.0005,-4.9978,0.0,0.0,0.0,0.0,0.0,0.0,0.0,0.0,0.0,0.0,0.0,0.0,0.0,-1.605,-1.6221,-1.6732,-1.6693,0.0,0.0,0.0,0.0,-1.7037,-1.7823,-1.842,-1.8763,0.0,0.0,0.0,0.0,-2.0907,-2.2288,-2.2628,-2.3548,-2.4934,-2.4934,-2.5588,-2.6696,-2.6704,0.0,0.0,0.0,0.0,0.0,0.0,-2.8916,-2.9013,-2.9619,-2.9854,-2.9786,-2.9223,-2.9062,-2.9012,-2.8466,-2.8298,-2.8405,-2.8961,-2.9355,0.0,0.0,0.0,0.0,-3.3395,-3.4718,-3.6289,-3.7403,-3.8052,-3.8731,-3.9929,-4.1246,-4.2306,-4.2616,-4.4042,-4.5354,-4.5917,-4.5972,-4.5949,-4.5949,-4.5917,-4.5905,-4.5899,-4.5899,-4.5887,-4.5841,-4.5827,-4.5847,-4.5847,-4.5814,-4.58,-4.581,-4.5795,-4.5785,-4.5742,-4.5709,-4.5693,-4.564,-4.6471,-4.7298,-4.8105,-4.8971,-4.9836,-5.0603,-5.0521,-5.0457,-5.0412,-5.0325,-5.0302,-5.0302,-5.0302,-5.0278,-5.0212,-5.0212,-5.0158,-5.0082,-5.0031,-4.9952,-4.9843,0.0,0.0,0.0,0.0,0.0,0.0,0.0,0.0,0.0,0.0,0.0,0.0,0.0,0.0,-1.7105,-1.7623,-1.756,-1.7508,-1.7491,-1.7748,-1.7899,-1.7899,-1.8694,-1.916,-1.9209,0.0,0.0,0.0,0.0,0.0,0.0,-2.2782,-2.373,-2.5406,-2.5704,-2.6329,0.0,0.0,0.0,-2.9311,0.0,-2.9589,-2.992,-3.0484,-3.0716,-3.0817,-3.1447,-3.1675,-3.1586,-3.0996,-3.0846,-3.0777,-3.0189,-2.983,-2.9722,-3.0293,0.0,0.0,-3.0745,0.0,0.0,0.0,-3.4718,-3.6211,-3.7027,-3.7819,-3.8653,-3.9513,-4.08,-4.184,-4.2149,-4.3078,-4.4222,-4.5378,-4.551,-4.5563,-4.5854,-4.588,-4.5867,-4.586,-4.586,-4.5847,-4.5814,-4.58,-4.58,-4.5805,-4.5805,-4.5791,-4.5765,-4.577,-4.5738,-4.5657,-4.5676,-4.564,-4.5586,-4.6163,-4.7009,-4.8105,-4.8664,-4.949,-5.0542,-5.05,-5.0435,-5.0348,-5.0325,-5.0302,-5.0302,-5.0278,-5.0255,-5.0207,-5.0139,-5.0082,-4.9986,-4.9952,-4.989,-4.9807,0.0,0.0,0.0,0.0,0.0,0.0,0.0,0.0,0.0,0.0,0.0,0.0,0.0,0.0,0.0,-1.7682,-1.761,-1.7575,-1.7567,-1.8298,-1.8732,-1.8732,0.0,0.0,0.0,0.0,0.0,0.0,0.0,0.0,0.0,0.0,-2.373,-2.5453,-2.6339,-2.7243,-2.8155,0.0,-3.03,-3.1911,-3.1972,-3.2518,-3.3317,-3.3367,-3.3423,-3.3478,-3.3531,-3.3548,-3.3545,-3.3523,-3.3509,-3.3478,-3.342,-3.2866,0.0,0.0,0.0,0.0,0.0,0.0,0.0,0.0,0.0,0.0,-3.6988,-3.778,-3.8614,-3.9474,-4.0305,-4.114,-4.1994,-4.2114,-4.262,-4.4342,-4.4589,-4.4867,-4.5699,-4.5769,-4.5722,-4.5722,-4.5722,-4.5722,-4.5722,-4.5742,-4.5766,-4.5776,-4.5781,-4.5765,-4.57,-4.5706,-4.5676,-4.5586,-4.5586,-4.5586,-4.5586,-4.5586,-4.6432,-4.8067,-4.801,-4.8874,-5.0462,-5.0416,-5.0348,-5.0302,-5.0302,-5.0302,-5.0278,-5.0231,-5.0188,-5.0188,-5.0038,-5.0005,-4.9978,-4.9862,-4.9807,-4.9778,0.0,0.0,0.0,0.0,0.0,0.0,0.0,0.0,0.0,0.0,0.0,0.0,0.0,0.0,0.0,-1.9335,-1.9325,-1.9314,-1.9303,-1.9479,-1.9582,-1.9641,-1.9809,-1.9941,0.0,0.0,0.0,0.0,0.0,0.0,0.0,0.0,0.0,0.0,-2.6977,-2.7813,-2.816,-2.9012,0.0,-3.1974,-3.2,-3.2551,-3.3501,-3.4714,-3.5222,-3.5435,-3.6653,-3.709,-3.6996,-3.6417,-3.5796,-3.5059,-3.3805,-3.3242,0.0,0.0,0.0,0.0,-3.2717,0.0,0.0,0.0,0.0,0.0,-3.6216,-3.6871,-3.7712,-3.8574,-3.9403,-4.0198,-4.1042,-4.1172,-4.1505,-4.2557,-4.3273,-4.3744,-4.3995,-4.4001,-4.3982,-4.3982,-4.3982,-4.3968,-4.3916,-4.4481,-4.4853,-4.4862,-4.5403,-4.5719,-4.5706,-4.5657,-4.5622,-4.5586,-4.5586,-4.5586,-4.5586,-4.5586,-4.6126,-4.7165,-4.7722,-4.8507,-4.9516,-5.0125,-5.0325,-5.0231,-5.0231,-5.0207,-5.0158,-5.0207,-5.0139,-5.0038,-5.0012,-4.9952,-4.9843,-4.9807,-4.975,-4.9634,0.0,0.0,0.0,0.0,0.0,0.0,0.0,0.0,0.0,0.0,0.0,0.0,0.0,0.0,0.0,-2.0525,-2.0551,-2.069,-2.1017,-2.1013,-2.0842,-2.0505,-2.0464,-2.0293,-2.0012,0.0,0.0,0.0,0.0,0.0,0.0,0.0,0.0,0.0,0.0,0.0,0.0,0.0,0.0,-3.2565,-3.2947,-3.3852,-3.5105,-3.609,-3.6727,-3.7168,-3.819,-3.8548,-3.8475,-3.8004,-3.7504,-3.685,-3.5468,-3.4785,-3.4414,-3.4043,0.0,0.0,0.0,0.0,0.0,0.0,0.0,0.0,-3.5918,-3.6521,-3.7245,-3.775,-3.8491,-3.9315,-4.0148,-4.0289,-4.0513,-4.1339,-4.1886,-4.2447,-4.3162,-4.3258,-4.3258,-4.3264,-4.3264,-4.3231,-4.3197,-4.3646,-4.394,-4.3929,-4.4353,-4.4746,-4.5098,-4.5084,-4.522,-4.5586,-4.5586,-4.5586,-4.5568,-4.5568,-4.5955,-4.6762,-4.7203,-4.8006,-4.913,-4.9599,-4.9954,-5.0188,-5.0163,-5.0133,-5.0057,-5.0063,-5.0057,-5.0005,-4.9925,-4.9871,-4.9807,-4.975,-4.9634,-4.9495,0.0,0.0,0.0,-1.6445,-1.6673,-1.6992,-1.7799,0.0,0.0,0.0,0.0,0.0,0.0,0.0,0.0,0.0,-2.1445,-2.1734,-2.2438,-2.2495,-2.2154,-2.1377,-2.1327,-2.0986,-2.0297,-2.0281,0.0,0.0,0.0,0.0,0.0,0.0,0.0,0.0,0.0,0.0,0.0,0.0,-3.2582,-3.3531,-3.4397,-3.5724,-3.7225,-3.748,-3.803,-3.8697,-3.8921,-3.901,-3.9016,-3.8912,-3.8822,-3.8594,-3.7715,-3.6914,-3.6113,-3.5234,-3.4434,0.0,0.0,0.0,0.0,-3.4843,-3.544,0.0,-3.5918,-3.6443,-3.6993,-3.707,-3.7666,-3.8422,-3.9295,-3.9395,-3.9579,-4.0314,-4.043,-4.1009,-4.2671,-4.2902,-4.2908,-4.2917,-4.2903,-4.2903,-4.2903,-4.2999,-4.3042,-4.2957,-4.3054,-4.3423,-4.4124,-4.4239,-4.4662,-4.5432,-4.5547,-4.5568,-4.5495,-4.5495,-4.5841,-4.655,-4.6586,-4.7427,-4.8955,-4.8976,-4.9444,-5.0163,-5.0108,-5.0057,-4.9978,-4.9925,-4.9925,-4.9978,-4.9835,-4.9778,-4.975,-4.9634,-4.9495,-4.9384,0.0,0.0,-1.6314,-1.6493,-1.7106,-1.7849,-1.8641,0.0,0.0,0.0,0.0,0.0,0.0,0.0,0.0,0.0,-2.2296,-2.2336,-2.2495,-2.2451,-2.2376,-2.2249,-2.2186,-2.2129,-2.2002,-2.2014,0.0,0.0,0.0,0.0,0.0,0.0,0.0,0.0,0.0,0.0,0.0,0.0,-3.349,-3.4426,-3.5299,-3.628,-3.7351,-3.8768,-3.9442,-3.9819,-4.116,-4.1668,-4.1565,-4.0915,-4.0234,-3.9492,-3.8613,-3.8223,-3.793,-3.7051,-3.668,-3.6387,-3.5678,-3.5611,-3.5754,-3.5756,-3.5869,0.0,-3.5911,-3.6028,-3.6319,-3.6977,-3.719,-3.7531,-3.8384,-3.8493,-3.8511,-3.8653,-3.8627,-3.9193,-4.0872,-4.1103,-4.1103,-4.1109,-4.1109,-4.1094,-4.1104,-4.174,-4.2129,-4.2063,-4.2698,-4.3179,-4.3335,-4.3951,-4.4376,-4.4552,-4.5186,-4.5495,-4.5419,-4.5419,-4.5515,-4.5667,-4.6298,-4.7097,-4.7999,-4.8681,-4.9371,-5.0057,-5.0031,-4.9952,-4.9835,-4.9816,-4.9835,-4.9835,-4.975,-4.9692,-4.9604,-4.9495,-4.9384,-4.9308,0.0,0.0,-1.7247,-1.7677,-1.8108,-1.8672,-1.9473,0.0,0.0,0.0,0.0,0.0,0.0,0.0,0.0,0.0,0.0,0.0,0.0,-2.4964,-2.4585,-2.3784,-2.3714,-2.3316,-2.2514,-2.2488,-2.2524,0.0,0.0,0.0,0.0,0.0,0.0,0.0,0.0,0.0,0.0,0.0,-3.3983,-3.5321,-3.6192,-3.7069,-3.8038,-3.977,-4.0734,-4.1306,-4.2589,-4.3042,-4.2983,-4.2578,-4.1875,-4.0996,-4.0156,-3.9609,-3.9082,-3.8203,-3.7949,-3.7851,-3.7417,-3.6979,-3.6654,-3.6641,-3.6321,0.0,0.0,-3.5898,-3.5995,-3.6375,-3.6395,-3.6619,-3.7492,-3.7591,-3.7687,-3.8067,-3.8119,-3.8381,-3.9196,-3.9326,-3.9345,-3.9311,-3.9297,-3.9297,-3.9307,-4.0062,-4.0704,-4.1078,-4.1519,-4.1942,-4.2384,-4.2768,-4.3401,-4.421,-4.4632,-4.5036,-4.54,-4.54,-4.536,-4.5297,-4.5698,-4.6304,-4.7091,-4.7862,-4.865,-4.9364,-4.9754,-4.9843,-4.975,-4.9721,-4.9663,-4.9615,-4.9634,-4.9604,-4.9495,-4.9384,-4.9276,-4.9197,-1.6661,0.0,-1.8141,-1.8832,-1.9112,-1.9487,-2.0301,-2.0427,0.0,0.0,0.0,0.0,0.0,0.0,0.0,0.0,0.0,0.0,0.0,-2.7509,-2.6921,-2.5555,-2.5498,-2.4872,-2.3506,-2.3474,-2.351,-2.3553,0.0,0.0,0.0,0.0,0.0,0.0,0.0,0.0,0.0,0.0,0.0,-3.6242,-3.7099,-3.7975,-3.8935,-4.0691,-4.1791,-4.2539,-4.3587,-4.3944,-4.3945,-4.3945,-4.3379,-4.2539,-4.1894,-4.1074,-4.0215,-3.9355,-3.8984,-3.8808,-3.8648,-3.8092,-3.7552,-3.7526,-3.7008,-3.643,0.0,0.0,0.0,-3.5877,-3.5763,-3.5922,-3.661,-3.6682,-3.6863,-3.7514,-3.761,-3.7588,-3.7526,-3.7555,-3.767,-3.795,-3.7973,-3.7973,-3.7993,-3.8562,-3.9221,-3.9879,-4.007,-4.0473,-4.1163,-4.1527,-4.2313,-4.3656,-4.4001,-4.448,-4.511,-4.5282,-4.5297,-4.517,-4.517,-4.5605,-4.6411,-4.7137,-4.7896,-4.8697,-4.9447,-4.9721,-4.9634,-4.9574,-4.9464,-4.9384,-4.9495,-4.9464,-4.9352,-4.9276,-4.9197,-4.9101,-1.7606,-1.813,0.0,-1.8818,-1.9467,-2.0279,-2.113,-2.1264,0.0,0.0,0.0,0.0,0.0,0.0,0.0,0.0,0.0,-2.748,-2.7575,-2.7594,-2.7499,-2.7309,-2.729,-2.7214,-2.7023,-2.7018,-2.7031,-2.7039,0.0,0.0,0.0,0.0,0.0,0.0,-2.992,0.0,0.0,0.0,-3.5403,-3.7138,-3.7995,-3.8872,-3.9828,-4.1589,-4.2318,-4.2614,-4.4256,-4.4844,-4.4844,-4.4844,-4.4277,-4.3535,-4.3437,-4.2812,-4.1953,-4.1133,-4.0351,-3.959,-3.8804,-3.8522,-3.845,-3.8381,-3.8296,-3.8014,-3.722,0.0,-3.6839,-3.6054,0.0,-3.5728,-3.5825,0.0,0.0,-3.5874,-3.583,-3.5795,-3.5795,-3.5748,-3.6272,-3.7751,-3.7905,-3.7909,-3.7916,-3.7977,-3.8092,-3.8188,-3.8843,-3.9284,-3.9399,-4.0856,-4.1759,-4.1896,-4.3331,-4.4114,-4.4067,-4.4851,-4.5192,-4.5125,-4.5125,-4.5494,-4.6247,-4.7036,-4.7791,-4.8494,-4.9344,-4.9615,-4.9446,-4.9415,-4.9321,-4.9211,-4.9308,-4.9276,-4.9211,-4.915,-4.9101,-4.9068,-1.845,-1.8935,0.0,0.0,-2.0222,-2.0908,-2.1299,-2.2607,0.0,0.0,0.0,0.0,0.0,-2.8395,-2.9298,-2.9761,-3.0242,-3.0498,-3.0502,-3.0502,0.0,-2.9779,-2.9303,-2.8808,-2.8313,-2.7831,-2.7597,-2.7592,-2.7644,0.0,0.0,0.0,0.0,0.0,-3.0644,0.0,-3.3294,0.0,-3.6292,-3.8066,-3.9443,-4.0535,-4.1441,-4.2685,-4.3788,-4.4755,-4.5487,-4.5742,-4.5742,-4.5742,-4.5176,-4.4453,-4.4453,-4.3867,-4.3086,-4.2754,-4.2383,-4.1914,-4.1032,-4.0435,-3.9917,-3.9384,-3.8865,-3.8404,-3.8049,-3.7929,-3.7669,-3.6839,0.0,0.0,0.0,0.0,0.0,0.0,-3.5111,-3.4745,-3.4737,-3.4288,-3.4567,-3.6257,-3.6435,-3.6577,-3.7028,-3.7086,-3.7297,-3.7742,-3.8106,-3.851,-3.9007,-3.9734,-4.0558,-4.1456,-4.2163,-4.2962,-4.389,-4.4271,-4.4627,-4.4967,-4.4967,-4.5128,-4.5356,-4.6679,-4.7391,-4.7663,-4.8961,-4.9415,-4.9257,-4.9257,-4.923,-4.915,-4.9183,-4.9183,-4.915,-4.9101,-4.9033,-4.8911,-1.9922,0.0,0.0,0.0,-2.1045,-2.1798,-2.2266,-2.411,0.0,0.0,0.0,0.0,-2.9503,-3.039,-3.125,-3.2042,-3.2653,-3.3016,-3.3004,-3.3004,-3.2622,-3.1745,-3.1153,-3.0524,-2.9909,-2.9312,-2.902,-2.902,-2.8843,0.0,0.0,0.0,0.0,0.0,0.0,-3.29,-3.3662,-3.5418,-3.7065,-3.8656,-4.0398,-4.1909,-4.3189,-4.3821,-4.4984,-4.6303,-4.6308,-4.6308,-4.6308,-4.6308,-4.5879,-4.5351,-4.5351,-4.4766,-4.4062,-4.4062,-4.3887,-4.3554,-4.2926,-4.229,-4.1596,-4.0737,-4.004,-3.9438,-3.897,-3.8811,-3.8525,-3.7707,-3.7264,0.0,0.0,0.0,-3.5601,0.0,0.0,-3.4199,-3.4212,-3.3429,-3.3325,-3.4553,-3.463,-3.4906,-3.5717,-3.5812,-3.6124,-3.695,-3.72,-3.76,-3.823,-3.8707,-3.9471,-4.0653,-4.1148,-4.206,-4.3479,-4.3726,-4.417,-4.4865,-4.4865,-4.477,-4.4716,-4.6374,-4.7061,-4.7027,-4.8659,-4.9276,-4.9164,-4.9113,-4.9064,-4.9015,-4.898,-4.898,-4.898,-4.898,-4.8892,-4.8732,-2.2381,-2.1718,0.0,0.0,-2.187,-2.3025,-2.4714,-2.5749,-2.6937,-2.8567,-2.9555,-3.0433,-3.1236,-3.2158,-3.3049,-3.3857,-3.4002,-3.405,-3.405,-3.405,-3.3667,-3.2785,-3.2741,-3.2703,-3.2683,-3.2664,-3.2626,-3.2626,-3.1859,0.0,0.0,0.0,0.0,0.0,-3.3536,-3.4361,-3.4574,-3.632,-3.763,-3.8656,-4.0398,-4.2635,-4.4914,-4.4953,-4.5512,-4.6303,-4.6308,-4.6308,-4.6308,-4.6308,-4.6289,-4.6269,-4.6269,-4.5664,-4.4961,-4.4961,-4.4355,-4.3691,-4.3667,-4.3637,-4.3411,-4.2533,-4.2303,-4.1837,-4.014,-3.9701,-3.942,-3.8544,-3.77,-3.7075,-3.6978,-3.6211,-3.5604,0.0,0.0,0.0,0.0,-3.3396,-3.2823,-3.2881,-3.2828,-3.3127,-3.3987,-3.4012,-3.4342,-3.52,-3.5947,-3.6368,-3.6387,-3.7928,-3.8842,-3.888,-4.0517,-4.1749,-4.2431,-4.3284,-4.4026,-4.4712,-4.4712,-4.4632,-4.4571,-4.6242,-4.6885,-4.6807,-4.8469,-4.9183,-4.9101,-4.8943,-4.8874,-4.8787,-4.8678,-4.8623,-4.8623,-4.8768,-4.8732,-4.8605,0.0,0.0,0.0,0.0,-2.3215,-2.4739,-2.6491,-2.794,-2.9069,-2.9688,-3.1475,-3.3038,-3.388,-3.4768,-3.5661,-3.6508,-3.66,-3.6615,-3.6615,-3.6615,-3.6481,-3.6185,-3.5681,-3.5139,-3.4595,-3.4032,-3.3436,-3.2878,-3.2641,0.0,0.0,0.0,0.0,0.0,0.0,-3.4759,-3.5474,-3.7211,-3.8494,-3.9563,-4.1889,-4.4032,-4.5851,-4.5851,-4.641,-4.7162,-4.7167,-4.7539,-4.8027,-4.8027,-4.8027,-4.8027,-4.8027,-4.7422,-4.6719,-4.6719,-4.6094,-4.5293,-4.4721,-4.4555,-4.4348,-4.3489,-4.3259,-4.2949,-4.1798,-4.1467,-4.1011,-3.9556,-3.8991,-3.8403,-3.7211,-3.6735,0.0,0.0,0.0,0.0,0.0,-3.2103,-3.1142,-3.1068,-3.2053,-3.2806,-3.3058,-3.3061,-3.3372,-3.4213,-3.4483,-3.5131,-3.6253,-3.6843,-3.7643,-3.8684,-3.9311,-4.0195,-4.1463,-4.2295,-4.307,-4.3788,-4.4315,-4.4515,-4.4429,-4.6076,-4.6732,-4.6666,-4.8304,-4.8909,-4.8768,-4.8714,-4.8678,-4.8678,-4.8623,-4.8569,-4.855,-4.8642,-4.8624,-4.8513,-2.4276,-2.4693,0.0,-2.3575,-2.4782,-2.6474,-2.8218,-2.9436,-3.0605,-3.1857,-3.3455,-3.494,-3.609,-3.6731,-3.7533,-3.8722,-3.885,-3.8981,-3.9307,-3.9035,-3.8723,-3.8464,-3.7637,-3.6958,-3.6446,-3.5868,-3.531,-3.4751,-3.4205,-3.3928,0.0,0.0,0.0,0.0,0.0,-3.5679,-3.6393,-3.8121,-3.9396,-4.0496,-4.3107,-4.5012,-4.6319,-4.6638,-4.7113,-4.7645,-4.7949,-4.8418,-4.8906,-4.8906,-4.8906,-4.8906,-4.8906,-4.8516,-4.8066,-4.8066,-4.7655,-4.7027,-4.6165,-4.5922,-4.5636,-4.4465,-4.4138,-4.3904,-4.3066,-4.2565,-4.1972,-4.0859,-4.0096,-3.9295,-3.8142,-3.7414,0.0,0.0,0.0,0.0,0.0,-3.1226,-3.0286,-3.0213,-3.114,-3.1909,-3.2145,-3.2152,-3.2597,-3.3724,-3.3783,-3.4374,-3.5742,-3.6084,-3.6843,-3.8163,-3.8485,-3.9384,-4.0904,-4.1732,-4.2483,-4.3193,-4.4018,-4.4344,-4.4233,-4.5873,-4.6541,-4.6468,-4.8081,-4.8714,-4.8587,-4.8569,-4.8569,-4.8569,-4.8514,-4.8458,-4.8457,-4.855,-4.8513,-4.8419,-2.7494,-2.757,-2.7134,-2.5522,-2.6574,-2.8208,-2.9899,-3.0338,-3.1623,-3.4887,-3.5507,-3.6251,-3.7843,-3.8105,-3.8812,-4.0463,-4.0693,-4.1084,-4.1898,-4.1191,-4.0376,-3.9617,-3.8807,-3.8344,-3.8305,-3.8267,-3.8209,-3.817,-3.653,0.0,0.0,0.0,0.0,0.0,-3.6338,0.0,-3.7342,-3.9035,-4.0357,-4.1515,-4.4005,-4.5558,-4.6459,-4.7332,-4.7681,-4.7849,-4.867,-4.8984,-4.9023,-4.9023,-4.9023,-4.9023,-4.9023,-4.9004,-4.8965,-4.8965,-4.8938,-4.872,-4.7899,-4.7659,-4.7256,-4.5558,-4.5074,-4.4802,-4.3943,-4.3072,-4.2408,-4.2327,-4.098,-3.9788,-3.9636,-3.821,-3.7036,0.0,0.0,0.0,0.0,-3.0893,-3.0318,-3.0221,-3.0199,-3.0496,-3.1268,-3.1283,-3.192,-3.3539,-3.3637,-3.3999,-3.4774,-3.5587,-3.6417,-3.7279,-3.8033,-3.9171,-4.0722,-4.156,-4.2313,-4.294,-4.3855,-4.4177,-4.4061,-4.5732,-4.6376,-4.6279,-4.7904,-4.8587,-4.8587,-4.8532,-4.8475,-4.8457,-4.8363,-4.8267,-4.8306,-4.8457,-4.8401,-4.8306,-2.7504,-2.854,-2.9307,-2.8879,-2.916,-2.9804,-3.0911,-3.2732,-3.4312,-3.5258,-3.759,-3.9353,-3.9794,-4.0995,-4.195,-4.2387,-4.2456,-4.2568,-4.2849,-4.2652,-4.2435,-4.2232,-4.206,-4.1699,-4.1086,-4.044,-3.9813,-3.9223,-3.8128,-3.7605,-3.7605,0.0,0.0,0.0,0.0,-3.8402,-3.9096,-4.0201,-4.1972,-4.4055,-4.4731,-4.5909,-4.7357,-4.822,-4.8961,-4.957,-4.9783,-5.0254,-5.0762,-5.0762,-5.0762,-5.0762,-5.0762,-5.0351,-4.9863,-4.9871,-4.941,-4.8837,-4.8571,-4.849,-4.8232,-4.7198,-4.6889,-4.644,-4.4919,-4.4409,-4.3863,-4.256,-4.1949,-4.1224,-3.9859,-3.8695,-3.7753,0.0,0.0,0.0,-3.1922,-3.1437,-3.0988,-3.0278,-3.0199,-3.0266,-3.0422,-3.0426,-3.0817,-3.1779,-3.2409,-3.3091,-3.3885,-3.4696,-3.5788,-3.7175,-3.7393,-3.8225,-3.982,-4.1191,-4.1885,-4.1983,-4.3397,-4.3992,-4.3906,-4.5534,-4.6205,-4.621,-4.7832,-4.8476,-4.8382,-4.8286,-4.8265,-4.8265,-4.813,-4.8072,-4.8111,-4.8267,-4.8306,-4.8306,-2.9734,-3.0506,-3.1314,-3.1691,-3.21,-3.2531,-3.3038,-3.4385,-3.5887,-3.7417,-3.9307,-4.0784,-4.1553,-4.2508,-4.3233,-4.3631,-4.3701,-4.3901,-4.4302,-4.4003,-4.38,-4.3808,-4.3518,-4.3136,-4.2683,-4.2191,-4.1698,-4.1264,-4.0012,-3.9392,-3.9372,0.0,0.0,0.0,0.0,-3.9419,-4.0385,-4.2013,-4.3592,-4.5078,-4.5828,-4.6716,0.0,-4.8981,-4.9768,-5.0248,-5.0605,-5.1016,-5.1406,-5.1406,-5.1406,-5.1406,-5.1406,-5.1093,-5.0715,-5.0718,-5.0379,-4.9911,-4.9481,-4.9364,-4.9169,-4.833,-4.7806,-4.724,-4.6265,-4.5442,-4.4611,-4.3592,-4.2805,-4.1972,-4.0917,-3.9713,-3.8451,-3.7157,-3.5465,-3.3824,-3.2466,-3.1885,-3.1264,-3.0362,-3.0226,-3.0171,-3.0102,-3.0102,-3.0399,-3.1137,-3.1955,-3.2732,-3.3507,-3.4317,-3.5329,-3.6558,-3.6888,-3.7622,-3.8838,-4.0747,-4.1667,-4.1586,-4.3169,-4.3832,-4.3775,-4.5397,-4.6083,-4.6067,-4.7683,-4.8286,-4.8151,-4.813,-4.809,-4.809,-4.8032,-4.7992,-4.8032,-4.8111,-4.819,-4.819,-3.2749,-3.2858,-3.3214,-3.4091,-3.5031,-3.5726,-3.5956,-3.6036,-3.7137,-4.0114,-4.08,-4.1566,-4.3102,-4.3481,-4.3917,-4.4688,-4.4901,-4.5332,-4.6085,-4.5388,-4.4944,-4.4944,-4.4168,-4.3746,-4.3746,-4.3641,-4.3582,-4.3582,-4.1953,-4.1158,0.0,0.0,0.0,0.0,0.0,0.0,0.0,-4.3947,-4.5011,-4.5312,-4.6944,-4.7676,-4.7959,-4.9589,-5.0264,-5.0449,-5.1152,-5.1406,-5.1406,-5.1406,-5.1406,-5.1406,-5.1406,-5.1396,-5.1394,-5.1394,-5.1394,-5.1238,-5.0477,-5.0262,-5.0067,-4.9189,-4.8313,-4.7649,-4.7532,-4.6242,-4.502,-4.4845,-4.3564,-4.2408,-4.2228,-4.0684,-3.8886,-3.7201,-3.555,-3.4183,-3.328,-3.2449,-3.1572,-3.058,-3.0406,0.0,-3.0122,-3.0102,-3.0361,-3.0985,-3.188,-3.2676,-3.3317,-3.4199,-3.5018,-3.5768,-3.655,-3.73,-3.7973,-4.0383,-4.1519,-4.1477,-4.301,-4.3719,-4.3655,-4.5311,-4.5938,-4.5882,-4.7492,-4.809,-4.7992,-4.7992,-4.797,-4.7951,-4.7951,-4.7951,-4.7951,-4.7951,-4.7951,-4.7992,-3.3525,-3.426,-3.5037,-3.5965,-3.6859,-3.7923,-3.9372,-3.9599,-3.9826,-4.0415,-4.2335,-4.3775,-4.4116,-4.5404,-4.6342,-4.6615,-4.7249,-4.7743,-4.8014,-4.7229,-4.6739,-4.6745,-4.5968,-4.5545,-4.5545,-4.4889,-4.454,-4.454,-4.3568,-4.311,0.0,0.0,0.0,0.0,0.0,0.0,-4.4245,-4.4753,-4.5391,-4.6163,-4.7198,-4.8021,-4.8786,-4.982,-5.0617,-5.1211,-5.1348,-5.1406,-5.1406,-5.1406,-5.1406,-5.1406,-5.1394,-5.1398,-5.1394,-5.1394,-5.1394,-5.1375,-5.1219,-5.118,-5.0965,-5.0087,-4.9211,-4.8371,-4.7669,-4.6709,-4.576,-4.5036,-4.4086,-4.3128,-4.2343,-4.0189,-3.8179,-3.716,-3.6076,-3.5071,-3.4183,-3.3846,-3.3075,-3.1552,-3.132,-3.0963,-3.0179,-3.0102,-3.0114,-3.0132,-3.1485,-3.2374,-3.2487,-3.3797,-3.4911,-3.5768,-3.6478,-3.718,-3.792,-4.0306,-4.1428,-4.1254,-4.2875,-4.3566,-4.3466,-4.5132,-4.5772,-4.5732,-4.7338,-4.8032,-4.7992,-4.7966,-4.7842,-4.7741,-4.7741,-4.7741,-4.7741,-4.7741,-4.7741,-4.7783,-3.5787,-3.6205,-3.6927,-3.8278,-3.8887,-3.978,-4.1539,-4.217,-4.2473,-4.247,-4.3965,-4.5194,-4.5654,-4.686,-4.7661,-4.7712,-4.8145,-4.8426,-4.8507,-4.8141,-4.7934,-4.7927,-4.7567,-4.7337,-4.7337,-4.6562,-4.6153,-4.6153,-4.4868,-4.4225,0.0,0.0,0.0,0.0,0.0,-4.4514,-4.4924,-4.544,-4.6175,-4.7045,-4.7913,-4.8808,-4.9664,-5.0498,-5.1053,-5.1406,-5.1406,-5.1404,-5.14,-5.1406,-5.1404,-5.1396,-5.1402,-5.1394,-5.1394,-5.1394,-5.1394,-5.1394,-5.1394,-5.1394,-5.1297,-5.0887,-4.9777,-4.8683,-4.8273,-4.7158,-4.6079,-4.5667,-4.4514,-4.3186,-4.1772,-4.0131,-3.8694,-3.781,-3.6891,-3.5809,-3.4504,-3.4212,-3.3673,-3.2377,-3.2196,-3.1795,-3.0807,-3.1131,-3.0988,-2.9967,-3.1391,-3.2279,-3.2241,-3.3679,-3.4888,-3.5722,-3.6398,-3.7095,-3.7839,-4.0189,-4.1285,-4.1222,-4.276,-4.3666,-4.4071,-4.5187,-4.5897,-4.6236,-4.7438,-4.7907,-4.7847,-4.7801,-4.7759,-4.7717,-4.7717,-4.7717,-4.7717,-4.7717,-4.7717,-4.7741,-3.8476,-3.8532,-3.9028,-4.0593,-4.0896,-4.1466,-4.3035,-4.4011,-4.4566,-4.4603,-4.5387,-4.6268,-4.7114,-4.8028,-4.8578,-4.8593,-4.8866,-4.903,-4.9058,-4.8936,-4.8856,-4.8887,-4.8699,-4.8603,-4.8613,-4.8,-4.7678,-4.7678,-4.613,-4.5371,-4.5351,0.0,0.0,0.0,-4.4878,-4.5292,-4.5489,-4.6264,-4.7077,-4.7943,-4.8833,-4.9597,-5.0298,-5.1093,-5.1406,-5.1406,-5.1406,-5.14,-5.1398,-5.1402,-5.1398,-5.1398,-5.1394,-5.1394,-5.1394,-5.1394,-5.1394,-5.1394,-5.1394,-5.1394,-5.1394,-5.139,-5.0089,-4.88,-4.88,-4.745,-4.6196,-4.6201,-4.4814,-4.31,-4.1471,-4.0315,-3.9314,-3.844,-3.7502,-3.6361,-3.4793,-3.4526,-3.4135,-3.3201,-3.3091,-3.269,-3.1664,-3.22,-3.1998,-3.0519,-3.1751,-3.2524,-3.2465,-3.3752,-3.4843,-3.5632,-3.6322,-3.7034,-3.7776,-4.005,-4.1172,-4.114,-4.2677,-4.3815,-4.4565,-4.5257,-4.5981,-4.6699,-4.7516,-4.7819,-4.7717,-4.7717,-4.7717,-4.7717,-4.7717,-4.7717,-4.7717,-4.7717,-4.7717,-4.7717,-4.0998,-4.1189,-4.1531,-4.2505,-4.2694,-4.3073,-4.403,-4.4913,-4.5488,-4.5558,-4.6271,-4.7133,-4.8063,-4.8948,-4.9502,-4.9558,-5.0308,-5.0782,-5.0849,-5.0125,-4.9703,-4.9779,-4.9031,-4.8633,-4.8681,-4.863,-4.858,-4.858,-4.7681,-4.724,-4.7221,-4.6371,-4.5969,-4.5962,-4.6114,-4.6572,-4.7279,-4.7428,-4.7982,-4.8841,-4.9723,-5.0127,-5.0293,-5.1094,-5.1406,-5.1406,-5.1406,-5.14,-5.1394,-5.1398,-5.1408,-5.1394,-5.1398,-5.1394,-5.1394,-5.1394,-5.1394,-5.1394,-5.1394,-5.1394,-5.139,-5.1401,-5.0084,-4.88,-4.8802,-4.7457,-4.6196,-4.6196,-4.4803,-4.3303,-4.2277,-4.0713,-3.9314,-3.8442,-3.7514,-3.6574,-3.5604,-3.5412,-3.5033,-3.4084,-3.3973,-3.357,-3.2578,-3.2542,-3.2457,-3.2109,-3.2902,-3.3352,-3.3287,-3.3986,-3.4773,-3.5584,-3.627,-3.698,-3.7691,-4.0019,-4.1121,-4.0958,-4.2589,-4.3743,-4.4342,-4.516,-4.5882,-4.654,-4.7355,-4.7717,-4.7717,-4.7717,-4.7717,-4.7717,-4.7717,-4.7717,-4.7717,-4.7717,-4.7717,-4.7717,-4.2221,-4.2298,-4.2603,-4.3521,-4.4152,-4.4802,-4.572,-4.6602,-4.7369,-4.7921,-4.8268,-4.8613,-4.9026,-4.9853,-5.0403,-5.0463,-5.084,-5.1062,-5.1095,-5.0802,-5.0642,-5.0683,-5.0384,-5.0237,-5.0265,-4.9757,-4.9481,-4.9481,-4.867,-4.8288,-4.8275,-4.7924,-4.7762,-4.7761,-4.7801,-4.7982,-4.8274,-4.8346,-4.8864,-4.9654,-5.0038,-5.0498,-5.0957,-5.1289,-5.1406,-5.1406,-5.14,-5.1394,-5.1408,-5.1398,-5.1398,-5.1405,-5.1398,-5.1394,-5.1394,-5.1394,-5.1394,-5.1394,-5.1394,-5.1394,-5.139,-5.1401,-5.0084,-4.88,-4.8802,-4.7457,-4.6196,-4.6196,-4.4803,-4.3322,-4.2374,-4.1179,-4.0051,-3.9217,-3.8291,-3.7351,-3.6453,-3.5881,-3.5374,-3.487,-3.4817,-3.4431,-3.3415,-3.3779,-3.3805,-3.3053,-3.3336,-3.3465,-3.3358,-3.402,-3.4974,-3.621,-3.6451,-3.7137,-3.8354,-4.0215,-4.1075,-4.0924,-4.2501,-4.3907,-4.5012,-4.5261,-4.6055,-4.7246,-4.7572,-4.7717,-4.7717,-4.7717,-4.7717,-4.7717,-4.7717,-4.7717,-4.7717,-4.7717,-4.7717,-4.7699,-4.3865,-4.3924,-4.4231,-4.5189,-4.586,-4.6492,-4.7163,-4.8007,-4.8792,-4.9423,-4.9749,-4.992,-4.9988,-5.0542,-5.0956,-5.102,-5.1081,-5.1121,-5.112,-5.1167,-5.1219,-5.124,-5.1269,-5.1295,-5.1295,-5.0696,-5.0373,-5.0373,-4.9581,-4.9179,-4.9172,-4.8925,-4.88,-4.8811,-4.8801,-4.8942,-4.92,-4.9224,-4.9726,-5.0496,-5.0535,-5.0894,-5.1406,-5.1406,-5.1406,-5.1402,-5.1405,-5.1402,-5.1391,-5.1398,-5.1394,-5.1394,-5.1394,-5.1394,-5.1394,-5.1394,-5.1394,-5.1394,-5.1394,-5.139,-5.1406,-5.1396,-5.0093,-4.8788,-4.8789,-4.7457,-4.6196,-4.6162,-4.4795,-4.34,-4.2704,-4.1606,-4.0535,-3.9732,-3.9038,-3.8175,-3.6974,-3.6305,-3.5791,-3.535,-3.5315,-3.5025,-3.4253,-3.4731,-3.4774,-3.394,-3.3883,-3.3802,-3.363,-3.4353,-3.536,-3.6615,-3.6786,-3.7608,-3.9142,-4.0396,-4.1104,-4.1257,-4.2558,-4.396,-4.5446,-4.5838,-4.6631,-4.7717,-4.7717,-4.7717,-4.7717,-4.7717,-4.7717,-4.7717,-4.7717,-4.7717,-4.7717,-4.7717,-4.7717,-4.7741,-4.6373,-4.6606,-4.6954,-4.7895,-4.8049,-4.8067,-4.8086,-4.8873,-4.9486,-4.95,-5.0323,-5.0877,-5.0871,-5.0937,-5.102,-5.1101,-5.1089,-5.112,-5.1189,-5.1189,-5.124,-5.1306,-5.1306,-5.1295,-5.13,-5.1284,-5.1271,-5.1271,-5.0472,-5.0087,-5.0068,-4.9206,-4.8801,-4.8801,-4.8794,-4.9286,-5.0087,-5.0087,-5.0594,-5.1379,-5.1385,-5.1387,-5.1406,-5.1406,-5.14,-5.1394,-5.1394,-5.1394,-5.1394,-5.1394,-5.1394,-5.1394,-5.1394,-5.1394,-5.1394,-5.1394,-5.1394,-5.1394,-5.1394,-5.1406,-5.1396,-5.14,-5.0095,-4.8789,-4.8794,-4.7443,-4.6189,-4.6111,-4.477,-4.3586,-4.3501,-4.2013,-4.0535,-3.9732,-3.9522,-3.8864,-3.7051,-3.6787,-3.6408,-3.5426,-3.5315,-3.5239,-3.5091,-3.5092,-3.502,-3.479,-3.4769,-3.4687,-3.4409,-3.5208,-3.5969,-3.6581,-3.7313,-3.8409,-3.9989,-4.0588,-4.1259,-4.1994,-4.2741,-4.3846,-4.5363,-4.6957,-4.7681,-4.7717,-4.7717,-4.7717,-4.7717,-4.7717,-4.7717,-4.7717,-4.7717,-4.7717,-4.7717,-4.7717,-4.7717,-4.7741,-4.7427,-4.7526,-4.7683,-4.8049,-4.8587,-4.899,-4.899,-4.9776,-5.0389,-5.0387,-5.0687,-5.0909,-5.0906,-5.0956,-5.102,-5.1101,-5.1089,-5.112,-5.1208,-5.121,-5.123,-5.1306,-5.1304,-5.13,-5.1303,-5.131,-5.1317,-5.1369,-5.1121,-5.099,-5.0981,-5.0703,-5.0571,-5.0571,-5.0575,-5.0731,-5.0984,-5.0984,-5.1141,-5.1398,-5.1404,-5.1406,-5.1406,-5.1406,-5.14,-5.1394,-5.1394,-5.1394,-5.1394,-5.1394,-5.1394,-5.1394,-5.1394,-5.1394,-5.1394,-5.1394,-5.1394,-5.1394,-5.1406,-5.1401,-5.1391,-5.1349,-5.0069,-4.8789,-4.8794,-4.7443,-4.6189,-4.6102,-4.477,-4.3586,-4.352,-4.2033,-4.071,-4.0458,-3.9909,-3.9289,-3.8653,-3.8061,-3.7313,-3.6309,-3.6197,-3.5905,-3.5167,-3.5092,-3.523,-3.5581,-3.5618,-3.5512,-3.5306,-3.5544,-3.6205,-3.7313,-3.7581,-3.8427,-3.9913,-4.0588,-4.1259,-4.1994,-4.2759,-4.3864,-4.5345,-4.6975,-4.7717,-4.7717,-4.7717,-4.7717,-4.7717,-4.7717,-4.7717,-4.7717,-4.7717,-4.7717,-4.7717,-4.7717,-4.7759,-4.7842,-4.8309,-4.8429,-4.8624,-4.9009,-4.9529,-4.9894,-4.9894,-5.0411,-5.0793,-5.0793,-5.0858,-5.0906,-5.0906,-5.0971,-5.1053,-5.1101,-5.1121,-5.1163,-5.12,-5.1201,-5.123,-5.1295,-5.13,-5.1296,-5.1291,-5.1323,-5.1355,-5.1405,-5.1411,-5.1396,-5.1406,-5.139,-5.1394,-5.1394,-5.1394,-5.1398,-5.1405,-5.1398,-5.1402,-5.1396,-5.1405,-5.1406,-5.1406,-5.1404,-5.1396,-5.1405,-5.1398,-5.1394,-5.1394,-5.1394,-5.1394,-5.1394,-5.1394,-5.139,-5.141,-5.141,-5.141,-5.1406,-5.1391,-5.1386,-5.1361,-5.1317,-5.0036,-4.8626,-4.7976,-4.6975,-4.6189,-4.6102,-4.477,-4.3586,-4.352,-4.2033,-4.0807,-4.0807,-4.0335,-3.985,-3.9463,-3.8929,-3.8218,-3.721,-3.7099,-3.6805,-3.6119,-3.6026,-3.6141,-3.6449,-3.6443,-3.6483,-3.659,-3.6608,-3.695,-3.7673,-3.8301,-3.9153,-4.0341,-4.0979,-4.1716,-4.2449,-4.345,-4.4551,-4.5798,-4.7102,-4.7717,-4.7717,-4.7717,-4.7717,-4.7717,-4.7717,-4.7717,-4.7717,-4.7717,-4.7717,-4.7717,-4.7717,-4.7759,-4.7902,-4.9139,-4.9354,-4.9663,-5.0548,-5.0702,-5.0702,-5.0702,-5.0758,-5.0793,-5.0793,-5.0858,-5.0906,-5.0906,-5.1005,-5.1101,-5.1101,-5.1166,-5.1206,-5.1201,-5.1191,-5.123,-5.13,-5.1303,-5.1291,-5.1317,-5.1366,-5.1396,-5.1401,-5.141,-5.1394,-5.1394,-5.1394,-5.1394,-5.1394,-5.1394,-5.1405,-5.1396,-5.1405,-5.1396,-5.1406,-5.1406,-5.1406,-5.1406,-5.1408,-5.1405,-5.1396,-5.1402,-5.1394,-5.1394,-5.1394,-5.1394,-5.1394,-5.1394,-5.1406,-5.1396,-5.1396,-5.1396,-5.1391,-5.1394,-5.1343,-5.1291,-5.1291,-5.0049,-4.8339,-4.6605,-4.6196,-4.6189,-4.6102,-4.477,-4.3586,-4.352,-4.2033,-4.0807,-4.0807,-4.08,-4.0494,-3.9598,-3.9469,-3.9105,-3.8092,-3.798,-3.7879,-3.7623,-3.7547,-3.7468,-3.7395,-3.7261,-3.7478,-3.8159,-3.8171,-3.804,-3.7784,-3.9298,-4.0406,-4.1093,-4.1714,-4.243,-4.3269,-4.4644,-4.5725,-4.654,-4.7337,-4.7717,-4.7717,-4.7717,-4.7717,-4.7717,-4.7717,-4.7717,-4.7717,-4.7717,-4.7717,-4.7717,-4.7717,-4.7819,-4.7902,-5.0155,-5.0235,-5.0374,-5.0644,-5.0702,-5.0702,-5.0702,-5.0758,-5.0793,-5.0793,-5.0858,-5.0906,-5.0906,-5.1005,-5.1101,-5.1101,-5.1171,-5.12,-5.1211,-5.1249,-5.1276,-5.13,-5.1303,-5.1317,-5.1388,-5.1391,-5.1401,-5.139,-5.1394,-5.1394,-5.1394,-5.1394,-5.1394,-5.1394,-5.1394,-5.1398,-5.1402,-5.14,-5.1406,-5.1406,-5.1406,-5.1403,-5.1405,-5.1398,-5.1398,-5.1402,-5.1394,-5.1394,-5.1394,-5.1394,-5.1394,-5.1394,-5.1406,-5.1401,-5.1396,-5.1396,-5.1411,-5.1394,-5.1343,-5.1317,-5.131,-5.1296,-5.0041,-4.8339,-4.6605,-4.6196,-4.6189,-4.6102,-4.477,-4.3586,-4.352,-4.2033,-4.0807,-4.0807,-4.0757,-4.0623,-4.0351,-4.0309,-3.9942,-3.8936,-3.8824,-3.8508,-3.768,-3.7547,-3.7714,-3.8188,-3.8089,-3.8321,-3.9063,-3.9003,-3.885,-3.8615,-3.9575,-4.0406,-4.1093,-4.1697,-4.265,-4.3901,-4.4859,-4.5725,-4.654,-4.7337,-4.7717,-4.7717,-4.7717,-4.7717,-4.7717,-4.7717,-4.7717,-4.7717,-4.7717,-4.7717,-4.7717,-4.7801,-4.7925,-4.801,-5.0521,-5.0603,-5.0643,-5.0683,-5.0702,-5.0702,-5.0702,-5.0776,-5.081,-5.0846,-5.0877,-5.0906,-5.0956,-5.1039,-5.1101,-5.1108,-5.1163,-5.12,-5.1211,-5.1258,-5.1304,-5.1296,-5.1336,-5.1349,-5.1405,-5.1401,-5.141,-5.1394,-5.1394,-5.1394,-5.1394,-5.1394,-5.1394,-5.1394,-5.1394,-5.1394,-5.1398,-5.1403,-5.1406,-5.1406,-5.1403,-5.1391,-5.1394,-5.1394,-5.1394,-5.1394,-5.1394,-5.1394,-5.1394,-5.1394,-5.139,-5.1406,-5.1401,-5.1372,-5.1361,-5.1361,-5.1355,-5.1343,-5.1303,-5.1296,-5.1121,-5.0346,-4.9469,-4.8339,-4.6605,-4.6189,-4.6174,-4.6102,-4.4742,-4.3538,-4.3461,-4.2003,-4.0807,-4.0804,-4.0732,-4.0687,-4.0621,-4.0564,-4.0335,-3.9761,-3.9653,-3.9392,-3.8784,-3.8627,-3.8693,-3.9014,-3.8906,-3.9133,-3.9896,-3.9806,-3.9667,-3.9446,-4.024,-4.0959,-4.1644,-4.2245,-4.3269,-4.4639,-4.5091,-4.5906,-4.7065,-4.7518,-4.7717,-4.7717,-4.7717,-4.7717,-4.7717,-4.7717,-4.7717,-4.7717,-4.7717,-4.7717,-4.7717,-4.7861,-4.7947,-4.8032,-5.0582,-5.0643,-5.0702,-5.0702,-5.0702,-5.0702,-5.0701,-5.0757,-5.081,-5.0899,-5.0893,-5.0941,-5.0986,-5.1053,-5.1095,-5.1095,-5.1156,-5.121,-5.1211,-5.1258,-5.1292,-5.1291,-5.1369,-5.14,-5.1396,-5.141,-5.1394,-5.1394,-5.1394,-5.1394,-5.1394,-5.1394,-5.1394,-5.1394,-5.1394,-5.1398,-5.1405,-5.1404,-5.1406,-5.1405,-5.1408,-5.1394,-5.1394,-5.1394,-5.1394,-5.1394,-5.1394,-5.1394,-5.139,-5.139,-5.1406,-5.1396,-5.1391,-5.1355,-5.1291,-5.131,-5.131,-5.1303,-5.1308,-5.1203,-5.0735,-4.9196,-4.869,-4.8183,-4.6566,-4.6201,-4.6185,-4.6102,-4.4714,-4.3471,-4.3402,-4.1973,-4.0796,-4.08,-4.0739,-4.0668,-4.0621,-4.0534,-4.0476,-4.0415,-4.0289,-4.0158,-4.0117,-3.9933,-3.9781,-3.9712,-3.9621,-3.9877,-4.0549,-4.0579,-4.0548,-4.0461,-4.1114,-4.1807,-4.2436,-4.2939,-4.3851,-4.5167,-4.5236,-4.6087,-4.7536,-4.7645,-4.7717,-4.7717,-4.7717,-4.7717,-4.7717,-4.7717,-4.7717,-4.7717,-4.7717,-4.7717,-4.7759,-4.7861,-4.7947,-4.805,-5.0603,-5.0643,-5.0702,-5.0702,-5.0702,-5.0702,-5.0701,-5.0757,-5.081,-5.0899,-5.0893,-5.0941,-5.0986,-5.1053,-5.1095,-5.1095,-5.1159,-5.1201,-5.1211,-5.1256,-5.1308,-5.1291,-5.1369,-5.14,-5.1396,-5.141,-5.1394,-5.1394,-5.1394,-5.1394,-5.1394,-5.1394,-5.1394,-5.1394,-5.1394,-5.1391,-5.1406,-5.1406,-5.1403,-5.1402,-5.1398,-5.1394,-5.1394,-5.1394,-5.1394,-5.1394,-5.1394,-5.141,-5.1401,-5.1401,-5.1391,-5.1394,-5.1323,-5.1317,-5.131,-5.1289,-5.1308,-5.13,-5.13,-5.0755,-4.9976,-4.9021,-4.8241,-4.7443,-4.6429,-4.6201,-4.6185,-4.6102,-4.4714,-4.3471,-4.3402,-4.1973,-4.0796,-4.08,-4.0707,-4.0621,-4.0588,-4.0539,-4.0466,-4.0415,-4.0289,-4.0158,-4.0117,-3.9933,-3.9781,-3.9712,-4.0146,-4.0475,-4.0587,-4.1119,-4.1612,-4.2123,-4.2239,-4.2621,-4.3228,-4.3232,-4.3597,-4.4467,-4.5022,-4.5798,-4.6721,-4.7391,-4.7717,-4.7717,-4.7717,-4.7717,-4.7717,-4.7717,-4.7717,-4.7717,-4.7717,-4.7759,-4.7902,-4.7947,-4.805,-4.8187,-5.0643,-5.0663,-5.0702,-5.0702,-5.0683,-5.0702,-5.0757,-5.081,-5.0863,-5.0913,-5.0909,-5.0941,-5.1053,-5.1087,-5.1108,-5.1144,-5.118,-5.122,-5.1249,-5.1284,-5.1316,-5.1343,-5.1369,-5.1405,-5.1406,-5.139,-5.1394,-5.1394,-5.1394,-5.1394,-5.1394,-5.1394,-5.1394,-5.1394,-5.1394,-5.1403,-5.1406,-5.1406,-5.1402,-5.1394,-5.1394,-5.1394,-5.1394,-5.1394,-5.1394,-5.1394,-5.1406,-5.1401,-5.1396,-5.1411,-5.1375,-5.1343,-5.1317,-5.1303,-5.1296,-5.13,-5.13,-5.13,-5.13,-5.0657,-4.982,-4.9001,-4.8144,-4.7267,-4.6395,-4.6166,-4.6141,-4.6104,-4.4686,-4.3442,-4.3419,-4.1989,-4.0781,-4.0752,-4.0648,-4.0607,-4.0598,-4.0511,-4.0432,-4.0415,-4.0253,-4.0118,-4.0098,-4.0306,-4.0434,-4.041,-4.0933,-4.1446,-4.1876,-4.2124,-4.252,-4.3195,-4.3096,-4.3146,-4.3394,-4.334,-4.3634,-4.4304,-4.5046,-4.5784,-4.654,-4.7337,-4.7717,-4.7717,-4.7717,-4.7717,-4.7717,-4.7717,-4.7717,-4.7717,-4.7759,-4.7861,-4.7902,-4.8068,-4.8148,-4.8226,-5.0683,-5.0702,-5.0702,-5.0702,-5.0702,-5.072,-5.081,-5.0863,-5.0897,-5.089,-5.0906,-5.0956,-5.1087,-5.1101,-5.1134,-5.1189,-5.119,-5.122,-5.1306,-5.1292,-5.1323,-5.1394,-5.14,-5.1396,-5.1394,-5.1394,-5.1394,-5.1394,-5.1394,-5.1398,-5.1402,-5.1398,-5.1398,-5.1408,-5.1404,-5.1406,-5.1406,-5.1405,-5.1398,-5.1402,-5.1394,-5.1394,-5.1394,-5.1394,-5.1394,-5.1394,-5.1401,-5.1396,-5.1391,-5.1375,-5.1336,-5.1303,-5.1303,-5.1296,-5.13,-5.13,-5.13,-5.1261,-5.1047,-5.0365,-4.9527,-4.8682,-4.7825,-4.7026,-4.6322,-4.6141,-4.6104,-4.6105,-4.4656,-4.341,-4.3397,-4.1986,-4.0776,-4.0713,-4.0635,-4.0593,-4.0588,-4.0463,-4.0379,-4.0379,-4.0215,-4.0174,-4.0344,-4.0757,-4.1089,-4.1259,-4.1777,-4.2361,-4.2949,-4.3055,-4.3311,-4.3786,-4.36,-4.3463,-4.3411,-4.3429,-4.3615,-4.4088,-4.4851,-4.5573,-4.6291,-4.7107,-4.7536,-4.7717,-4.7717,-4.7717,-4.7717,-4.7717,-4.7759,-4.7759,-4.7884,-4.7943,-4.7984,-4.8148,-4.8226,-4.8226,-5.0702,-5.0702,-5.0702,-5.0702,-5.0701,-5.0738,-5.0863,-5.0899,-5.0897,-5.089,-5.0956,-5.102,-5.1087,-5.1089,-5.112,-5.1189,-5.119,-5.122,-5.1306,-5.1308,-5.1336,-5.1394,-5.1401,-5.1394,-5.1394,-5.1394,-5.1394,-5.1394,-5.1394,-5.1405,-5.1396,-5.1402,-5.1391,-5.1406,-5.1406,-5.1406,-5.1406,-5.1391,-5.1408,-5.1396,-5.1402,-5.1394,-5.1394,-5.1394,-5.1394,-5.1394,-5.1401,-5.1411,-5.1394,-5.1336,-5.1303,-5.13,-5.13,-5.13,-5.13,-5.13,-5.13,-5.1125,-5.0326,-4.9508,-4.867,-4.7731,-4.6894,-4.6263,-4.6141,-4.6104,-4.6105,-4.6095,-4.4656,-4.341,-4.3397,-4.1986,-4.0776,-4.0713,-4.0635,-4.0593,-4.0504,-4.0447,-4.0379,-4.0307,-4.0177,-4.0382,-4.1123,-4.1079,-4.1316,-4.2052,-4.2621,-4.293,-4.2986,-4.3595,-4.3873,-4.3804,-4.36,-4.3497,-4.3497,-4.3411,-4.3412,-4.3486,-4.4181,-4.4853,-4.5612,-4.6412,-4.7093,-4.7717,-4.7717,-4.7717,-4.7717,-4.7819,-4.7879,-4.7902,-4.797,-4.805,-4.8187,-4.8187,-4.8247,-4.8306,-5.0702,-5.0702,-5.0702,-5.0738,-5.0793,-5.0846,-5.0899,-5.0897,-5.0909,-5.089,-5.0956,-5.102,-5.1101,-5.1089,-5.1132,-5.119,-5.1201,-5.1239,-5.1308,-5.1336,-5.1375,-5.1411,-5.1406,-5.1394,-5.1394,-5.1394,-5.1394,-5.1394,-5.1394,-5.1398,-5.1405,-5.1398,-5.1404,-5.1406,-5.1406,-5.1404,-5.1394,-5.1402,-5.1398,-5.1405,-5.1398,-5.1394,-5.1394,-5.1394,-5.139,-5.1401,-5.1411,-5.1375,-5.1336,-5.1323,-5.1308,-5.13,-5.13,-5.13,-5.13,-5.1304,-5.0914,-5.0302,-4.9428,-4.897,-4.851,-4.7618,-4.6753,-4.6122,-4.6114,-4.6105,-4.6085,-4.6055,-4.4644,-4.3397,-4.34,-4.1938,-4.0726,-4.0654,-4.0612,-4.0588,-4.0495,-4.043,-4.0362,-4.0252,-4.0596,-4.0971,-4.1252,-4.2059,-4.2693,-4.2995,-4.3502,-4.3818,-4.3818,-4.3887,-4.3915,-4.3804,-4.3634,-4.3548,-4.3497,-4.3463,-4.3446,-4.3394,-4.4163,-4.4893,-4.5601,-4.6382,-4.7183,-4.7888,-4.7888,-4.7888,-4.7888,-4.7929,-4.7988,-4.797,-4.809,-4.8148,-4.8187,-4.8247,-4.8286,-4.8306,-5.0701,-5.072,-5.0738,-5.081,-5.0863,-5.0899,-5.0897,-5.0909,-5.0906,-5.0941,-5.1005,-5.1053,-5.1095,-5.1114,-5.1156,-5.1201,-5.122,-5.1248,-5.131,-5.1349,-5.1411,-5.1401,-5.139,-5.1394,-5.1394,-5.1394,-5.1394,-5.1394,-5.1394,-5.1394,-5.1394,-5.1403,-5.1406,-5.1406,-5.1404,-5.1396,-5.1394,-5.1394,-5.1394,-5.1394,-5.1394,-5.1394,-5.1394,-5.139,-5.1406,-5.1396,-5.1375,-5.1343,-5.131,-5.1308,-5.13,-5.13,-5.13,-5.13,-5.1292,-5.1295,-5.0683,-4.9798,-4.8915,-4.8487,-4.8068,-4.7222,-4.6532,-4.6095,-4.6076,-4.6056,-4.6065,-4.6003,-4.461,-4.34,-4.3395,-4.1932,-4.0687,-4.0621,-4.0583,-4.0543,-4.0466,-4.0415,-4.0422,-4.0559,-4.0995,-4.1502,-4.2006,-4.2943,-4.3592,-4.3811,-4.414,-4.4285,-4.4207,-4.4023,-4.3883,-4.3804,-4.3667,-4.3548,-4.3497,-4.3497,-4.3463,-4.3429,-4.3979,-4.462,-4.5294,-4.586,-4.6681,-4.7609,-4.7609,-4.7773,-4.7992,-4.805,-4.8032,-4.809,-4.8169,-4.8208,-4.8265,-4.8267,-4.8306,-4.8306,-5.0701,-5.0757,-5.081,-5.0899,-5.0899,-5.0897,-5.089,-5.0906,-5.0921,-5.0986,-5.1053,-5.1095,-5.1095,-5.1156,-5.12,-5.1211,-5.1258,-5.1312,-5.1291,-5.1361,-5.1401,-5.1394,-5.1394,-5.1394,-5.1394,-5.1394,-5.1394,-5.1394,-5.1394,-5.1394,-5.1394,-5.1403,-5.1406,-5.1406,-5.1391,-5.1394,-5.1394,-5.1394,-5.1394,-5.1394,-5.1394,-5.1394,-5.1394,-5.1401,-5.1396,-5.1396,-5.1323,-5.1291,-5.131,-5.1308,-5.13,-5.13,-5.13,-5.13,-5.1292,-5.1295,-5.0683,-4.9798,-4.8847,-4.8001,-4.7194,-4.6309,-4.6095,-4.6076,-4.6026,-4.5994,-4.5991,-4.5991,-4.4606,-4.3395,-4.3395,-4.1932,-4.0687,-4.0621,-4.0549,-4.0476,-4.0396,-4.0344,-4.0577,-4.1302,-4.1355,-4.1936,-4.3549,-4.358,-4.3792,-4.4549,-4.4411,-4.4207,-4.4005,-4.3929,-4.3883,-4.3804,-4.3667,-4.3548,-4.3497,-4.3497,-4.3497,-4.3497,-4.3497,-4.3903,-4.4602,-4.4602,-4.5387,-4.6807,-4.6807,-4.7244,-4.7974,-4.813,-4.8187,-4.8187,-4.8267,-4.8306,-4.8306,-4.8306,-4.8306,-4.8306,-5.0829,-5.0846,-5.088,-5.0893,-5.0909,-5.0909,-5.089,-5.0906,-5.0921,-5.0986,-5.1053,-5.1095,-5.1095,-5.1156,-5.12,-5.1211,-5.1258,-5.1312,-5.1362,-5.1396,-5.139,-5.1394,-5.1394,-5.1394,-5.1394,-5.1394,-5.1394,-5.1394,-5.1394,-5.1408,-5.1403,-5.1406,-5.1406,-5.1406,-5.1391,-5.1394,-5.1394,-5.1394,-5.1394,-5.1394,-5.1394,-5.1394,-5.1394,-5.1401,-5.1391,-5.14,-5.1323,-5.1303,-5.1308,-5.13,-5.13,-5.13,-5.13,-5.1292,-5.1295,-5.1249,-5.0179,-4.8954,-4.8679,-4.7522,-4.6367,-4.6095,-4.6037,-4.6026,-4.5994,-4.6003,-4.598,-4.5944,-4.457,-4.3363,-4.3285,-4.1821,-4.0607,-4.0598,-4.0543,-4.0482,-4.0415,-4.0861,-4.1246,-4.1338,-4.2343,-4.3232,-4.3644,-4.409,-4.4421,-4.4667,-4.444,-4.4255,-4.4135,-4.4023,-4.3961,-4.3883,-4.3832,-4.3734,-4.3548,-4.3513,-4.3497,-4.3497,-4.3497,-4.392,-4.4691,-4.4691,-4.5205,-4.6195,-4.6195,-4.6323,-4.658,-4.7166,-4.7404,-4.7497,-4.8047,-4.8306,-4.8306,-4.8306,-4.8363,-4.8457,-5.0883,-5.0897,-5.0893,-5.089,-5.0906,-5.0906,-5.0906,-5.0921,-5.0956,-5.102,-5.1081,-5.1102,-5.1132,-5.1178,-5.122,-5.124,-5.1304,-5.1362,-5.14,-5.1406,-5.1394,-5.1394,-5.1394,-5.1394,-5.1394,-5.1402,-5.1402,-5.1394,-5.1408,-5.1402,-5.1406,-5.1406,-5.1406,-5.14,-5.1391,-5.1402,-5.1394,-5.1394,-5.1394,-5.1394,-5.1394,-5.1394,-5.1394,-5.1396,-5.1405,-5.1388,-5.133,-5.1289,-5.13,-5.13,-5.13,-5.13,-5.13,-5.1304,-5.1287,-5.122,-5.0218,-4.904,-4.8688,-4.757,-4.6424,-4.6094,-4.5997,-4.5994,-4.6003,-4.598,-4.5944,-4.5906,-4.4544,-4.3318,-4.3206,-4.1774,-4.0593,-4.0588,-4.0515,-4.0449,-4.0415,-4.1053,-4.1628,-4.1791,-4.299,-4.3897,-4.4113,-4.448,-4.4685,-4.4605,-4.443,-4.4255,-4.4184,-4.4085,-4.3974,-4.3897,-4.3897,-4.3832,-4.3667,-4.3634,-4.3566,-4.3497,-4.3497,-4.3754,-4.4232,-4.4232,-4.4654,-4.5424,-4.5424,-4.5608,-4.5938,-4.6434,-4.6636,-4.6673,-4.7168,-4.7389,-4.7481,-4.7794,-4.796,-4.8126,-5.0899,-5.0893,-5.0906,-5.0906,-5.0906,-5.0906,-5.0906,-5.0956,-5.102,-5.1087,-5.1089,-5.112,-5.1189,-5.119,-5.122,-5.1287,-5.1362,-5.14,-5.1396,-5.141,-5.1394,-5.1394,-5.1394,-5.1394,-5.1394,-5.1391,-5.1391,-5.1398,-5.1403,-5.1406,-5.1406,-5.1406,-5.1402,-5.1394,-5.1391,-5.1411,-5.1394,-5.1394,-5.1394,-5.1394,-5.1394,-5.1394,-5.139,-5.1405,-5.1394,-5.1388,-5.1316,-5.13,-5.13,-5.13,-5.13,-5.13,-5.13,-5.1304,-5.1287,-5.122,-5.0588,-4.9701,-4.8844,-4.7958,-4.7084,-4.621,-4.5994,-4.5991,-4.5991,-4.5944,-4.5893,-4.5893,-4.4511,-4.3272,-4.3206,-4.1774,-4.0593,-4.0588,-4.0479,-4.0398,-4.0398,-4.1092,-4.1857,-4.2514,-4.339,-4.4159,-4.4745,-4.4745,-4.4632,-4.4411,-4.4344,-4.4285,-4.4214,-4.4085,-4.3974,-4.3897,-4.3897,-4.3883,-4.3804,-4.3804,-4.3719,-4.3532,-4.3532,-4.3532,-4.3497,-4.3497,-4.3901,-4.4599,-4.4599,-4.5021,-4.5681,-4.5755,-4.5792,-4.5792,-4.5865,-4.5993,-4.621,-4.6947,-4.7223,-4.7441,-5.0893,-5.089,-5.0906,-5.0906,-5.0906,-5.0906,-5.0906,-5.0956,-5.102,-5.1087,-5.1089,-5.112,-5.1189,-5.119,-5.122,-5.1287,-5.1362,-5.14,-5.1396,-5.141,-5.1394,-5.1394,-5.1394,-5.1394,-5.1394,-5.1398,-5.1391,-5.1405,-5.1406,-5.1406,-5.1406,-5.1406,-5.1402,-5.1394,-5.1398,-5.1398,-5.1394,-5.1394,-5.1394,-5.1394,-5.1394,-5.1394,-5.1394,-5.1401,-5.1405,-5.1394,-5.131,-5.1296,-5.13,-5.13,-5.13,-5.13,-5.13,-5.1304,-5.1287,-5.122,-5.0588,-4.9701,-4.8844,-4.7958,-4.7084,-4.621,-4.5964,-4.5917,-4.5917,-4.5912,-4.5893,-4.5827,-4.4432,-4.3211,-4.3202,-4.1788,-4.0588,-4.0539,-4.0463,-4.0398,-4.0398,-4.1609,-4.2544,-4.2591,-4.3923,-4.4829,-4.4876,-4.477,-4.4632,-4.4487,-4.443,-4.4344,-4.4285,-4.4195,-4.4104,-4.3974,-4.3974,-4.3961,-4.3883,-4.3883,-4.3767,-4.3582,-4.3582,-4.3548,-4.3497,-4.3497,-4.3589,-4.3754,-4.3754,-4.3846,-4.4066,-4.4709,-4.4983,-4.5109,-4.5789,-4.6118,-4.6207,-4.6391,-4.6463,-4.6694,-5.089,-5.0906,-5.0906,-5.0906,-5.0906,-5.0906,-5.0956,-5.1005,-5.1067,-5.1108,-5.1134,-5.1163,-5.12,-5.1201,-5.1239,-5.1347,-5.1382,-5.1405,-5.1406,-5.139,-5.1394,-5.1394,-5.1402,-5.1405,-5.1394,-5.1394,-5.1391,-5.1406,-5.1406,-5.1406,-5.1406,-5.1406,-5.1404,-5.1408,-5.1398,-5.1394,-5.1394,-5.1394,-5.1394,-5.1394,-5.1394,-5.1394,-5.1394,-5.1401,-5.1411,-5.1394,-5.1317,-5.1296,-5.13,-5.13,-5.13,-5.13,-5.13,-5.1304,-5.1287,-5.122,-5.0879,-5.0236,-4.896,-4.8269,-4.7609,-4.6327,-4.5953,-4.5905,-4.5905,-4.5867,-4.5847,-4.5814,-4.4399,-4.3211,-4.3207,-4.1774,-4.0573,-4.0504,-4.0427,-4.0398,-4.0398,-4.1781,-4.2754,-4.2629,-4.4094,-4.5014,-4.4821,-4.4738,-4.4659,-4.4515,-4.4458,-4.4383,-4.4344,-4.4255,-4.4184,-4.4104,-4.4036,-4.3974,-4.3961,-4.3961,-4.3897,-4.3734,-4.3701,-4.3686,-4.3652,-4.3652,-4.3652,-4.3652,-4.3652,-4.3652,-4.3689,-4.4113,-4.4278,-4.4383,-4.4826,-4.5026,-4.513,-4.5519,-4.5975,-4.652,-5.0906,-5.0906,-5.0906,-5.0906,-5.0906,-5.0921,-5.0986,-5.1053,-5.1095,-5.1095,-5.1171,-5.1186,-5.1201,-5.1201,-5.1265,-5.1388,-5.1394,-5.1411,-5.1394,-5.1394,-5.1394,-5.1394,-5.1391,-5.1391,-5.1394,-5.1402,-5.1396,-5.1406,-5.1406,-5.1406,-5.1406,-5.1406,-5.1405,-5.1398,-5.1402,-5.1394,-5.1394,-5.1394,-5.1394,-5.1394,-5.1394,-5.1394,-5.1394,-5.1406,-5.1391,-5.1394,-5.1343,-5.1303,-5.13,-5.13,-5.13,-5.13,-5.13,-5.1312,-5.1287,-5.122,-5.1103,-5.0645,-4.9049,-4.8483,-4.7997,-4.6404,-4.5964,-4.5917,-4.5886,-4.5854,-4.58,-4.58,-4.4534,-4.3371,-4.3226,-4.1889,-4.0746,-4.0543,-4.0427,-4.0454,-4.0607,-4.1877,-4.2811,-4.28,-4.4148,-4.4967,-4.4738,-4.4712,-4.4659,-4.4542,-4.444,-4.4411,-4.4383,-4.4285,-4.4214,-4.4184,-4.4085,-4.4005,-4.4005,-4.4005,-4.3974,-4.3929,-4.3851,-4.3837,-4.3804,-4.3804,-4.3804,-4.3804,-4.3804,-4.3804,-4.3804,-4.3804,-4.3804,-4.3837,-4.3837,-4.3851,-4.4022,-4.4689,-4.55,-4.6382,-5.0906,-5.0906,-5.0906,-5.0906,-5.0906,-5.0921,-5.0986,-5.1053,-5.1095,-5.1095,-5.1156,-5.12,-5.1211,-5.1245,-5.131,-5.1394,-5.1405,-5.1401,-5.1394,-5.1394,-5.1394,-5.1394,-5.1391,-5.1391,-5.1394,-5.14,-5.1406,-5.1406,-5.1406,-5.1406,-5.1406,-5.1406,-5.1405,-5.1398,-5.1402,-5.1394,-5.1394,-5.1394,-5.1394,-5.1394,-5.1394,-5.1394,-5.1394,-5.1394,-5.1406,-5.1391,-5.14,-5.1349,-5.13,-5.13,-5.13,-5.13,-5.13,-5.13,-5.1292,-5.1287,-5.0743,-4.9917,-4.8875,-4.8058,-4.724,-4.6249,-4.5994,-4.596,-4.5917,-4.5854,-4.58,-4.58,-4.5008,-4.4094,-4.3342,-4.2341,-4.1393,-4.0604,-4.0427,-4.0665,-4.1412,-4.2259,-4.3002,-4.3583,-4.4402,-4.4895,-4.4815,-4.4719,-4.4659,-4.4578,-4.4524,-4.4458,-4.4411,-4.4383,-4.4314,-4.4184,-4.4184,-4.4104,-4.4005,-4.4005,-4.4005,-4.3974,-4.3974,-4.3897,-4.3804,-4.3804,-4.3804,-4.3804,-4.3804,-4.3804,-4.3804,-4.3804,-4.3818,-4.3883,-4.3883,-4.3929,-4.3992,-4.4103,-4.4711,-4.5472,-5.0326,-5.0596,-5.0906,-5.0906,-5.0906,-5.0941,-5.1039,-5.1087,-5.1114,-5.1159,-5.1186,-5.12,-5.1211,-5.1253,-5.1336,-5.1394,-5.1411,-5.1401,-5.1394,-5.1394,-5.1394,-5.1394,-5.1391,-5.1398,-5.14,-5.1406,-5.1406,-5.1406,-5.1406,-5.1406,-5.1406,-5.1406,-5.1406,-5.1404,-5.1408,-5.1394,-5.1394,-5.1394,-5.1394,-5.1394,-5.1394,-5.1394,-5.1394,-5.1394,-5.1406,-5.1396,-5.14,-5.1362,-5.1296,-5.1296,-5.1289,-5.13,-5.13,-5.13,-5.1292,-5.1295,-5.0674,-4.981,-4.8847,-4.796,-4.7084,-4.621,-4.5994,-4.5991,-4.5917,-4.5867,-4.5847,-4.5814,-4.51,-4.4225,-4.3361,-4.2453,-4.1559,-4.0658,-4.0427,-4.0703,-4.1585,-4.2317,-4.3231,-4.4402,-4.474,-4.487,-4.4815,-4.4738,-4.4685,-4.4605,-4.4542,-4.4487,-4.4458,-4.4411,-4.4354,-4.4314,-4.4274,-4.4226,-4.4177,-4.4177,-4.4147,-4.4104,-4.4104,-4.4023,-4.3897,-4.3897,-4.3897,-4.3897,-4.3897,-4.3897,-4.3897,-4.3897,-4.3929,-4.3961,-4.3961,-4.3974,-4.4005,-4.4005,-4.4246,-4.4636]}]]